[[{"header":{"parameterUnit":"m.s-1","parameterCategory":1,"la1":30.6,"la2":28.766,"lo1":-90.7593,"lo2":-88.6598,"dx":0.0162,"dy":0.0183,"nx":116,"ny":114,"refTime":"2022-11-11T18:00:00:Z","depth":0,"parameterNumber":2,"parameterNumberName":"U-component_of_WINDS"},"data":[0.0,0.0,0.0,0.0,0.0,0.0,0.0,0.0,0.0,0.0,0.0,0.0,0.0,0.0,0.0,0.0,0.0,0.0,0.0,0.0,0.0,0.0,0.0,0.0,0.0,0.0,0.0,0.0,0.0,0.0,0.0,0.0,0.0,0.0,0.0,0.0,0.0,0.0,0.0,0.0,0.0,0.0,0.0,0.0,0.0,0.0,0.0,0.0,0.0,0.0,0.0,0.0,0.0,0.0,0.0,0.0,0.0,0.0,0.0,0.0,0.0,0.0,0.0,0.0,0.0,0.0,0.0,0.0,0.0,0.0,0.0,0.0,0.0,0.0,0.0,0.0,0.0,0.0,0.0,0.0,0.0,0.0,0.0,0.0,0.0,0.0,0.0,0.0,0.0,0.0,0.0,0.0,0.0,0.0,0.0,0.0,0.0,0.0,0.0,0.0,0.0,0.0,0.0,0.0,0.0,0.0,0.0,0.0,0.0,0.0,0.0,0.0,0.0,0.0,0.0,0.0,0.0,0.0,0.0,0.0,0.0,0.0,0.0,0.0,0.0,0.0,0.0,0.0,0.0,0.0,0.0,0.0,0.0,0.0,0.0,0.0,0.0,0.0,0.0,0.0,0.0,0.0,0.0,0.0,0.0,0.0,0.0,0.0,0.0,0.0,0.0,0.0,0.0,0.0,0.0,0.0,0.0,0.0,0.0,0.0,0.0,0.0,0.0,0.0,0.0,0.0,0.0,0.0,0.0,0.0,0.0,0.0,0.0,0.0,0.0,0.0,0.0,0.0,0.0,0.0,0.0,0.0,0.0,0.0,0.0,0.0,0.0,0.0,0.0,0.0,0.0,0.0,0.0,0.0,0.0,0.0,0.0,0.0,0.0,0.0,0.0,0.0,0.0,0.0,0.0,0.0,0.0,0.0,0.0,0.0,0.0,0.0,0.0,0.0,0.0,0.0,0.0,0.0,0.0,0.0,0.0,0.0,0.0,0.0,0.0,0.0,0.0,0.0,0.0,0.0,0.0,0.0,0.0,0.0,0.0,0.0,0.0,0.0,0.0,0.0,0.0,0.0,0.0,0.0,0.0,0.0,0.0,0.0,0.0,0.0,0.0,0.0,0.0,0.0,0.0,0.0,0.0,0.0,0.0,0.0,0.0,0.0,0.0,0.0,0.0,0.0,0.0,0.0,0.0,0.0,0.0,0.0,0.0,0.0,0.0,0.0,0.0,0.0,0.0,0.0,0.0,0.0,0.0,0.0,0.0,0.0,0.0,0.0,0.0,0.0,0.0,0.0,0.0,0.0,0.0,0.0,0.0,0.0,0.0,0.0,0.0,0.0,0.0,0.0,0.0,0.0,0.0,0.0,0.0,0.0,0.0,0.0,0.0,0.0,0.0,0.0,0.0,0.0,0.0,0.0,0.0,0.0,0.0,0.0,0.0,0.0,0.0,0.0,0.0,0.0,0.0,0.0,0.0,0.0,0.0,0.0,0.0,0.0,0.0,0.0,0.0,0.0,0.0,0.0,0.0,0.0,0.0,0.0,0.0,0.0,0.0,0.0,0.0,0.0,0.0,0.0,0.0,0.0,0.0,0.0,0.0,0.0,0.0,0.0,0.0,0.0,0.0,0.0,0.0,0.0,0.0,0.0,0.0,0.0,0.0,0.0,0.0,0.0,0.0,0.0,0.0,0.0,0.0,0.0,0.0,0.0,0.0,0.0,0.0,0.0,0.0,0.0,0.0,0.0,0.0,0.0,0.0,0.0,0.0,0.0,0.0,0.0,0.0,0.0,0.0,0.0,0.0,0.0,0.0,0.0,0.0,0.0,0.0,0.0,0.0,0.0,0.0,0.0,0.0,0.0,0.0,0.0,0.0,0.0,0.0,0.0,0.0,0.0,0.0,0.0,0.0,0.0,0.0,0.0,0.0,0.0,0.0,0.0,0.0,0.0,0.0,0.0,0.0,0.0,0.0,0.0,0.0,0.0,0.0,0.0,0.0,0.0,0.0,0.0,0.0,0.0,0.0,0.0,0.0,0.0,0.0,0.0,0.0,0.0,0.0,0.0,0.0,0.0,0.0,0.0,0.0,0.0,0.0,0.0,0.0,0.0,0.0,0.0,0.0,0.0,0.0,0.0,0.0,0.0,0.0,0.0,0.0,0.0,0.0,0.0,0.0,0.0,0.0,0.0,0.0,0.0,0.0,0.0,0.0,0.0,0.0,0.0,0.0,0.0,0.0,0.0,0.0,0.0,0.0,0.0,0.0,0.0,0.0,0.0,0.0,0.0,0.0,0.0,0.0,0.0,0.0,0.0,0.0,0.0,0.0,0.0,0.0,0.0,0.0,0.0,0.0,0.0,0.0,0.0,0.0,0.0,0.0,0.0,0.0,0.0,0.0,0.0,0.0,0.0,0.0,0.0,0.0,0.0,0.0,0.0,0.0,0.0,0.0,0.0,0.0,0.0,0.0,0.0,0.0,0.0,0.0,0.0,0.0,0.0,0.0,0.0,0.0,0.0,0.0,0.0,0.0,0.0,0.0,0.0,0.0,0.0,0.0,0.0,0.0,0.0,0.0,0.0,0.0,0.0,0.0,0.0,0.0,0.0,0.0,0.0,0.0,0.0,0.0,0.0,0.0,0.0,0.0,0.0,0.0,0.0,0.0,0.0,0.0,0.0,0.0,0.0,0.0,0.0,0.0,0.0,0.0,0.0,0.0,0.0,0.0,0.0,0.0,0.0,0.0,0.0,0.0,0.0,0.0,0.0,0.0,0.0,0.0,0.0,0.0,0.0,0.0,0.0,0.0,0.0,0.0,0.0,0.0,0.0,0.0,0.0,0.0,0.0,0.0,0.0,0.0,0.0,0.0,0.0,0.0,0.0,0.0,0.0,0.0,0.0,0.0,0.0,0.0,0.0,0.0,0.0,0.0,0.0,0.0,0.0,0.0,0.0,0.0,0.0,0.0,0.0,0.0,0.0,0.0,0.0,0.0,0.0,0.0,0.0,0.0,0.0,0.0,0.0,0.0,0.0,0.0,0.0,0.0,0.0,0.0,0.0,0.0,0.0,0.0,0.0,0.0,0.0,0.0,0.0,0.0,0.0,0.0,0.0,0.0,0.0,0.0,0.0,0.0,0.0,0.0,0.0,0.0,0.0,0.0,0.0,0.0,0.0,0.0,0.0,0.0,0.0,0.0,0.0,0.0,0.0,0.0,0.0,0.0,0.0,0.0,0.0,0.0,0.0,0.0,0.0,0.0,0.0,0.0,0.0,0.0,0.0,0.0,0.0,0.0,0.0,0.0,0.0,0.0,0.0,0.0,0.0,0.0,0.0,0.0,0.0,0.0,0.0,0.0,0.0,0.0,0.0,0.0,0.0,0.0,0.0,0.0,0.0,0.0,0.0,0.0,0.0,0.0,0.0,0.0,0.0,0.0,0.0,0.0,0.0,0.0,0.0,0.0,0.0,0.0,0.0,0.0,0.0,0.0,0.0,0.0,0.0,0.0,0.0,0.0,0.0,0.0,0.0,0.0,0.0,0.0,0.0,0.0,0.0,0.0,0.0,0.0,0.0,0.0,0.0,0.0,0.0,0.0,0.0,0.0,0.0,0.0,0.0,0.0,0.0,0.0,0.0,0.0,0.0,0.0,0.0,0.0,0.0,0.0,0.0,0.0,0.0,0.0,0.0,0.0,0.0,0.0,0.0,0.0,0.0,0.0,0.0,0.0,0.0,0.0,0.0,0.0,0.0,0.0,0.0,0.0,0.0,0.0,0.0,0.0,0.0,0.0,0.0,0.0,0.0,0.0,0.0,0.0,0.0,0.0,0.0,0.0,0.0,0.0,0.0,0.0,0.0,0.0,0.0,0.0,0.0,0.0,0.0,0.0,0.0,0.0,0.0,0.0,0.0,0.0,0.0,0.0,0.0,0.0,0.0,0.0,0.0,0.0,0.0,0.0,0.0,0.0,0.0,0.0,0.0,0.0,0.0,0.0,0.0,0.0,0.0,0.0,0.0,0.0,0.0,0.0,0.0,0.0,0.0,0.0,0.0,0.0,0.0,0.0,0.0,0.0,0.0,0.0,0.0,0.0,0.0,0.0,0.0,0.0,0.0,0.0,0.0,0.0,0.0,0.0,0.0,0.0,0.0,0.0,0.0,0.0,0.0,0.0,0.0,0.0,0.0,0.0,0.0,0.0,0.0,0.0,0.0,0.0,0.0,0.0,0.0,0.0,0.0,0.0,0.0,0.0,0.0,0.0,0.0,0.0,0.0,0.0,0.0,0.0,0.0,0.0,0.0,0.0,0.0,0.0,0.0,0.0,0.0,0.0,0.0,0.0,0.0,0.0,0.0,0.0,0.0,0.0,0.0,0.0,0.0,0.0,0.0,0.0,0.0,0.0,0.0,0.0,0.0,0.0,0.0,0.0,0.0,0.0,0.0,0.0,0.0,0.0,0.0,0.0,0.0,0.0,0.0,0.0,0.0,0.0,0.0,0.0,0.0,0.0,0.0,0.0,0.0,0.0,0.0,0.0,0.0,0.0,0.0,0.0,0.0,0.0,0.0,0.0,0.0,0.0,0.0,0.0,0.0,0.0,0.0,0.0,0.0,0.0,0.0,0.0,0.0,0.0,0.0,0.0,0.0,0.0,0.0,0.0,0.0,0.0,0.0,0.0,0.0,0.0,0.0,0.0,0.0,0.0,0.0,0.0,0.0,0.0,0.0,0.0,0.0,0.0,0.0,0.0,0.0,0.0,0.0,0.0,0.0,0.0,0.0,0.0,0.0,0.0,0.0,0.0,0.0,0.0,0.0,0.0,0.0,0.0,0.0,0.0,0.0,0.0,0.0,0.0,0.0,0.0,0.0,0.0,0.0,0.0,0.0,0.0,0.0,0.0,0.0,0.0,0.0,0.0,0.0,0.0,0.0,0.0,0.0,0.0,0.0,0.0,0.0,0.0,0.0,0.0,0.0,0.0,0.0,0.0,0.0,0.0,0.0,0.0,0.0,0.0,0.0,0.0,0.0,0.0,0.0,0.0,0.0,0.0,0.0,0.0,0.0,0.0,0.0,0.0,0.0,0.0,0.0,0.0,0.0,0.0,0.0,0.0,0.0,0.0,0.0,0.0,0.0,0.0,0.0,0.0,0.0,0.0,0.0,0.0,0.0,0.0,0.0,0.0,0.0,0.0,0.0,0.0,0.0,0.0,0.0,0.0,0.0,0.0,0.0,0.0,0.0,0.0,0.0,0.0,0.0,0.0,0.0,0.0,0.0,0.0,0.0,0.0,0.0,0.0,0.0,0.0,0.0,0.0,0.0,0.0,0.0,0.0,0.0,0.0,0.0,0.0,0.0,0.0,0.0,0.0,0.0,0.0,0.0,0.0,0.0,0.0,0.0,0.0,0.0,0.0,0.0,0.0,0.0,0.0,0.0,0.0,0.0,0.0,0.0,0.0,0.0,0.0,0.0,0.0,0.0,0.0,0.0,0.0,0.0,0.0,0.0,0.0,0.0,0.0,0.0,0.0,0.0,0.0,0.0,0.0,0.0,0.0,0.0,0.0,0.0,0.0,0.0,0.0,0.0,0.0,0.0,0.0,0.0,0.0,0.0,0.0,0.0,0.0,0.0,0.0,0.0,0.0,0.0,0.0,0.0,0.0,0.0,0.0,0.0,0.0,0.0,0.0,0.0,0.0,0.0,0.0,0.0,0.0,0.0,0.0,0.0,0.0,0.0,0.0,0.0,0.0,0.0,0.0,0.0,0.0,0.0,0.0,0.0,0.0,0.0,0.0,0.0,0.0,0.0,0.0,0.0,0.0,0.0,0.0,0.0,0.0,0.0,0.0,0.0,0.0,0.0,0.0,0.0,0.0,0.0,0.0,0.0,0.0,0.0,0.0,0.0,0.0,0.0,0.0,0.0,0.0,0.0,0.0,0.0,0.0,0.0,0.0,0.0,0.0,0.0,0.0,0.0,0.0,0.0,0.0,0.0,0.0,0.0,0.0,0.0,0.0,0.0,0.0,0.0,0.0,0.0,0.0,0.0,0.0,0.0,0.0,0.0,0.0,0.0,0.0,0.0,0.0,0.0,0.0,0.0,0.0,0.0,0.0,0.0,6.5619,6.0156,0.0,0.0,0.0,0.0,0.0,0.0,0.0,0.0,0.0,0.0,0.0,0.0,0.0,0.0,0.0,0.0,0.0,0.0,0.0,0.0,0.0,0.0,0.0,3.9687,4.0586,4.1016,4.1836,0.0,0.0,0.0,0.0,0.0,0.0,0.0,3.9844,4.0625,4.1875,4.3594,4.6133,5.1094,5.8164,5.5898,5.2851,4.9219,0.0,0.0,0.0,0.0,0.0,0.0,0.0,0.0,0.0,0.0,0.0,0.0,0.0,0.0,0.0,0.0,0.0,0.0,0.0,0.0,0.0,0.0,0.0,0.0,0.0,0.0,0.0,0.0,0.0,0.0,0.0,0.0,0.0,0.0,0.0,0.0,0.0,0.0,0.0,0.0,0.0,0.0,0.0,0.0,0.0,0.0,0.0,0.0,0.0,0.0,0.0,0.0,0.0,0.0,0.0,0.0,0.0,0.0,0.0,0.0,0.0,0.0,0.0,0.0,0.0,0.0,0.0,0.0,0.0,0.0,7.1377,6.7578,0.0,0.0,0.0,0.0,0.0,0.0,0.0,0.0,0.0,0.0,0.0,0.0,0.0,0.0,0.0,0.0,0.0,0.0,0.0,0.0,0.0,3.8398,4.0156,4.1836,4.3281,4.4297,4.4883,4.4922,4.4219,4.3359,0.0,0.0,0.0,0.0,4.1875,4.3516,4.5898,4.8945,5.4023,6.0234,6.7422,6.875,6.5781,5.914,5.4805,0.0,0.0,0.0,0.0,0.0,0.0,0.0,0.0,0.0,0.0,0.0,0.0,0.0,0.0,0.0,0.0,0.0,0.0,0.0,0.0,0.0,0.0,0.0,0.0,0.0,0.0,0.0,0.0,0.0,0.0,0.0,0.0,0.0,0.0,0.0,0.0,0.0,0.0,0.0,0.0,0.0,0.0,0.0,0.0,0.0,0.0,0.0,0.0,0.0,0.0,0.0,0.0,0.0,0.0,0.0,0.0,0.0,0.0,0.0,0.0,0.0,0.0,0.0,7.8237,8.0094,8.1835,8.1679,8.3291,8.5796,7.7927,7.6758,7.9765,7.164,0.0,0.0,0.0,0.0,0.0,0.0,0.0,0.0,0.0,0.0,0.0,0.0,0.0,0.0,0.0,0.0,0.0,0.0,0.0,4.0195,4.1875,4.3633,4.5312,4.6953,4.6484,4.6094,4.5976,4.5156,0.0,0.0,0.0,4.3828,4.4492,4.6211,4.9453,5.4297,6.5976,7.2695,7.4609,7.7695,7.7812,7.5078,6.7109,6.2187,5.9531,0.0,0.0,0.0,0.0,0.0,0.0,0.0,0.0,0.0,0.0,0.0,0.0,0.0,0.0,0.0,0.0,0.0,0.0,0.0,0.0,0.0,0.0,0.0,0.0,0.0,0.0,0.0,0.0,0.0,0.0,0.0,0.0,0.0,0.0,0.0,0.0,0.0,0.0,0.0,0.0,0.0,6.4243,6.5913,0.0,0.0,0.0,0.0,0.0,0.0,0.0,0.0,0.0,0.0,0.0,0.0,0.0,7.5211,7.6952,8.1952,8.5036,8.6238,8.8872,9.0779,9.1942,9.12,9.1513,9.2567,9.0585,0.0,8.2851,8.0117,0.0,0.0,0.0,0.0,0.0,0.0,0.0,0.0,0.0,0.0,0.0,0.0,0.0,0.0,0.0,0.0,0.0,0.0,0.0,0.0,0.0,4.8906,5.168,5.3906,5.4648,5.3945,5.1523,4.9609,0.0,0.0,4.5625,4.6055,4.6445,5.1484,5.832,6.6875,7.5469,8.0351,8.1719,8.3711,8.3984,8.2656,7.8359,7.2578,6.5859,6.2109,0.0,0.0,0.0,0.0,0.0,0.0,0.0,0.0,0.0,0.0,0.0,0.0,0.0,0.0,0.0,0.0,0.0,0.0,0.0,0.0,0.0,0.0,0.0,0.0,0.0,0.0,0.0,0.0,0.0,0.0,0.0,0.0,0.0,0.0,0.0,0.0,0.0,0.0,0.0,6.3294,6.6323,6.8915,6.6326,6.359,0.0,0.0,0.0,0.0,0.0,0.0,0.0,0.0,0.0,7.8545,7.9812,8.1555,8.386,8.7648,9.0101,9.1216,9.3872,9.5703,9.6758,9.6367,9.6406,9.6758,9.6367,9.3867,8.9804,8.5625,8.1562,7.7656,0.0,0.0,0.0,0.0,7.3681,7.4821,0.0,0.0,0.0,0.0,0.0,0.0,0.0,0.0,0.0,0.0,0.0,0.0,5.0078,5.4375,5.8008,6.0625,6.1992,6.1055,5.7187,5.4492,5.1641,4.8398,4.8476,4.8984,4.9883,5.8594,6.7851,7.7539,8.2929,8.6367,8.7851,8.8945,8.9023,8.8125,8.7265,8.1758,7.289,6.9375,6.5195,6.0547,0.0,0.0,0.0,0.0,0.0,0.0,0.0,0.0,0.0,0.0,0.0,0.0,0.0,0.0,0.0,0.0,0.0,0.0,0.0,0.0,0.0,0.0,0.0,0.0,0.0,0.0,0.0,0.0,0.0,0.0,0.0,0.0,0.0,0.0,0.0,0.0,0.0,6.7042,7.0107,7.2869,7.1712,6.9452,0.0,0.0,0.0,0.0,0.0,0.0,7.6967,7.8513,8.0975,8.4609,8.5748,8.7461,9.0014,9.239,9.4121,9.5233,9.7143,9.8398,9.8984,9.8984,9.8867,9.8672,9.8672,9.7461,9.5156,9.0469,8.6953,8.4297,8.1328,7.9453,7.8633,7.957,8.0273,8.1289,0.0,0.0,0.0,0.0,0.0,0.0,0.0,0.0,0.0,0.0,0.0,5.0195,5.4492,5.8828,6.2422,6.5039,6.5351,6.4258,6.1562,5.8984,5.6406,5.3711,5.207,5.2773,5.6094,6.7773,7.6484,8.1992,8.7969,9.1367,9.2304,9.4023,9.4336,9.3476,9.2617,8.875,8.25,7.664,7.3476,7.168,6.2578,0.0,0.0,0.0,0.0,0.0,0.0,0.0,0.0,0.0,0.0,0.0,0.0,0.0,0.0,0.0,0.0,0.0,0.0,0.0,0.0,0.0,0.0,0.0,0.0,0.0,0.0,0.0,0.0,0.0,0.0,0.0,0.0,0.0,0.0,0.0,0.0,0.0,0.0,7.921,7.9991,0.0,0.0,0.0,0.0,7.6651,7.841,8.063,8.3316,8.4314,8.6457,9.0098,9.186,9.3551,9.5309,9.7105,9.8512,9.9566,9.9726,9.9492,9.8984,9.8984,9.8554,9.7773,9.7773,9.7265,9.6367,9.5195,9.1797,8.7109,8.5273,8.3554,8.2265,8.3945,8.5625,8.7304,0.0,0.0,0.0,3.6016,3.6445,3.6953,3.7266,3.9414,4.1562,4.3047,4.8945,5.4648,5.8945,6.4765,6.9844,7.3594,7.3398,7.1953,6.9336,6.414,6.0508,5.9023,5.7344,6.0898,7.0469,7.707,8.3203,8.8945,9.2226,9.3984,9.4297,9.4922,9.5039,9.4687,9.3828,9.2226,8.9883,8.4375,7.9648,7.543,7.0937,6.5078,0.0,0.0,0.0,0.0,0.0,0.0,0.0,0.0,0.0,0.0,0.0,0.0,0.0,0.0,0.0,0.0,0.0,0.0,0.0,0.0,0.0,0.0,0.0,0.0,0.0,0.0,0.0,0.0,0.0,0.0,0.0,0.0,0.0,0.0,0.0,0.0,0.0,8.2127,8.3457,0.0,8.0754,8.1523,8.2221,8.2395,8.4998,8.7295,8.8948,8.9895,9.1262,9.3224,9.3923,9.4609,9.5351,9.6562,9.7851,9.9336,10.0508,10.1484,10.2304,10.1797,10.1289,10.1015,10.0508,9.9414,9.8125,9.8398,9.6094,9.2383,9.1758,9.1133,9.0664,9.1289,9.1914,9.2539,0.0,0.0,0.0,3.6406,3.6914,3.75,3.8086,4.082,4.3789,4.6406,5.2734,5.9101,6.457,7.0586,7.5586,7.9023,7.9336,7.789,7.4414,6.9336,6.5586,6.3555,6.4062,6.9219,7.957,8.3711,8.8281,9.3476,9.5195,9.6172,9.6484,9.6797,9.6914,9.6875,9.6015,9.5469,9.4922,9.0937,8.625,8.1211,7.7734,7.2187,6.5625,0.0,0.0,0.0,0.0,0.0,0.0,0.0,0.0,0.0,0.0,0.0,0.0,0.0,0.0,0.0,0.0,0.0,0.0,0.0,0.0,0.0,0.0,0.0,0.0,0.0,0.0,0.0,0.0,0.0,0.0,0.0,0.0,0.0,0.0,0.0,8.3824,8.4394,8.7017,8.7699,8.4854,8.6463,8.7763,8.7914,9.0014,9.1766,9.2837,9.3435,9.4258,9.5351,9.5625,9.6133,9.6914,9.8086,9.9375,10.0781,10.2187,10.3398,10.4219,10.3281,10.2695,10.2383,10.1484,10.0508,9.9453,9.9726,9.8515,9.6445,9.6172,9.6054,9.6015,9.5742,9.582,9.6054,0.0,0.0,3.6328,3.7187,3.7344,3.7969,3.9648,4.2109,4.5937,5.1914,5.7305,6.3476,7.1211,7.5976,7.9297,8.0976,8.2656,8.1484,7.6445,7.4375,7.1484,6.7344,7.2187,7.7383,8.25,8.7617,9.1875,9.5312,9.6953,9.8203,9.9062,9.9883,10.0312,10.0312,9.9414,9.8554,9.7656,9.6015,9.3359,8.9687,8.2773,7.8945,7.6406,0.0,0.0,0.0,0.0,0.0,0.0,0.0,0.0,0.0,0.0,0.0,0.0,0.0,0.0,0.0,0.0,0.0,0.0,0.0,0.0,0.0,0.0,0.0,0.0,0.0,0.0,0.0,0.0,0.0,0.0,0.0,0.0,0.0,8.0251,8.3696,8.6348,8.6392,9.1029,9.2945,8.9568,9.1751,9.3323,9.3312,9.3289,9.375,9.4844,9.4922,9.5469,9.6562,9.7383,9.8594,10.0312,10.1992,10.3281,10.4297,10.5117,10.5117,10.4414,10.3515,10.2617,10.1719,10.0781,10.039,10.0312,9.9453,9.9101,9.8984,9.8047,9.7695,9.7617,9.6875,9.7109,9.7773,3.6836,3.6953,3.7226,3.8086,3.8789,3.9336,3.9844,4.3125,4.7305,5.207,5.9414,6.6406,7.2305,7.793,8.1953,8.3672,8.4258,8.3398,8.0703,7.6601,7.3984,7.3437,8.0195,8.5781,8.9687,9.3008,9.5781,9.7969,9.9062,9.9726,9.9961,10.0195,10.0312,10.0312,10.0,9.9804,9.9492,9.8437,9.7383,9.5976,8.9687,8.4258,7.957,0.0,0.0,0.0,0.0,0.0,0.0,0.0,0.0,0.0,0.0,0.0,0.0,0.0,0.0,0.0,0.0,0.0,0.0,0.0,0.0,0.0,0.0,0.0,0.0,0.0,0.0,0.0,0.0,0.0,0.0,0.0,0.0,8.6137,8.5651,8.9258,9.2179,9.2947,9.5481,9.6521,9.4964,9.5515,9.5788,9.5329,9.5298,9.5781,9.6836,9.75,9.8281,9.9219,9.9453,10.0117,10.1211,10.1719,10.3281,10.6015,10.6289,10.7187,10.8789,10.789,10.6719,10.5312,10.4414,10.3398,10.2187,10.1914,10.1484,10.0703,9.8515,9.7695,9.7734,9.8164,9.8867,9.9609,3.7187,3.7578,3.8125,3.8984,3.957,4.0156,4.0859,4.3984,4.8633,5.5078,6.1562,6.8398,7.5742,8.0312,8.3672,8.582,8.5976,8.4765,8.1953,7.8281,7.789,8.164,8.6836,9.125,9.4648,9.6953,9.8554,9.9531,10.039,10.0781,10.0898,10.1211,10.1406,10.1406,10.1015,10.1015,10.1289,10.0117,9.9531,9.9179,9.4922,9.0273,8.5508,8.2383,7.9062,7.582,7.3555,7.2187,7.1172,6.957,0.0,0.0,0.0,0.0,0.0,0.0,0.0,0.0,0.0,0.0,0.0,0.0,0.0,0.0,0.0,0.0,0.0,0.0,0.0,0.0,0.0,0.0,0.0,0.0,8.7786,9.1283,9.2213,9.3749,9.529,9.6632,9.7476,9.7738,9.7224,9.6953,9.6797,9.6758,9.6758,9.7344,9.8711,9.9258,9.9922,10.0781,10.0781,10.1601,10.3203,10.3594,10.5117,10.7812,10.7812,10.8593,11.0,10.8789,10.75,10.6211,10.5312,10.4219,10.289,10.25,10.2109,10.1406,0.0,0.0,0.0,0.0,9.9648,9.9804,3.7461,3.8164,3.9023,3.9883,4.0039,4.0586,4.2148,4.4609,4.9687,5.914,6.3515,6.9648,7.9883,8.2656,8.4765,8.7265,8.7578,8.5976,8.1992,8.0703,8.3125,9.0,9.2226,9.4804,9.7929,9.9609,10.039,10.039,10.1289,10.1719,10.1797,10.25,10.289,10.289,10.2109,10.2187,10.2812,10.1211,10.0586,10.039,9.8594,9.5859,9.2383,8.7578,8.5234,8.3945,8.0039,7.8086,7.6992,7.457,0.0,0.0,0.0,0.0,0.0,0.0,0.0,0.0,0.0,0.0,0.0,0.0,0.0,0.0,0.0,0.0,0.0,0.0,0.0,0.0,0.0,0.0,0.0,0.0,9.2896,9.644,9.8286,9.7129,9.6669,9.8194,9.8086,9.7812,9.7617,9.7265,9.7344,9.7969,9.8086,9.8828,10.039,10.0586,0.0,0.0,0.0,10.3086,10.5508,10.6093,10.7304,10.9218,10.9101,10.9101,10.9218,10.7617,10.6406,10.5508,10.4687,10.3789,10.2812,10.2109,10.1719,10.1601,10.1484,10.1015,10.039,10.039,10.0,9.9531,3.8359,3.9062,3.9922,4.0781,4.0937,4.1289,4.2266,4.4609,4.9687,5.914,6.4062,7.0312,7.9961,8.3164,8.5429,8.7344,8.8086,8.7812,8.6328,8.8515,9.0547,9.2031,9.5742,9.8398,9.9765,10.0781,10.1289,10.1289,10.2187,10.2617,10.2695,10.2812,10.289,10.289,10.2695,10.2695,10.289,10.25,10.2383,10.2187,9.9726,9.7109,9.4414,9.2031,9.0586,8.9609,8.8086,8.6953,8.6054,8.4883,8.2539,7.9687,7.7422,7.4375,0.0,0.0,0.0,0.0,0.0,0.0,0.0,0.0,0.0,0.0,0.0,0.0,0.0,0.0,0.0,0.0,0.0,0.0,0.0,9.0102,9.4702,9.7941,9.7672,9.8055,9.8475,9.8819,10.0,10.0195,9.8828,9.9844,10.039,9.9844,10.039,10.1015,10.1289,10.2695,10.3515,10.3711,10.3711,10.4297,10.5508,10.5,10.5898,10.8203,10.75,0.0,10.9297,10.8203,10.6914,10.5508,10.5312,10.4414,10.289,10.2695,10.2187,10.1484,10.0781,10.0898,10.1289,10.1289,10.1719,10.2187,3.9258,3.9961,4.0703,4.1133,4.1211,4.1601,4.2851,4.4883,4.9531,5.8594,6.3164,6.8867,7.75,8.0,8.1719,8.3437,8.4765,8.625,8.8008,9.0937,9.375,9.6328,9.8906,10.0703,10.1601,10.1992,10.2304,10.2304,10.2695,10.289,10.289,10.289,10.289,10.289,10.289,10.289,10.289,10.289,10.289,10.2695,10.0508,9.8906,9.7461,9.4883,9.3633,9.3086,9.1758,9.1289,9.1054,8.9336,8.789,8.6523,8.4804,8.1875,7.8086,0.0,0.0,0.0,0.0,0.0,0.0,0.0,0.0,0.0,0.0,0.0,0.0,0.0,0.0,8.2699,0.0,0.0,9.2171,9.4332,9.6975,9.8902,9.9402,9.9591,9.9644,9.9646,10.0,10.0312,10.0312,10.0703,10.0898,10.1015,10.1406,10.1797,10.2187,10.3086,10.3515,10.3515,10.3515,10.4219,10.5508,10.5117,10.5898,10.8008,10.7109,10.7187,10.8008,10.7109,10.6093,10.4804,10.4804,10.4101,10.289,10.289,10.2617,10.2187,10.1797,10.1289,10.0898,10.0898,10.1211,10.1601,3.9883,4.0586,4.125,4.1406,4.1445,4.1992,4.3672,4.543,4.9531,5.7851,6.1797,6.668,7.4297,7.5937,7.7187,7.9062,8.1719,8.4844,8.8476,9.2109,9.5937,10.0117,10.1289,10.2187,10.289,10.289,10.289,10.289,10.289,10.289,10.289,10.289,10.289,10.289,10.289,10.289,10.289,10.289,10.2812,10.25,10.0898,10.0195,9.9726,9.6797,9.5586,9.5234,9.3672,9.3554,9.3828,9.1719,9.1484,9.1914,9.1015,8.8867,8.5586,8.0273,7.8711,0.0,0.0,0.0,0.0,0.0,0.0,0.0,0.0,7.8477,7.9257,8.3742,8.5992,8.7991,9.0752,9.3064,9.5502,9.8297,9.8902,9.9482,10.0906,10.0814,10.0586,10.0781,10.0312,10.0508,10.1719,10.1406,10.1289,10.2109,10.1914,10.2187,10.289,10.3086,10.3203,10.3203,10.3203,10.3789,10.5195,10.5117,10.5781,10.7304,10.6406,10.6093,10.6211,10.539,10.4609,10.3906,10.3906,10.3515,10.289,10.289,10.289,10.289,10.289,10.1992,10.0781,10.0781,10.0781,10.0781,3.9883,4.0586,4.1445,4.2148,4.2266,4.2851,4.4609,4.6328,5.0,5.7109,6.0351,6.4648,7.168,7.3203,7.4765,7.7265,8.3281,8.7422,8.8633,9.5429,9.9687,10.0312,10.1914,10.2812,10.289,10.289,10.289,10.289,10.289,10.289,10.289,10.289,10.289,10.289,10.289,10.289,10.289,10.289,10.25,10.1719,10.0703,9.9844,9.9023,9.7851,9.6992,9.6211,9.5273,9.4961,9.5,9.4726,9.4687,9.4609,9.375,9.3203,9.1719,8.5781,8.4023,8.25,7.5508,7.5153,7.7257,7.9408,8.0493,8.2941,0.0,8.9451,8.867,9.3787,9.558,9.6593,9.7732,9.8164,9.8514,9.8891,9.9629,9.9941,9.9356,10.0504,10.1719,10.25,10.3203,10.3398,10.2812,10.3398,10.3789,10.3906,10.3203,10.2812,10.289,10.3594,10.4101,10.4101,10.4101,10.4101,10.4297,10.3594,10.3711,10.4609,10.3711,10.3711,10.4492,10.3594,10.3086,10.3008,10.3008,10.3008,10.289,10.289,10.289,10.289,10.289,10.2812,10.2617,10.2617,10.2617,10.2617,4.0664,4.1328,4.2148,4.3008,4.2734,4.3008,4.4726,4.6484,4.9336,5.4258,5.7578,6.1133,6.5547,6.7226,6.8906,7.1015,7.7969,8.3476,8.6289,9.4219,9.9258,10.0312,10.1992,10.289,10.289,10.289,10.289,10.289,10.289,10.289,10.289,10.289,10.289,10.289,10.289,10.2617,10.2109,10.2109,10.1601,10.0781,9.9883,9.9336,9.8906,9.8047,9.75,9.6953,9.5117,9.4453,0.0,9.3867,9.3672,9.3789,9.4453,9.3594,9.1679,8.8164,8.7096,8.6942,8.608,8.4375,8.359,8.687,8.7575,8.8462,9.2262,9.2031,9.2304,9.6992,9.7812,9.7969,9.8828,9.8984,9.9179,9.9687,10.0117,10.0508,10.1211,10.1914,10.25,10.289,10.4101,10.4609,10.3711,10.3984,10.3984,10.3515,10.3086,10.289,10.289,10.3203,10.3398,10.3398,10.3398,10.3398,10.3398,10.3086,10.3086,10.3398,10.3086,10.3086,10.3398,10.3086,10.289,10.289,10.289,10.289,10.289,10.289,10.289,10.289,10.289,10.289,10.289,10.289,10.289,10.289,4.1484,4.1992,4.2734,4.3867,4.3555,4.3633,4.5117,4.6836,4.9023,5.1953,5.4961,5.7812,6.0351,6.2187,6.4023,6.6015,7.3086,7.9336,8.3906,9.1992,9.7656,9.9844,10.1601,10.2695,10.289,10.289,10.289,10.289,10.289,10.289,10.289,10.289,10.289,10.289,10.2617,10.2187,10.1601,10.1289,10.0703,9.9883,9.9258,9.8867,9.8554,9.7929,9.7109,9.6054,9.4219,9.3554,9.332,9.1992,9.1679,9.2109,9.3359,9.2617,9.1013,8.9501,8.8652,8.8847,9.1652,9.033,8.8945,9.2148,9.3203,9.3633,9.4531,9.4726,9.5625,9.8711,9.8867,9.8672,9.957,9.9531,9.9648,10.0508,10.0703,10.1211,10.2695,10.289,10.3086,10.3594,10.4492,10.4883,10.4297,10.4219,10.3906,10.3281,10.3008,10.289,10.289,10.289,10.289,10.289,10.289,10.289,10.289,10.289,10.289,10.289,10.289,10.289,10.289,10.289,10.3008,10.3281,10.3281,10.3398,10.3594,10.3594,10.3594,10.3594,10.3594,10.3594,10.3594,10.3594,10.3281,10.289,4.2226,4.2383,4.293,4.4648,4.4922,4.5234,4.6133,4.7734,4.9492,5.1211,5.3008,5.5117,5.7734,5.9492,6.1562,6.414,7.0703,7.6914,8.2031,8.9687,9.5508,9.8906,10.0703,10.1992,10.289,10.289,10.289,10.289,10.289,10.289,10.289,10.289,10.289,10.289,10.1992,10.1601,10.1484,10.0703,9.9844,9.9023,9.9023,9.8476,9.7734,9.7695,9.5625,9.2734,9.2656,9.2656,9.2265,8.9687,8.9375,9.0078,9.0156,9.0664,9.1111,9.0234,8.8628,8.7352,8.8282,8.9683,9.1367,9.3359,9.6328,9.8984,9.9883,10.0117,10.0117,10.0195,10.0195,10.0508,10.1406,10.0781,10.0508,10.1406,10.1601,10.1914,10.2812,10.289,10.3515,10.5195,10.4687,10.4219,10.4219,10.4219,10.4219,10.4219,10.3398,10.289,10.289,10.289,10.289,10.289,10.289,10.289,10.289,10.289,10.289,10.289,10.289,10.289,10.289,10.289,10.3398,10.4219,10.4219,10.4609,10.539,10.539,10.539,10.539,10.539,10.539,10.539,10.539,10.4414,10.289,4.2226,4.2851,4.3633,4.4805,4.5469,4.6172,4.7031,4.8164,4.9101,4.9687,5.1719,0.0,0.0,0.0,0.0,0.0,6.8359,7.3984,7.8594,8.6719,9.2617,9.5508,9.9453,10.1719,10.1992,10.2617,10.2617,10.1992,10.1992,10.1719,10.1211,10.1211,10.1211,10.1211,10.0898,10.039,9.9844,9.957,9.8945,9.8125,9.8125,9.7969,9.7578,9.6445,9.4258,9.1289,0.0,8.664,8.6562,8.6289,8.6367,8.6992,8.9297,8.9453,8.8707,8.8443,8.9399,9.0894,9.2492,9.3606,9.4985,9.7527,9.9023,9.9922,10.0195,10.0312,10.0508,10.1015,10.0195,9.9883,10.1289,10.039,9.9922,10.1406,10.2109,10.2617,10.289,10.3906,10.4414,10.3789,10.3984,10.3984,10.3398,10.3906,10.3984,10.3398,10.3086,10.289,10.289,10.289,10.289,10.289,10.289,10.3203,10.3789,10.3789,10.4101,10.4609,10.4609,10.4609,10.4609,10.4609,10.4804,10.5117,10.5117,10.5195,10.5508,10.5508,10.5508,10.5508,10.5508,10.5508,10.5508,10.5508,10.5117,10.4609,4.2773,4.3555,4.4453,4.5312,4.5937,0.0,0.0,0.0,0.0,0.0,0.0,0.0,0.0,0.0,0.0,0.0,0.0,7.1172,7.5508,8.2148,8.7617,9.1445,9.4804,9.6992,9.789,9.8476,9.8789,9.8867,9.9453,9.9804,9.9844,10.0195,10.0312,10.0312,9.9961,9.9531,9.8984,9.8672,9.8398,9.8047,9.6836,9.6328,9.6054,9.3437,9.0429,0.0,8.3164,8.1172,8.0547,8.1758,8.2734,8.3984,8.6836,8.8047,8.8515,8.9023,9.088,9.3294,9.5779,9.6718,9.7716,10.0518,10.1484,10.1797,10.2109,10.2187,10.2304,10.289,10.1406,10.039,10.1797,10.0586,9.9922,10.1406,10.2304,10.3008,10.3281,10.4101,10.4297,10.3515,10.3594,10.3515,10.3008,10.3398,10.3515,10.289,10.289,10.289,10.289,10.289,10.289,10.289,10.3203,10.3594,10.4219,10.4492,10.4883,10.5508,10.5508,10.5508,10.5508,10.5508,10.5703,10.5898,10.5898,10.6093,10.6406,10.6406,10.6406,10.6406,10.6406,10.6406,10.6406,10.6406,10.6406,10.6289,4.375,4.4414,4.5273,0.0,0.0,0.0,0.0,0.0,0.0,0.0,0.0,0.0,0.0,0.0,0.0,0.0,0.0,0.0,7.2695,7.6328,8.0937,8.6797,8.7265,8.8515,9.0976,9.1094,9.1914,9.3554,9.5234,9.6836,9.8437,9.9297,9.9726,9.9687,9.8906,9.8554,9.8476,9.7656,9.7734,9.8125,9.4883,9.3515,9.3008,8.8828,8.4609,8.0664,7.8984,7.6719,7.4805,7.664,7.9062,8.164,8.3437,8.6836,9.0469,9.1914,9.3125,9.466,9.796,9.894,9.963,10.2392,10.3711,10.4492,10.5312,10.5508,10.5508,10.5312,10.3281,10.1797,10.2617,10.1406,10.0586,10.1484,10.2383,10.3281,10.3984,10.3515,10.3281,0.0,0.0,0.0,0.0,0.0,10.289,10.289,10.289,10.289,10.289,10.289,10.3008,10.3008,10.3789,10.4297,10.4297,10.5195,10.5586,10.5586,10.5586,10.5586,10.5586,10.5586,10.6015,10.6797,10.6797,10.7187,10.8008,10.8008,10.8008,10.8008,10.8008,10.8008,10.8008,10.8008,10.8008,10.7812,0.0,0.0,0.0,0.0,0.0,0.0,0.0,0.0,0.0,0.0,0.0,0.0,0.0,0.0,0.0,0.0,0.0,0.0,6.832,7.2969,7.7148,8.0625,8.3867,8.6172,8.7461,8.8125,8.8672,8.914,8.957,9.0,9.0469,9.1289,9.164,9.1679,9.2109,9.2304,9.2265,9.207,9.1367,9.0351,8.9492,8.8359,8.6914,8.4531,8.1758,7.8906,7.7187,7.5312,7.4101,7.7148,8.1601,8.625,8.8594,9.0976,9.3125,9.414,9.6406,9.8904,10.0415,10.1796,10.3116,10.449,10.5,10.5195,10.539,10.5508,10.4883,10.3008,10.2109,10.1289,10.0195,10.0703,10.1289,10.1601,10.3398,10.4492,10.3398,10.3594,0.0,10.3281,0.0,10.289,10.289,10.289,10.289,10.289,10.289,10.289,10.289,10.3515,10.3906,10.3906,10.4687,10.5508,10.6093,10.6914,10.7383,10.7383,10.7383,10.7383,10.7383,10.7383,10.75,10.7695,10.7695,10.7812,10.8008,10.8008,10.8008,10.8008,10.8008,10.8008,10.8008,10.8008,10.8008,10.789,0.0,0.0,0.0,0.0,0.0,0.0,0.0,0.0,0.0,0.0,0.0,0.0,0.0,0.0,0.0,0.0,0.0,0.0,0.0,6.9414,7.2539,7.5508,7.7969,7.9844,8.1094,8.1953,8.2969,8.4062,8.4453,8.5234,8.6367,8.6836,8.7031,8.7031,8.7539,8.7539,8.7226,8.7617,8.7226,0.0,0.0,8.4062,8.289,8.0,7.7812,7.6055,7.4687,7.5508,7.7773,8.1289,8.5429,8.9609,9.2187,9.3945,9.5351,9.6953,9.9062,10.1094,10.2383,10.3984,10.539,10.5898,10.6289,10.6406,10.5703,10.5508,10.4883,10.2617,10.1601,10.0703,9.9765,10.0703,10.1484,10.1094,10.3203,10.4492,10.3086,10.3281,10.3398,0.0,10.289,0.0,10.289,10.289,10.3086,10.3398,10.3515,10.3515,10.3515,10.4297,10.4804,10.4804,10.5586,10.6406,10.7304,10.7812,10.8008,10.8008,10.8008,10.8008,10.8008,10.8008,10.8008,10.8008,10.8008,10.8008,10.8008,10.8008,10.8008,10.8008,10.8008,10.8008,10.8008,10.8008,10.8008,10.8008,0.0,0.0,0.0,0.0,0.0,0.0,0.0,0.0,0.0,5.207,5.168,5.1719,0.0,0.0,0.0,0.0,0.0,0.0,0.0,0.0,6.7851,7.1172,7.1445,7.2265,7.3867,7.4648,7.6172,7.8515,7.9258,8.0859,8.3203,8.3437,8.3515,8.3554,8.3633,8.3281,8.2617,8.3242,8.3398,8.3008,8.0703,7.9726,7.9219,0.0,7.3672,7.3047,7.2539,7.6562,8.2695,8.6289,8.9414,9.2265,9.4883,9.6289,9.7461,9.9922,10.1289,10.2304,10.4101,10.5586,10.6719,10.6797,10.7383,10.7617,10.5898,10.5508,10.4883,10.2812,10.1289,10.0195,10.0,10.0898,10.1406,10.0586,10.2695,10.3984,10.3008,10.3008,10.3008,10.289,10.289,10.289,10.289,10.3008,10.3398,10.4101,10.4414,10.4492,10.4414,10.5195,10.5703,10.5781,10.6484,10.7187,10.8008,10.8008,10.8008,10.8008,10.8008,10.8008,10.8008,10.8008,10.8008,10.8008,10.8008,10.8008,10.8008,10.8008,10.8008,10.8008,10.8008,10.8008,10.8008,10.8086,10.8203,10.8203,0.0,0.0,0.0,0.0,0.0,0.0,0.0,0.0,0.0,0.0,5.3203,5.1719,0.0,0.0,0.0,0.0,0.0,0.0,0.0,0.0,0.0,6.7656,6.8476,6.9297,7.0273,7.0469,7.1094,7.2265,7.2422,7.3086,7.4258,7.5703,7.6406,7.6406,7.7148,7.7383,7.7187,7.664,7.5547,7.4219,7.375,7.3125,7.2422,7.164,0.0,0.0,7.3672,7.7187,8.1875,8.6094,9.0625,9.4961,9.7539,9.8945,10.0,10.1914,10.3086,10.4101,10.5781,10.6484,10.6914,10.7617,10.789,10.7617,10.5898,10.5508,10.4414,10.0508,10.0,9.9844,9.8437,10.0,10.1601,10.1406,10.3594,10.4687,10.3086,10.3515,10.3711,10.3008,10.289,10.289,10.289,10.3594,10.3984,10.4219,10.5508,10.6015,10.5312,10.6015,10.6797,10.75,10.7695,10.7812,10.8008,10.8008,10.8008,10.8008,10.8008,10.8008,10.8008,10.8008,10.8008,10.8008,10.8008,10.8008,10.8008,10.8008,10.8008,10.8008,10.8008,10.8008,10.8086,10.8789,10.9101,10.9218,0.0,0.0,0.0,0.0,0.0,0.0,0.0,5.4414,5.5625,5.8242,5.7109,5.5742,5.4844,5.4687,5.5195,0.0,0.0,0.0,0.0,0.0,0.0,6.5469,6.6836,6.7695,6.8086,6.8555,6.8984,6.9414,0.0,6.918,7.0039,7.039,7.0586,7.0625,7.1484,7.164,7.125,7.1719,7.1172,7.0078,7.0508,7.0703,7.0703,7.0703,0.0,0.0,7.4492,7.8047,8.2148,8.5156,9.0195,9.5703,9.8711,9.9961,10.0703,10.289,10.4219,10.5117,10.6406,10.6992,10.75,10.789,10.8008,10.7304,10.4687,10.4101,10.3008,9.914,9.8672,9.8672,9.7851,9.9844,10.1601,10.1601,10.3789,10.5,10.3789,10.3906,10.3906,10.3008,10.3281,10.3594,10.3594,10.4414,10.5117,10.5508,10.6211,10.6484,10.6093,10.6914,10.7617,10.8008,10.8008,10.8008,10.8008,10.8008,10.8008,10.8008,10.8008,10.8008,10.8008,10.8008,10.8008,10.8008,10.8008,10.8008,10.8008,10.8008,10.8008,10.8008,10.8008,10.8281,10.8711,10.9101,10.9609,11.0,0.0,0.0,0.0,0.0,0.0,0.0,5.582,5.664,5.789,6.1328,6.1953,6.1094,5.8515,5.6992,5.625,0.0,0.0,0.0,0.0,0.0,0.0,0.0,0.0,0.0,6.6328,0.0,0.0,6.7344,6.668,0.0,0.0,0.0,0.0,0.0,6.7344,6.7383,6.6953,6.8125,6.832,0.0,0.0,6.9531,7.0469,0.0,0.0,0.0,0.0,7.789,8.1328,8.3984,8.8633,9.3984,9.7969,9.957,10.0508,10.3203,10.4492,10.5508,10.6719,10.75,10.8008,10.8008,10.8008,10.7109,10.3711,10.289,10.1914,9.8437,9.7851,9.7969,9.7969,9.9804,10.1406,10.1601,10.3594,10.4883,10.3984,10.4219,10.4101,10.3008,10.3711,10.4219,10.4219,10.5117,10.6015,10.6719,10.6914,10.6992,10.6992,10.7617,10.8008,10.8008,10.8008,10.8008,10.8008,10.8008,10.8008,10.8008,10.8008,10.8008,10.8008,10.8008,10.8008,10.8008,10.8008,10.8008,10.8008,10.8203,10.8281,10.8281,10.8515,10.8984,10.9609,10.9804,11.0312,11.0898,0.0,0.0,0.0,0.0,0.0,0.0,5.582,5.918,6.2344,6.5859,6.6992,6.6484,6.3867,6.0742,5.8242,0.0,0.0,0.0,0.0,0.0,0.0,0.0,0.0,0.0,0.0,0.0,0.0,6.4648,6.457,0.0,0.0,0.0,0.0,0.0,0.0,6.6211,6.6875,6.6211,0.0,0.0,0.0,0.0,0.0,0.0,0.0,0.0,0.0,7.5469,7.7344,8.3008,8.5859,8.8047,9.3828,9.7265,9.9648,10.2304,10.3594,10.4804,10.7187,10.789,10.8008,10.8008,10.8008,10.7109,10.3711,10.289,10.1914,9.8437,9.832,9.8867,9.8867,9.9726,10.0703,10.1484,10.3086,10.3984,10.3086,10.4414,10.4804,10.3086,10.3711,10.4219,10.4219,10.5586,10.6601,10.6719,10.7383,10.789,10.789,10.8008,10.8008,10.8008,10.8008,10.8008,10.8008,10.8008,10.8008,10.8008,10.8008,10.8008,10.8008,10.8008,10.8008,10.8008,10.8008,10.8008,10.8086,10.8906,10.9218,10.9297,11.0117,11.039,11.0586,11.1406,11.1718,11.1914,0.0,0.0,0.0,0.0,0.0,0.0,5.8633,6.039,6.3125,6.918,6.9805,6.8906,6.6875,6.4023,6.0742,5.6914,0.0,0.0,0.0,0.0,0.0,0.0,0.0,0.0,0.0,0.0,6.4023,6.3515,6.4023,0.0,0.0,0.0,0.0,0.0,0.0,6.4219,6.4609,6.5312,0.0,0.0,0.0,0.0,0.0,0.0,0.0,0.0,0.0,0.0,7.7187,8.0625,8.4101,8.7304,8.9179,9.2969,9.7539,10.1719,10.3086,10.4101,10.7187,10.8008,10.8008,10.8008,10.7187,10.5898,10.3398,10.2109,10.0586,9.8203,9.7969,9.8203,9.8203,9.8945,9.9961,10.1406,10.2617,10.3711,10.4414,10.5117,10.5195,10.4492,10.5195,10.5703,10.5703,10.6797,10.75,10.75,10.7812,10.8008,10.8008,10.8008,10.8008,10.8008,10.8008,10.8008,10.8008,10.8008,10.8008,10.8008,10.8008,10.8281,10.8789,10.8789,10.9101,10.9609,10.9609,10.9609,10.9609,10.9883,11.0117,11.0117,11.0508,11.0898,11.1406,11.1797,11.2187,11.2695,0.0,0.0,0.0,0.0,0.0,5.2617,5.9844,6.1328,6.4023,7.0742,7.1094,7.0156,6.875,6.5312,6.168,5.8047,5.7031,0.0,0.0,0.0,0.0,0.0,0.0,0.0,0.0,0.0,6.375,6.3398,6.3984,6.3984,0.0,0.0,6.2656,6.2109,0.0,0.0,0.0,0.0,0.0,0.0,0.0,0.0,0.0,0.0,0.0,0.0,0.0,0.0,0.0,0.0,0.0,8.6015,8.6445,8.9844,9.4687,9.9844,10.2109,10.3594,10.6797,10.7812,10.8008,10.8008,10.6719,10.5117,10.3594,10.1719,9.9883,9.8398,9.8086,9.8086,9.8086,9.8594,9.957,10.1289,10.2109,10.3086,10.4883,10.5312,10.5586,10.5781,10.6406,10.6797,10.7109,10.7617,10.8008,10.8008,10.8203,10.8398,10.8398,10.8593,10.8515,10.8008,10.8008,10.8008,10.8008,10.8281,10.8398,10.8398,10.8593,10.9101,10.9687,10.9687,11.0,11.0586,11.0586,11.0586,11.0586,11.0898,11.1015,11.1015,11.1289,11.1718,11.2304,11.2304,11.2695,11.3203,0.0,0.0,0.0,0.0,0.0,0.0,5.8281,6.2109,6.582,7.0156,7.0703,7.039,6.957,6.4062,6.043,6.0351,5.8047,0.0,0.0,0.0,0.0,0.0,0.0,0.0,0.0,0.0,6.3437,6.4297,6.4297,6.4297,6.4258,6.3398,6.3008,6.2969,0.0,0.0,0.0,0.0,0.0,0.0,0.0,0.0,6.9609,0.0,0.0,0.0,0.0,0.0,0.0,0.0,0.0,0.0,0.0,8.8672,9.1054,9.625,10.0195,10.3515,10.6015,10.7304,10.8008,10.8008,10.6719,10.5312,10.4414,10.2187,10.0117,9.9179,9.8984,9.8984,9.8984,9.8984,9.957,10.1289,10.1601,10.2187,10.3984,10.5,10.5781,10.6601,10.6719,10.6992,10.789,10.8008,10.8008,10.8008,10.8789,10.9297,10.9297,11.0117,10.9804,10.8086,10.8008,10.8008,10.8008,10.8906,10.9297,10.9297,11.0195,11.0586,11.0586,11.0586,11.0586,11.0586,11.0586,11.0586,11.0703,11.1484,11.1914,11.1992,11.2812,11.3203,11.3203,11.3203,11.3203,11.3203,0.0,0.0,0.0,0.0,0.0,0.0,5.6758,5.9336,6.2344,6.664,6.7226,6.7344,6.7695,6.3359,6.039,6.039,5.8086,0.0,0.0,0.0,0.0,0.0,0.0,0.0,0.0,6.3594,6.4883,6.6953,6.8125,6.8086,6.6953,6.7305,6.6172,6.3867,6.3594,6.3789,0.0,0.0,0.0,0.0,0.0,6.8164,6.9453,0.0,0.0,0.0,0.0,0.0,0.0,0.0,0.0,0.0,0.0,0.0,0.0,9.4258,9.7539,10.0781,10.3398,10.4687,10.5312,10.4687,10.3203,10.1914,10.1601,9.9961,9.8437,9.8164,9.8125,9.8125,9.8125,9.8594,9.957,10.1289,10.2109,10.3086,10.4804,10.5781,10.6406,10.6719,10.7187,10.7695,10.8008,10.8008,10.8008,10.8008,10.8789,10.9297,10.9297,11.0117,11.0312,10.9804,10.9804,10.9804,10.9804,11.0117,11.0195,11.0195,11.0508,11.0898,11.1484,11.1484,11.1797,11.2383,11.2383,11.2383,11.2383,11.2695,11.2812,11.2812,11.3086,11.3203,11.3203,11.3203,11.3203,11.3203,0.0,0.0,0.0,0.0,0.0,0.0,5.5625,5.7305,5.9531,6.3164,6.3359,6.375,6.5273,6.1562,5.9336,6.0312,5.8086,0.0,0.0,0.0,0.0,0.0,0.0,0.0,6.3476,6.4336,6.6211,6.914,7.0508,7.082,7.0117,7.0,6.8476,6.5742,6.5078,6.4805,0.0,0.0,0.0,0.0,6.7265,6.8203,6.9453,0.0,0.0,0.0,0.0,0.0,0.0,0.0,0.0,0.0,0.0,0.0,0.0,0.0,9.5351,9.8789,10.1992,10.3281,10.3711,10.3906,10.2304,10.0898,10.1211,9.9687,9.8203,9.8203,9.7929,9.7812,9.8125,9.8633,9.957,10.1289,10.2304,10.3515,10.5312,10.6211,0.0,10.7187,10.8281,10.8711,10.8086,10.8281,10.8515,10.8515,10.9297,10.9883,11.0312,11.1093,11.1601,11.1601,11.0898,11.0586,11.0586,11.0898,11.1093,11.1093,11.1406,11.1914,11.2383,11.2383,11.2695,11.3203,11.3203,11.3203,0.0,11.3203,11.3203,11.3203,11.3203,11.3203,11.3203,11.3203,11.3203,11.3203,0.0,0.0,0.0,0.0,0.0,0.0,0.0,5.582,5.7265,5.9648,5.9336,5.9844,6.2265,5.8945,5.75,5.9922,5.7969,0.0,0.0,0.0,0.0,0.0,0.0,0.0,6.4258,6.5156,6.7305,7.0781,7.1836,7.2773,7.3555,7.2109,7.039,6.8476,6.6797,6.5937,0.0,0.0,0.0,0.0,6.7773,6.8633,0.0,0.0,0.0,0.0,0.0,0.0,0.0,0.0,0.0,0.0,0.0,0.0,0.0,0.0,0.0,0.0,0.0,10.25,10.3008,10.4609,10.3086,10.1484,10.2304,10.0586,0.0,9.8906,9.8203,9.789,9.8828,9.9062,9.9648,10.1289,10.2383,10.3594,10.5195,10.6211,0.0,0.0,10.9687,11.0,10.8281,10.8906,10.9414,10.9297,11.0195,11.1015,11.1914,11.2695,11.3203,11.3203,11.1601,11.0781,11.0781,11.1601,11.1992,11.1992,11.2812,11.3203,11.3203,11.3203,11.3203,11.3203,11.3203,11.3203,11.3203,11.3203,11.3203,11.3203,11.3203,11.3203,11.3203,11.3203,11.3203,11.3203,0.0,0.0,0.0,0.0,0.0,0.0,0.0,0.0,0.0,0.0,5.5937,5.6719,5.7969,5.6601,5.6133,0.0,0.0,0.0,0.0,0.0,0.0,0.0,0.0,0.0,6.4258,6.5156,6.7617,7.168,7.457,7.6094,7.6328,7.7851,7.625,7.2031,7.0976,6.9023,0.0,0.0,0.0,0.0,6.7109,6.8125,0.0,0.0,0.0,0.0,7.4297,7.6133,0.0,0.0,0.0,0.0,0.0,0.0,0.0,0.0,9.3281,9.5859,9.7539,0.0,9.9844,9.9609,9.9062,9.8672,0.0,9.7969,9.7265,9.789,9.7344,9.7226,9.8711,9.9531,10.0312,10.1406,10.3515,10.4804,10.4492,10.6289,0.0,11.0703,11.0781,11.039,11.0,11.0195,11.0,10.9414,11.0703,11.1718,11.1914,11.2695,11.3203,11.3203,11.2812,11.2617,11.2617,11.2812,11.289,11.289,11.3086,11.3203,11.3203,11.3203,11.3203,11.3203,11.3203,11.3203,11.3203,11.3203,11.3203,11.3203,11.3203,11.3203,11.3203,11.3203,11.3203,11.3203,0.0,0.0,0.0,0.0,0.0,0.0,0.0,0.0,0.0,0.0,5.3555,5.4297,5.4765,5.5117,5.5508,0.0,0.0,0.0,0.0,0.0,0.0,0.0,0.0,6.1445,6.4805,6.5742,6.8672,7.3789,7.6094,7.8008,7.9531,8.0117,7.8281,7.4375,7.1523,6.9023,0.0,0.0,0.0,6.7578,6.832,0.0,0.0,0.0,0.0,0.0,7.4297,7.6289,0.0,8.1367,8.3672,8.5781,0.0,0.0,0.0,0.0,9.2851,9.4804,9.5664,9.7148,9.8398,9.832,9.8281,9.8281,9.8281,9.7969,9.7656,9.7695,9.7344,9.7344,9.8242,10.0117,10.1484,10.1601,10.4414,10.6601,10.6601,10.7695,10.9297,11.1093,11.1211,11.0898,11.0117,11.0703,11.0781,11.0,11.1093,11.2109,11.25,11.289,11.3203,11.3203,11.3203,11.3203,11.3203,11.3203,11.3203,11.3203,11.3203,11.3203,11.3203,11.3203,11.3203,11.3203,11.3203,11.3203,11.3203,11.3203,11.3203,11.3203,11.3203,11.3203,11.3203,11.3203,11.3203,11.3203,0.0,0.0,0.0,0.0,0.0,0.0,0.0,0.0,0.0,0.0,0.0,0.0,0.0,0.0,0.0,0.0,0.0,0.0,0.0,0.0,0.0,0.0,5.9219,6.1289,6.5703,6.6523,6.9844,7.5898,7.7305,7.9687,8.2851,8.1797,7.9492,7.6094,7.1172,6.8359,6.7344,6.8086,6.8398,6.8515,6.9961,0.0,0.0,0.0,0.0,0.0,0.0,0.0,0.0,8.2148,8.4531,8.6601,8.8906,0.0,0.0,0.0,0.0,0.0,9.4961,9.6523,9.8086,9.8828,9.8984,9.9023,9.9179,9.8984,9.8633,9.8008,9.7773,9.7851,9.8398,10.0898,10.2695,10.2304,10.5195,10.8086,10.9297,10.9414,10.9687,11.0898,11.1406,11.1211,10.9804,11.1015,11.1601,11.0898,11.1601,11.2383,11.3203,11.3203,11.3203,11.3203,11.3203,11.3203,11.3203,11.3203,11.3203,11.3203,11.3203,11.3203,11.3203,11.3203,11.3203,11.3203,11.3203,11.3203,11.3203,11.3203,11.3203,11.3203,11.3203,11.3203,11.3203,11.3203,11.3203,11.3203,0.0,0.0,0.0,0.0,0.0,0.0,0.0,0.0,0.0,0.0,0.0,0.0,0.0,0.0,0.0,0.0,0.0,0.0,0.0,0.0,0.0,5.914,5.9219,6.1562,6.6601,6.6836,6.9844,7.5898,7.9687,8.2929,8.5625,8.7539,8.4726,7.793,7.418,7.125,6.9101,6.9258,6.9297,6.9336,6.957,0.0,0.0,0.0,0.0,0.0,0.0,0.0,0.0,8.0742,8.3554,8.6406,8.7539,0.0,0.0,0.0,0.0,0.0,9.4961,9.6953,9.8828,9.8984,9.8984,9.9179,9.9922,9.8945,9.8086,9.8672,9.8203,9.8594,10.1601,10.25,10.3281,10.4687,10.5508,10.6914,11.0,10.9804,11.0195,11.25,11.1601,11.1015,11.1484,11.1718,11.1797,11.1718,11.25,11.3086,11.3203,11.3203,11.3203,11.3203,11.3203,11.3203,11.3203,11.3203,11.3203,11.3203,11.3203,11.3203,11.3203,11.3203,11.3203,11.3203,11.3203,11.3203,11.3203,11.3203,11.3203,11.3203,11.3203,11.3203,11.3203,11.3203,11.3203,11.3203,0.0,0.0,0.0,0.0,0.0,0.0,0.0,0.0,0.0,0.0,0.0,0.0,0.0,0.0,0.0,0.0,0.0,0.0,0.0,0.0,5.8672,6.0469,6.1445,6.3711,6.7539,6.9414,7.332,7.9375,8.2265,8.5508,8.8906,8.6836,8.2695,7.6953,7.3437,7.0976,6.9492,6.9961,7.0156,7.0195,0.0,0.0,0.0,0.0,0.0,0.0,0.0,0.0,0.0,0.0,8.4023,8.7148,8.8437,0.0,0.0,0.0,0.0,0.0,9.4844,9.6406,9.8086,9.9922,10.0781,10.1211,10.1601,10.1094,10.0508,10.039,10.0117,10.039,10.25,10.3711,10.5,10.7187,10.7187,10.7695,11.0195,10.9804,11.0117,11.2187,11.1406,11.0781,11.1211,11.1601,11.1914,11.1914,11.2695,11.3203,11.3203,11.3203,11.3203,11.3203,11.3203,11.3203,11.3203,11.3203,11.3203,11.3203,11.3203,11.3203,11.3203,11.3203,11.3203,11.3203,11.3203,11.3203,11.3203,11.3203,11.3203,11.3203,11.3203,11.3203,11.3203,11.3203,11.3203,11.3203,0.0,0.0,0.0,0.0,0.0,0.0,0.0,0.0,0.0,0.0,0.0,0.0,0.0,0.0,0.0,0.0,0.0,0.0,0.0,5.7617,5.914,6.1289,6.3867,6.6601,6.9648,7.2656,7.7187,8.3203,8.5351,8.8164,9.1484,8.5859,8.0937,7.664,7.3164,7.1015,7.0039,7.0703,7.1015,7.1055,0.0,0.0,0.0,0.0,0.0,0.0,0.0,0.0,0.0,0.0,0.0,0.0,0.0,0.0,0.0,9.3164,9.3047,9.332,9.5273,9.6406,9.7851,10.1094,10.2109,10.2617,10.3594,10.3281,10.289,10.2812,10.2812,10.3086,10.3906,10.539,0.0,10.8711,10.8593,10.8789,11.039,10.9804,10.9883,11.1406,11.0586,11.0195,11.0586,11.1211,11.1797,11.2187,11.2812,11.3203,11.3203,11.3203,11.3203,11.3203,11.3203,11.3203,11.3203,11.3203,11.3203,11.3203,11.3203,11.3203,11.3203,11.3203,11.3203,11.3203,11.3203,11.3203,11.3203,11.3203,11.3203,11.3203,11.3203,11.3203,11.3203,11.3203,11.3203,11.3203,0.0,0.0,0.0,0.0,0.0,0.0,0.0,0.0,0.0,0.0,0.0,0.0,0.0,0.0,0.0,0.0,0.0,0.0,0.0,5.8164,5.9531,6.0469,6.5273,6.9883,7.4062,7.5976,7.9883,8.5937,8.9219,9.1406,9.2422,8.8008,8.3594,7.9297,7.5859,7.3398,7.1836,7.1875,7.1914,7.1914,7.1953,0.0,0.0,0.0,0.0,0.0,0.0,0.0,0.0,0.0,0.0,0.0,0.0,0.0,9.3984,9.4765,9.4453,9.4336,9.6836,9.8164,9.9453,10.2109,10.1601,10.1484,10.5508,10.4609,10.3594,10.5898,10.6289,10.6601,10.75,10.8398,10.8789,10.8203,10.8711,10.9492,11.0508,10.9804,10.9609,11.0586,10.9218,10.8789,11.039,11.0703,11.1406,11.3008,11.3203,11.3203,11.3203,11.3203,11.3203,11.3203,11.3203,11.3203,11.3203,11.3203,11.3203,11.3203,11.3203,11.3203,11.3203,11.3203,11.3203,11.3203,11.3203,11.3203,11.3203,11.3203,11.3203,11.3203,11.3203,11.3203,11.3203,11.3203,11.3203,11.3203,0.0,0.0,0.0,0.0,0.0,0.0,0.0,0.0,0.0,0.0,0.0,0.0,0.0,0.0,0.0,0.0,0.0,0.0,0.0,5.7422,5.9492,6.1914,6.5469,7.0156,7.6094,7.9492,8.3867,8.9375,9.2304,9.3047,9.1679,8.6289,8.1758,7.8008,7.4531,7.293,7.2773,7.2226,7.2305,7.2773,7.2226,7.1992,0.0,0.0,0.0,0.0,0.0,0.0,0.0,0.0,8.5039,8.9062,8.914,9.1719,9.4687,9.4453,9.4531,9.5039,9.6523,9.8359,10.0195,10.1719,10.2383,10.3594,10.6797,10.6797,10.6289,10.7304,10.75,10.7383,10.7187,10.8281,10.9218,10.8906,10.9101,10.9609,11.0508,10.9804,10.9414,10.9804,10.9218,10.9297,11.0508,11.1093,11.1914,11.3086,11.3203,11.3203,11.3203,11.3203,11.3203,11.3203,11.3203,11.3203,11.3203,11.3203,11.3203,11.3203,11.3203,11.3203,11.3203,11.3203,11.3203,11.3203,11.3203,11.3203,11.3203,11.3203,11.3203,11.3203,11.3203,11.3203,11.3203,11.3203,11.3203,11.3203,0.0,0.0,0.0,0.0,0.0,0.0,0.0,0.0,0.0,0.0,0.0,0.0,0.0,0.0,0.0,0.0,0.0,0.0,5.5312,5.6914,5.918,6.2031,6.4961,6.9453,7.582,8.0703,8.5976,9.1719,9.3789,9.3164,9.0,8.4765,8.0898,7.8242,7.4765,7.3711,7.4453,7.3008,7.2734,7.3203,7.2344,7.1992,0.0,0.0,0.0,0.0,0.0,0.0,0.0,0.0,8.5429,8.8945,8.9687,9.2187,9.4765,9.4726,9.5508,9.6601,9.7461,9.9179,10.1094,10.2812,10.3711,10.4883,10.7812,10.8008,10.7812,10.8711,10.8789,10.8593,10.7695,10.8515,10.9297,10.9297,10.9297,10.9609,11.0508,10.9804,10.9297,10.9297,10.9297,10.9609,11.0508,11.1406,11.2304,11.3086,11.3203,11.3203,11.3203,11.3203,11.3203,11.3203,11.3203,11.3203,11.3203,11.3203,11.3203,11.3203,11.3203,11.3203,11.3203,11.3203,11.3203,11.3203,11.3203,11.3203,11.3203,11.3203,11.3203,11.3203,11.3203,11.3203,11.3203,11.3203,11.3203,11.3203,0.0,0.0,0.0,0.0,0.0,0.0,0.0,0.0,0.0,0.0,0.0,0.0,0.0,0.0,0.0,0.0,0.0,0.0,5.5312,5.6914,5.8633,6.0351,6.375,6.8008,7.3164,7.9219,8.5703,9.2578,9.3437,9.164,8.7383,8.3906,8.1797,8.082,7.7422,7.6367,7.6992,7.4414,7.3281,7.3242,7.2344,7.1992,7.1992,0.0,0.0,0.0,0.0,0.0,0.0,0.0,8.4765,8.6992,9.125,9.3203,9.4258,9.5976,9.7695,9.9179,10.0117,10.0898,10.2383,10.5781,10.539,10.5117,10.8515,10.8008,10.7383,11.0117,11.0586,11.0312,10.9414,10.9297,10.9297,10.9297,10.9297,10.9609,11.0508,10.9804,10.9297,10.9297,10.9297,10.9687,11.0508,11.1406,11.2304,11.3086,11.3203,11.3203,11.3203,11.3203,11.3203,11.3203,11.3203,11.3203,11.3203,11.3203,11.3203,11.3203,11.3203,11.3203,11.3203,11.3203,11.3203,11.3203,11.3203,11.3203,11.3203,11.3203,11.3203,11.3203,11.3203,11.3203,11.3203,11.3203,11.3203,11.3203,0.0,0.0,0.0,0.0,0.0,0.0,0.0,0.0,0.0,0.0,0.0,0.0,0.0,0.0,0.0,0.0,0.0,0.0,5.5234,5.5781,5.7656,6.1172,6.3476,6.7109,7.2265,7.9492,8.6015,9.1679,9.0703,8.8672,8.5586,8.2109,7.9687,7.8281,7.7265,7.6289,7.5273,7.3906,7.3633,7.414,7.3281,7.289,7.2969,0.0,0.0,0.0,0.0,0.0,0.0,0.0,0.0,0.0,9.0351,9.3437,9.6445,9.5781,9.7226,9.9062,9.9336,10.0898,0.0,10.4492,10.5898,10.7109,10.8203,10.8008,10.8008,10.9414,10.9218,10.8711,10.8398,10.8398,10.8789,11.0,10.9687,10.9609,11.0508,10.9804,10.9297,10.9297,10.9804,11.0586,11.1406,11.2304,11.289,11.3203,11.3203,11.3203,11.3203,11.3203,11.3203,11.3203,11.3203,11.3203,11.3203,11.3203,11.3203,11.3203,11.3203,11.3203,11.3203,11.3203,11.3203,11.3203,11.3203,11.3203,11.3203,11.3203,11.3203,11.3203,11.3203,11.3203,11.3203,11.3203,11.3203,11.3203,0.0,0.0,0.0,0.0,0.0,0.0,0.0,0.0,0.0,0.0,5.125,5.1328,0.0,0.0,0.0,0.0,0.0,0.0,5.5195,5.5625,5.7422,6.1015,6.2851,6.668,7.289,7.8633,8.2929,8.5703,8.6719,8.5547,8.2344,8.1953,8.0859,7.9258,8.0312,7.9609,7.7578,7.6015,7.5469,7.5547,7.4687,7.4531,7.4883,0.0,0.0,0.0,0.0,0.0,0.0,0.0,0.0,0.0,9.0078,9.289,9.5742,9.6094,9.8242,10.0781,10.1797,10.3711,0.0,10.6992,10.7617,10.8008,10.8008,10.8008,10.8086,10.8711,10.8906,10.8906,10.8593,10.9101,10.9883,11.0898,11.0117,10.9609,11.0508,10.9609,10.8906,10.9297,11.0117,11.0898,11.1797,11.2695,11.3203,11.3203,11.3203,11.3203,11.3203,11.3203,11.3203,11.3203,11.3203,11.3203,11.3203,11.3203,11.3203,11.3203,11.3203,11.3203,11.3203,11.3203,11.3203,11.3203,11.3203,11.3203,11.3203,11.3203,11.3203,11.3203,11.3203,11.3203,11.3203,11.3203,11.3203,11.3203,0.0,0.0,0.0,0.0,0.0,0.0,0.0,0.0,0.0,5.1206,5.1209,5.1205,0.0,0.0,0.0,5.2617,5.3359,5.4219,5.5234,5.5976,5.7578,6.0273,6.2383,6.6875,7.4219,7.668,7.7461,7.6601,8.1875,8.2344,7.8476,8.2695,8.3828,8.2422,8.4883,8.4531,8.1992,7.9375,7.7851,7.7148,7.6328,7.6484,7.7148,7.6484,0.0,0.0,0.0,0.0,0.0,0.0,0.0,0.0,9.0117,9.1875,9.3359,9.6523,9.9922,10.3203,10.5586,10.7617,10.9492,11.1093,10.9804,0.0,10.8086,10.8086,10.8086,10.8086,10.9414,11.039,10.9609,11.0703,11.1797,11.1797,11.039,10.9609,11.039,10.9101,10.8398,10.9297,11.0195,11.1093,11.1914,11.2695,11.3203,11.3203,11.3203,11.3203,11.3203,11.3203,11.3203,11.3203,11.3203,11.3203,11.3203,11.3203,11.3203,11.3203,11.3203,11.3203,11.3203,11.3203,11.3203,11.3203,11.3203,11.3203,11.3203,11.3203,11.3203,11.3203,11.3203,11.3203,11.3203,11.3203,11.3203,11.3203,0.0,0.0,0.0,0.0,0.0,0.0,0.0,0.0,5.1346,5.121,5.1287,5.1362,5.1362,5.1369,0.0,5.2617,5.2266,5.2891,5.5156,5.4844,5.6328,6.0234,6.4687,6.8789,7.2461,7.3125,7.2969,7.2109,7.7969,7.9687,7.7578,8.1172,8.2656,8.2344,8.3594,8.3086,8.1054,7.7812,7.6758,7.7187,7.6992,7.7031,7.7305,7.8437,7.8711,0.0,0.0,0.0,0.0,0.0,0.0,0.0,8.9414,9.1836,9.3906,9.5312,9.8164,10.1094,10.2383,10.4883,10.75,10.8593,10.8906,10.8984,10.8984,10.8984,10.8984,10.8984,10.9883,11.0508,11.039,11.0586,11.0898,11.0898,11.0,10.9414,10.9609,10.9297,10.9297,11.0195,11.1093,11.1992,11.2812,11.3086,11.3203,11.3203,11.3203,11.3203,11.3203,11.3203,11.3203,11.3203,11.3203,11.3203,11.3203,11.3203,11.3203,11.3203,11.3203,11.3203,11.3203,11.3203,11.3203,11.3203,11.3203,11.3203,11.3203,11.3203,11.3203,11.3203,11.3203,11.3203,11.3203,11.3203,11.3203,11.3203,0.0,0.0,0.0,0.0,0.0,0.0,0.0,0.0,5.1289,5.1172,5.1258,5.1317,5.1317,5.1293,0.0,0.0,5.2266,5.2969,5.5156,5.4883,5.6523,6.0859,6.5625,6.8828,7.0156,7.0976,7.1172,7.0703,7.4687,7.6406,7.6055,8.1172,8.332,8.3008,8.5117,8.4648,8.2109,7.9883,7.9219,7.9609,7.918,7.9765,8.0898,8.0937,8.0937,8.1054,8.1914,0.0,0.0,0.0,0.0,0.0,0.0,0.0,9.3672,9.5781,9.8242,10.0898,10.3906,10.6601,10.8711,10.9101,10.8984,10.8789,10.9218,10.9609,11.0,11.0508,11.0898,11.1211,11.1211,11.1601,11.1718,11.1289,11.0508,10.9883,10.9883,10.9609,10.9804,11.1093,11.1601,11.2187,11.3086,11.3203,11.3203,11.3203,11.3203,11.3203,11.3203,11.3203,11.3203,11.3203,11.3203,11.3203,11.3203,11.3203,11.3203,11.3203,11.3203,11.3203,11.3203,11.3203,11.3203,11.3203,11.3203,11.3203,11.3203,11.3203,11.3203,11.3203,11.3203,11.3203,11.3203,11.3203,11.3203,11.3203,0.0,0.0,0.0,0.0,0.0,0.0,0.0,0.0,0.0,5.1133,5.1172,5.1211,5.1211,5.1211,5.1562,0.0,0.0,0.0,5.4961,5.5508,5.7461,6.1328,6.5351,6.7656,6.7969,6.9492,7.0351,7.0469,7.2226,7.375,7.5195,8.1484,8.4219,8.3945,8.6601,8.6328,8.375,8.2578,8.2148,8.2265,8.1679,8.2734,8.4531,8.3242,8.3203,8.3828,8.3828,8.3828,8.4101,8.5859,0.0,0.0,0.0,0.0,9.3008,9.6328,9.8476,10.0781,10.539,10.8203,10.9883,11.0508,10.9297,10.8281,10.9297,11.0117,11.0898,11.1914,11.2109,11.2109,11.2109,11.2695,11.289,11.1797,11.1211,11.0703,11.039,11.0,11.0312,11.1718,11.1992,11.2383,11.3086,11.3203,11.3203,11.3203,11.3203,11.3203,11.3203,11.3203,11.3203,11.3203,11.3203,11.3203,11.3203,11.3203,11.3203,11.3203,11.3203,11.3203,11.3203,11.3203,11.3203,11.3203,11.3203,11.3203,11.3203,11.3203,11.3203,11.3203,11.3203,11.3203,11.3203,11.3203,11.3203,11.3203,0.0,0.0,0.0,0.0,0.0,0.0,0.0,0.0,0.0,0.0,5.1289,5.1367,5.1367,5.1367,5.1445,5.1562,5.1562,5.2305,5.4062,0.0,0.0,6.0508,6.3281,6.5547,6.7031,6.8047,6.8867,6.957,7.1328,7.3789,7.6953,8.082,8.3398,8.4726,8.4414,8.4453,8.457,8.2187,8.1601,8.2344,8.3008,8.3476,8.3828,8.4336,8.4648,8.4726,8.4726,8.4726,8.5,8.6758,8.7461,0.0,0.0,0.0,9.1992,9.4726,9.6719,9.8515,10.0703,10.3711,10.6914,10.9883,10.9297,10.8398,11.0117,11.0508,11.1093,11.2695,11.3008,11.3008,11.3008,11.3086,11.2695,11.1015,11.1289,11.1211,10.9687,11.0703,11.1601,11.1914,11.2617,11.3086,11.3203,11.3203,11.3203,11.3203,11.3203,11.3203,11.3203,11.3203,11.3203,11.3203,11.3203,11.3203,11.3203,11.3203,11.3203,11.3203,11.3203,11.3203,11.3203,11.3203,11.3203,11.3203,11.3203,11.3203,11.3203,11.3203,11.3203,11.3203,11.3203,11.3203,11.3203,11.3203,11.3203,11.3203,0.0,0.0,0.0,0.0,0.0,0.0,0.0,0.0,0.0,0.0,0.0,5.1406,5.1406,5.1406,5.1406,5.1406,5.1406,5.2148,5.3906,5.6445,5.8242,5.8984,6.1953,6.3711,6.3984,6.6289,6.7656,6.8008,6.9765,7.2851,7.7265,8.0195,8.3008,8.5586,8.4726,8.4804,8.5508,8.3359,8.3242,8.4492,8.4375,8.5781,8.7734,8.6211,8.6523,8.7617,8.6679,8.6054,8.5898,8.7617,8.8515,8.9179,9.0781,0.0,0.0,0.0,9.6054,9.8047,10.2617,10.539,10.75,11.0,10.9297,10.8515,11.0195,11.0586,11.1093,11.2812,11.3203,11.3203,11.3203,11.3203,11.2617,11.0898,11.1289,11.1484,11.0195,11.1093,11.2109,11.2617,11.3008,11.3203,11.3203,11.3203,11.3203,11.3203,11.3203,11.3203,11.3203,11.3203,11.3203,11.3203,11.3203,11.3203,11.3203,11.3203,11.3203,11.3203,11.3203,11.3203,11.3203,11.3203,11.3203,11.3203,11.3203,11.3203,11.3203,11.3203,11.3203,11.3203,11.3203,11.3203,11.3203,11.3203,11.3203,11.3203,0.0,0.0,0.0,0.0,0.0,0.0,0.0,0.0,0.0,0.0,0.0,5.1406,5.1406,0.0,0.0,0.0,5.1406,5.2148,5.3906,5.6445,5.7812,5.7578,6.0859,6.2265,6.1406,6.457,6.6445,6.6914,6.8867,7.2578,7.789,8.0703,8.3945,8.7461,8.6367,8.5859,8.582,8.4961,8.5351,8.6523,8.6523,8.8437,9.1094,8.9219,8.9687,9.1054,8.914,8.8047,8.7656,8.8672,8.9453,9.0195,9.1289,9.207,0.0,0.0,0.0,9.7812,10.3789,10.6015,10.7187,10.9414,10.8984,10.8515,11.0195,11.0586,11.1093,11.2812,11.3203,11.3203,11.3203,11.3203,11.2617,11.0898,11.1484,11.1797,11.0781,11.1484,11.25,11.3086,11.3203,11.3203,11.3203,11.3203,11.3203,11.3203,11.3203,11.3203,11.3203,11.3203,11.3203,11.3203,11.3203,11.3203,11.3203,11.3203,11.3203,11.3203,11.3203,11.3203,11.3203,11.3203,11.3203,11.3203,11.3203,11.3203,11.3203,11.3203,11.3203,11.3203,11.3203,11.3203,11.3203,11.3203,11.3203,11.3203,0.0,0.0,0.0,0.0,0.0,0.0,0.0,0.0,0.0,0.0,0.0,5.1406,5.1406,5.1406,5.1406,5.1406,5.1406,5.2148,5.3906,5.6445,5.7539,5.6719,5.9922,0.0,6.0508,6.3086,6.5234,6.6914,6.9414,7.3711,7.9648,8.3086,8.6953,9.0976,8.9258,8.7187,8.5078,8.664,8.7344,8.7656,9.0,9.1094,9.1562,9.3867,9.4804,9.4609,9.2031,9.1054,9.0937,9.0195,8.9961,9.0312,9.1992,9.2578,9.2773,0.0,0.0,0.0,10.0898,10.25,10.3984,10.7304,10.8086,10.8515,11.0195,11.0586,11.1093,11.2812,11.3203,11.3203,11.3203,11.3203,11.2617,11.0898,11.1992,11.25,11.0781,11.2109,11.3086,11.3203,11.3203,11.3203,11.3203,11.3203,11.3203,11.3203,11.3203,11.3203,11.3203,11.3203,11.3203,11.3203,11.3203,11.3203,11.3203,11.3203,11.3203,11.3203,11.3203,11.3203,11.3203,11.3203,11.3203,11.3203,11.3203,11.3203,11.3203,11.3203,11.3203,11.3203,11.3203,11.3203,11.3203,11.3203,11.3203,11.3203,0.0,0.0,0.0,0.0,0.0,0.0,0.0,0.0,0.0,0.0,0.0,0.0,0.0,5.2226,5.2226,5.2226,5.3789,5.5,5.5625,5.7578,5.8594,5.8281,5.9922,6.0703,6.039,6.2422,6.4062,6.5234,6.7812,7.1914,7.7344,8.1367,8.4961,8.8047,8.8515,8.8828,8.8906,8.7344,8.7304,8.8515,9.1094,9.3125,9.4804,9.625,9.7851,9.8984,0.0,0.0,0.0,9.3242,9.2226,9.1054,9.2226,9.2617,9.2773,9.3633,9.5508,9.789,10.0781,10.2617,10.4297,10.6601,10.7617,10.8281,10.9492,11.0195,11.1093,11.2812,11.3203,11.3203,11.3203,11.3203,11.2617,11.0898,11.2109,11.2617,11.0781,11.2109,11.3203,11.3203,11.3203,11.3203,11.3203,11.3203,11.3203,11.3203,11.3203,11.3203,11.3203,11.3203,11.3203,11.3203,11.3203,11.3203,11.3203,11.3203,11.3203,11.3203,11.3203,11.3203,11.3203,11.3203,11.3203,11.3203,11.3203,11.3203,11.3203,11.3203,11.3203,11.3203,11.3203,11.3203,11.3203,11.3203,11.3203,11.3203,0.0,0.0,0.0,0.0,0.0,0.0,0.0,0.0,5.1914,5.25,0.0,0.0,0.0,0.0,5.4023,5.4023,5.5859,5.7031,5.7031,5.8633,5.9492,5.9219,6.0234,6.0859,6.0859,6.2265,6.3555,6.4726,6.7344,7.1289,7.6445,8.0742,8.4414,8.7539,8.8945,9.0039,9.0742,8.9062,0.0,8.9844,9.2734,9.4765,9.6328,9.8594,10.0312,10.1289,0.0,0.0,0.0,9.6367,9.5312,9.3906,9.3906,9.3515,9.3164,9.3711,9.5508,9.7695,9.9414,10.1601,10.3789,10.5781,10.6914,10.8008,10.9804,11.039,11.1093,11.2812,11.3203,11.3203,11.3203,11.3203,11.2695,11.1289,11.2304,11.2695,11.1211,11.2304,11.3203,11.3203,11.3203,11.3203,11.3203,11.3203,11.3203,11.3203,11.3203,11.3203,11.3203,11.3203,11.3203,11.3203,11.3203,11.3203,11.3203,11.3203,11.3203,11.3203,11.3203,11.3203,11.3203,11.3203,11.3203,11.3203,11.3203,11.3203,11.3203,11.3203,11.3203,11.3203,11.3203,11.3203,11.3203,11.3203,11.3203,11.3203,0.0,0.0,0.0,0.0,0.0,0.0,5.1719,0.0,5.2851,5.2891,0.0,0.0,0.0,0.0,0.0,5.6758,5.7539,5.8047,5.8008,5.9531,6.0078,5.9297,6.0859,6.1758,6.1797,6.2617,6.3906,6.5625,6.8281,7.2148,7.7226,8.1562,8.5859,8.9922,9.0859,9.082,9.0156,0.0,9.207,9.1679,0.0,9.6054,9.5937,10.1015,10.25,10.1719,10.0781,10.0508,0.0,9.9453,9.9062,9.8672,9.6992,9.5312,9.3984,9.3945,9.5156,9.6523,0.0,0.0,0.0,10.4804,10.6093,10.7617,11.1015,11.1211,11.1093,11.2812,11.3203,11.3203,11.3203,11.3203,11.289,11.1992,11.2617,11.289,11.1992,11.2617,11.3203,11.3203,11.3203,11.3203,11.3203,11.3203,11.3203,11.3203,11.3203,11.3203,11.3203,11.3203,11.3203,11.3203,11.3203,11.3203,11.3203,11.3203,11.3203,11.3203,11.3203,11.3203,11.3203,11.3203,11.3203,11.3203,11.3203,11.3203,11.3203,11.3203,11.3203,11.3203,11.3203,11.3203,11.3203,11.3203,11.3203,11.3203,0.0,0.0,0.0,0.0,0.0,5.6328,5.6133,5.6328,5.668,0.0,0.0,0.0,5.8125,5.8867,5.9609,6.0234,6.1094,6.1328,6.0703,6.1094,6.125,6.1015,6.207,6.293,6.3555,6.3828,6.4805,6.6523,6.9726,7.2695,7.543,8.1015,8.4922,8.7344,8.9414,9.0586,9.0937,9.0781,0.0,9.3398,9.5586,9.7851,0.0,10.3515,10.539,0.0,0.0,10.4687,10.3086,0.0,10.0703,9.7773,9.6094,9.5664,9.5664,9.5039,9.6054,9.75,9.8125,0.0,0.0,0.0,0.0,0.0,10.8711,10.9883,11.1093,11.2812,11.3203,11.3203,11.3203,11.3203,11.289,11.1992,11.2109,11.1992,11.1093,11.1718,11.2304,11.2304,11.2812,11.3203,11.3203,11.3203,11.3203,11.3203,11.3203,11.3203,11.3203,11.3203,11.3203,11.3203,11.3203,11.3203,11.3203,11.3203,11.3203,11.3203,11.3203,11.3203,11.3203,11.3203,11.3203,11.3203,11.3203,11.3203,11.3203,11.3203,11.3203,11.3203,11.3203,11.3203,11.3203,11.3203,11.3203,11.3203,0.0,0.0,5.8281,5.9297,5.9805,5.9922,5.9531,6.0117,6.0625,0.0,0.0,0.0,6.2383,6.3164,6.3555,6.3359,6.3789,6.3711,6.2851,6.2773,6.2773,6.2773,6.3633,6.4492,6.5351,6.5742,6.6758,6.8476,7.1211,7.3633,7.5781,8.0742,8.3984,8.5781,8.832,8.9922,9.0742,9.0586,0.0,0.0,9.6953,0.0,0.0,10.4219,10.5898,0.0,0.0,0.0,10.5,10.6406,10.3789,0.0,9.8711,9.7773,9.6914,9.6406,9.7461,9.8828,9.8945,10.0312,10.1914,10.3086,0.0,0.0,10.8593,10.9297,11.0195,11.2695,11.289,11.2812,11.3086,11.3203,11.3008,11.25,11.2109,11.1601,11.0703,11.1015,11.1406,11.1406,11.1797,11.2109,11.2109,11.2383,11.2695,11.2695,11.3008,11.3203,11.3203,11.3203,11.3203,11.3203,11.3203,11.3203,11.3203,11.3203,11.3203,11.3203,11.3203,11.3203,11.3203,11.3203,11.3203,11.3203,11.3203,11.3203,11.3203,11.3203,11.3203,11.3203,11.3203,11.3203,11.3203,11.3203,11.3203,11.3203,0.0,0.0,6.207,6.2383,6.3203,6.3633,6.2969,6.4062,6.4805,0.0,6.539,6.668,6.7656,6.8359,6.8164,6.6719,6.6601,6.6133,6.5078,6.4844,6.4687,6.4609,6.5312,6.6172,6.7148,6.793,6.918,7.0859,7.2695,7.4844,7.7265,8.0898,8.3437,8.5,8.7461,8.9101,9.0078,9.1015,9.2617,9.4804,9.8633,9.9922,0.0,0.0,10.5195,10.4883,10.7187,10.6992,10.6211,10.9218,10.7187,0.0,0.0,10.1015,9.8633,9.8359,9.9492,10.0703,9.9804,10.0703,10.2304,10.3906,10.4492,0.0,10.9414,10.9297,10.9218,11.2383,11.2383,11.2109,11.3008,11.3086,11.3086,11.3086,11.2383,11.1601,11.0703,11.0586,11.0586,11.0508,11.0508,11.0586,11.0586,11.1289,11.1797,11.1797,11.2617,11.3086,11.3086,11.3086,11.3203,11.3203,11.3203,11.3203,11.3281,11.3203,11.3203,11.3281,11.3203,11.3203,11.3203,11.3203,11.3203,11.3203,11.3203,11.3203,11.3203,11.3203,11.3203,11.3203,11.3203,11.3203,11.3203,11.3203,11.3203,11.3203,6.2265,6.3086,6.4453,6.6562,6.8203,6.9375,6.9922,6.9687,6.9883,7.1133,7.0976,7.1367,7.293,7.2617,7.2461,7.2812,7.2851,7.1875,6.9609,6.8203,6.7148,6.6406,6.6562,6.7344,6.8867,6.914,7.0078,7.1758,7.4219,7.6015,7.7305,8.2148,8.457,8.4961,8.6875,8.8594,9.0117,9.1679,0.0,9.8086,9.8906,0.0,10.3398,10.5586,10.6797,10.7304,10.7812,10.7812,10.75,10.75,10.7304,10.6601,0.0,0.0,0.0,10.25,10.3086,10.4297,10.3398,10.3398,10.3906,10.5,0.0,0.0,10.8281,10.9297,11.0508,11.1914,11.1484,11.1289,11.289,11.2617,11.2187,11.2187,11.1992,11.1601,11.0703,11.0586,11.0312,10.9609,11.0195,11.0586,11.0586,11.0781,11.0898,11.0898,11.1718,11.2187,11.2187,11.2812,11.3203,11.3203,11.3203,11.3515,11.4218,11.3593,11.3593,11.4218,11.3515,11.3203,11.3203,11.3203,11.3203,11.3203,11.3203,11.3203,11.3203,11.3203,11.3203,11.3203,11.3203,11.3203,11.3203,11.3203,11.3203,11.3203,6.4961,6.6015,6.7695,7.0273,7.1797,7.3086,7.4375,7.4609,7.4765,7.5195,7.5586,7.6015,7.6484,7.6523,7.6523,7.6523,7.6133,7.5156,7.3398,7.25,7.1445,7.0156,7.0508,7.1133,7.1992,7.2031,7.3086,7.5234,7.6562,7.8086,7.9805,8.3281,8.6054,8.8086,8.7695,8.9414,9.2578,9.2148,9.4414,9.8515,10.0195,0.0,10.5586,10.6914,10.7617,10.8086,10.8515,10.8906,10.9101,10.7812,10.7304,0.0,10.6406,10.6093,10.5898,0.0,10.5117,10.5898,10.5117,10.4804,10.5,10.539,0.0,0.0,0.0,10.8281,10.9101,11.0898,11.0898,11.0898,11.1718,11.1914,11.1992,11.25,11.2187,11.1914,11.1914,11.1093,11.039,11.0,11.0,11.0,11.0,11.0,11.0117,11.0586,11.1015,11.1406,11.1914,11.2304,11.2812,11.3203,11.3203,11.3398,11.3789,11.3789,11.3789,11.3906,11.3789,11.3593,11.3203,11.3203,11.3203,11.3203,11.3203,11.3203,11.3203,11.3203,11.3203,11.3203,11.3203,11.3203,11.3203,11.3203,11.3203,11.3203,6.7422,6.8789,7.0664,7.289,7.4453,7.582,7.7226,7.8164,7.8594,7.8242,7.9648,8.0586,8.0273,8.0937,8.1172,8.0508,7.9961,7.9101,7.7734,7.7461,7.6758,7.5351,7.5312,7.5586,7.6055,7.5586,7.6406,7.8515,7.8672,7.9883,8.2109,8.4023,8.6758,9.0039,8.8945,9.0703,9.4375,0.0,0.0,9.8945,0.0,10.4414,10.6406,10.7695,10.8008,10.789,10.8711,10.9609,11.0117,10.8711,10.789,10.75,10.8086,10.7617,0.0,0.0,0.0,0.0,0.0,0.0,0.0,0.0,0.0,10.6992,0.0,0.0,0.0,11.0195,11.0508,11.039,11.0586,11.1015,11.1718,11.2617,11.2187,11.2109,11.289,11.1718,11.0703,11.039,10.9687,10.9297,10.9297,10.9492,10.9804,11.0312,11.0508,11.0898,11.1601,11.1797,11.2187,11.289,11.3086,11.3281,11.3398,11.3984,11.3984,11.3515,11.3984,11.3906,11.3203,11.3203,11.3203,11.3203,11.3203,11.3203,11.3203,11.3203,11.3203,11.3203,11.3203,11.3203,11.3203,11.3203,11.3203,11.3203,6.9258,7.0508,7.2031,7.3125,7.5937,7.8125,7.832,7.9023,8.0078,8.1523,8.3242,8.4844,8.6328,8.7187,8.7656,8.7539,8.8164,8.7226,8.4062,8.3164,8.2656,8.2422,7.9609,7.9101,8.1367,7.9219,7.8203,7.8515,7.9219,8.0117,8.1211,8.3711,8.5156,8.582,9.0117,9.1914,0.0,0.0,9.9726,0.0,10.3594,10.4219,0.0,10.8008,10.8203,10.6992,10.7812,10.8711,10.9414,10.9218,10.9609,11.0,10.9414,11.0117,11.0703,10.8398,0.0,0.0,0.0,0.0,0.0,0.0,11.0,11.1015,0.0,0.0,11.1211,11.0703,0.0,10.9687,11.0508,0.0,0.0,11.0781,11.1484,11.1914,11.1992,11.1914,11.1211,10.9609,10.9414,10.9297,10.9297,11.0,11.0195,10.9492,11.0195,11.0586,11.0703,11.1484,11.1914,11.1992,11.2812,11.3593,11.4297,11.3711,11.3711,11.4297,11.3711,11.3281,11.3203,11.3203,11.3203,11.3203,11.3203,11.3203,11.3203,11.3203,11.3203,11.3203,11.3203,11.3203,11.3203,11.3203,11.3203,11.3203,7.0312,7.1562,7.3203,7.457,7.6445,7.8242,7.9726,8.1523,8.2969,8.3711,8.5742,8.7578,8.8828,8.9258,0.0,0.0,0.0,8.9922,0.0,0.0,8.5195,8.3672,8.1758,8.1211,8.2265,8.0742,8.0195,8.0703,8.0547,8.1172,8.2539,8.414,8.6484,8.9453,9.164,9.4062,9.664,0.0,10.0781,0.0,0.0,10.4804,10.5898,10.7812,10.8086,10.75,10.789,10.8203,10.8593,10.9101,10.9218,10.9297,11.039,11.0586,11.0312,10.9687,10.9687,10.9609,10.8281,10.8593,10.9297,10.9297,11.0195,11.1015,11.0703,0.0,11.0312,0.0,0.0,0.0,0.0,0.0,0.0,0.0,11.0508,11.0703,11.1797,11.1015,11.0703,11.1484,11.0195,10.9297,10.9297,11.0117,11.039,11.0117,10.9883,11.0117,11.0586,11.0508,11.0898,11.1914,11.2304,11.289,11.3711,11.3906,11.3906,11.3711,11.3906,11.3711,11.3203,11.3203,11.3203,11.3203,11.3203,11.3203,11.3203,11.3203,11.3203,11.3203,11.3203,11.3203,11.3203,11.3203,11.3203,11.3203,7.1562,7.2617,7.4062,7.5312,7.6836,7.8828,8.164,8.3476,8.5039,8.6484,8.8476,9.0351,9.1953,9.2109,0.0,0.0,9.3906,9.2695,0.0,0.0,8.8945,8.8203,8.5547,0.0,8.582,8.3594,8.2617,8.3008,8.2383,8.2734,8.3984,8.5078,8.7617,9.1289,9.3164,9.5976,9.9336,0.0,10.2187,10.4609,10.4804,10.5781,10.7109,10.75,10.7812,10.8008,10.8008,10.8008,10.8086,10.8711,10.8515,10.8281,11.0195,11.0312,10.9687,11.0117,11.0117,10.9804,10.8711,10.8984,10.9609,10.9414,11.0117,11.0898,11.0703,11.0508,0.0,0.0,10.9804,0.0,0.0,0.0,10.9804,11.0195,0.0,11.0,11.1015,10.9883,10.9609,11.1484,11.0312,10.9492,11.0,11.0586,11.1015,11.1015,11.0117,10.9883,11.0586,11.0195,11.039,11.1211,11.1914,11.2383,11.2812,11.3711,11.3789,11.3203,11.3789,11.3789,11.3203,11.3203,11.3203,11.3203,11.3203,11.3203,11.3203,11.3203,11.3203,11.3203,11.3203,11.3203,11.3203,11.3203,11.3203,11.3203,7.3398,7.3945,7.457,7.4648,7.7383,8.0781,8.4258,8.414,8.5429,9.0429,9.1914,0.0,0.0,0.0,0.0,0.0,0.0,9.7148,9.6328,0.0,9.5508,0.0,0.0,9.0469,0.0,8.9023,8.5625,8.4804,8.4804,8.4804,8.4883,8.6601,8.75,8.7969,9.457,9.7187,9.6992,10.2812,10.539,10.5508,10.6289,10.7187,10.789,10.7109,10.7304,10.8008,10.8008,10.8008,10.8008,10.8008,10.8008,10.8008,10.8086,10.9218,11.039,10.9609,11.0508,11.1406,10.9687,10.9883,11.039,10.9492,11.0586,11.1601,11.0781,11.1914,11.2617,0.0,0.0,11.1601,11.0703,11.0508,11.0312,10.9492,11.0,0.0,0.0,10.8593,10.8086,10.8203,10.8789,11.0,11.1718,11.1797,11.1914,11.1914,11.1093,11.0586,11.0586,11.1406,11.1093,10.9414,11.1797,11.2812,11.1914,11.2812,11.3203,11.3203,11.3203,11.3203,11.3203,11.3203,11.3203,11.3203,11.3203,11.3203,11.3203,11.3203,11.3203,11.3203,11.3203,11.3203,11.3203,11.3203,11.3203,11.3203,7.6797,7.6992,7.6992,7.6406,7.8203,8.0664,8.3594,8.6679,0.0,0.0,0.0,0.0,0.0,9.8554,9.914,0.0,0.0,9.9062,9.8203,9.6562,0.0,0.0,0.0,9.1953,0.0,8.9765,8.7187,8.5742,8.5195,8.5195,8.5781,8.6953,8.8398,9.0234,9.539,9.8515,0.0,0.0,0.0,10.7187,10.8086,10.8281,10.8008,10.8281,10.8593,10.8906,10.9492,10.9687,10.9687,10.9687,10.9297,10.8984,10.9492,10.9297,10.8906,10.9218,10.9687,11.0117,10.9492,11.039,11.1289,11.039,11.1015,11.1718,11.0781,11.1484,11.1992,11.0781,11.1289,11.1601,11.0781,11.0586,11.0312,10.9414,10.9492,10.9218,0.0,10.6914,10.6992,10.8711,0.0,0.0,0.0,11.2109,11.2304,11.1093,11.1289,11.1015,10.9804,11.0,11.0195,11.0195,11.0508,11.1289,11.2695,11.25,11.2617,11.3203,11.3203,11.3203,11.3203,11.3203,11.3203,11.3203,11.3203,11.3203,11.3203,11.3203,11.3203,11.3203,11.3203,11.3203,11.3203,11.3203,11.3203,11.3203,7.9492,7.9883,7.9844,7.8359,8.0,8.2539,8.5429,0.0,0.0,0.0,9.6133,0.0,10.0195,0.0,10.0586,0.0,10.1719,10.1015,10.039,9.9101,0.0,9.9219,9.6133,0.0,0.0,0.0,8.9883,8.8476,8.7617,8.7304,8.7578,8.8437,8.9726,9.1484,9.5781,9.8984,10.1289,10.4297,10.6484,10.8086,10.8906,10.9101,10.8984,10.9883,10.9804,10.9414,11.0312,11.0586,11.0586,11.0586,11.0195,10.9883,11.039,11.0,10.9414,10.9687,11.0,11.0117,10.9492,11.0117,11.0781,11.0312,11.0781,11.1289,11.0703,11.1484,11.2109,11.1211,11.1797,11.2304,11.1992,11.1484,11.0898,11.0312,10.9687,10.8593,0.0,10.6093,0.0,0.0,0.0,0.0,0.0,11.1718,11.1914,11.1992,11.1406,11.0781,11.0312,10.9883,10.9883,11.0117,10.9883,11.039,11.1797,11.1914,11.2187,11.2695,11.3086,11.3203,11.3203,11.3203,11.3203,11.3203,11.3203,11.3203,11.3203,11.3203,11.3203,11.3203,11.3203,11.3203,11.3203,11.3203,11.3203,11.3203,8.1719,8.2734,8.3125,8.0625,8.289,8.6211,8.9609,0.0,9.4062,0.0,9.8672,10.0195,10.2812,10.2304,10.25,10.4101,10.3515,10.3008,10.3008,10.2304,0.0,0.0,10.0312,9.8789,10.0508,0.0,0.0,9.2734,9.1758,9.0859,9.0039,9.0898,9.1328,9.1562,9.5781,9.8672,10.0586,10.3984,10.6484,10.8086,10.9101,10.9883,11.0703,11.1601,11.0898,10.9492,11.039,11.0703,11.0703,11.0703,11.0703,11.0703,11.0703,11.1211,11.1718,11.0781,11.1211,11.1484,10.9883,10.9492,10.9492,10.9414,11.0117,11.0703,11.0703,11.1992,11.3008,11.2109,11.2695,11.3515,11.4218,11.3008,11.1914,11.1797,11.0312,10.8281,10.5898,10.6211,0.0,0.0,0.0,0.0,0.0,0.0,11.0703,11.3906,11.1211,11.0117,11.1718,11.1015,11.0195,10.9414,11.0117,11.0195,10.9414,11.1015,11.1797,11.1914,11.2695,11.3203,11.3203,11.3203,11.3203,11.3203,11.3203,11.3203,11.3203,11.3203,11.3203,11.3203,11.3203,11.3203,11.3203,11.3203,11.3086,11.3086,8.6679,8.7617,8.8164,8.7461,8.7578,8.8672,0.0,0.0,0.0,0.0,10.1484,10.3398,10.4687,10.4609,10.4687,10.5117,10.5,0.0,0.0,0.0,0.0,10.6015,10.3789,10.2695,10.3203,9.8945,0.0,9.4531,9.2344,9.0859,9.0039,9.0898,9.164,9.2422,9.6054,9.9023,10.1484,10.4297,10.6797,10.9101,11.0586,11.1015,11.0781,11.2304,11.2187,11.1289,11.2187,11.25,11.25,11.25,11.2109,11.1601,11.1601,11.1289,11.0898,11.0703,11.1211,11.1797,11.1406,11.1718,11.1992,11.1406,11.1406,11.1601,11.1601,11.2383,11.3086,11.289,11.3593,11.3789,11.2812,11.2187,11.1484,11.0195,10.8008,10.6484,0.0,0.0,0.0,10.5781,0.0,0.0,0.0,0.0,11.0781,10.9687,11.0586,11.1093,11.0898,11.0117,10.9804,11.0312,10.9883,10.9804,11.0312,11.0117,11.0586,11.1914,11.2109,11.2617,11.3203,11.3203,11.3203,11.3203,11.3203,11.3203,11.3203,11.3203,11.3203,11.3203,11.3203,11.3203,11.3086,11.25,11.2187,11.2109,8.9258,9.0273,9.1484,9.2656,9.2422,9.2734,9.4531,9.6797,0.0,10.1211,10.2695,0.0,10.539,10.5781,10.6211,10.6601,10.6601,0.0,10.6015,0.0,0.0,10.6211,10.5586,10.5117,10.4804,10.1992,0.0,9.7422,9.4844,9.2929,9.1719,9.1836,9.2344,9.332,9.6758,9.9297,10.1289,10.5,10.789,11.0,11.1406,11.1601,0.0,11.2695,11.289,11.25,11.3008,11.3203,11.3203,11.3203,11.289,11.25,11.25,11.2109,11.1718,11.1289,11.1484,11.1797,11.1406,11.1718,11.1992,11.1914,11.1914,11.1992,11.2383,11.2812,11.3203,11.3203,11.3593,11.3711,11.3086,11.2109,11.0781,10.8984,10.7187,0.0,0.0,0.0,0.0,0.0,0.0,0.0,0.0,0.0,0.0,10.8789,11.0312,11.1015,11.0117,10.9609,10.9492,11.0,10.9883,10.9687,10.9492,10.9687,11.039,11.1289,11.1718,11.2383,11.3203,11.3203,11.3203,11.3203,11.3203,11.3008,11.2695,11.3008,11.3008,11.2617,11.2617,11.2383,11.1992,11.1093,11.1211,11.1797,9.082,9.207,9.3945,9.6133,9.6953,9.7539,0.0,9.9062,0.0,10.289,0.0,10.4101,10.5703,10.6484,10.7187,10.789,0.0,10.7695,10.6914,10.7617,10.7304,10.5898,10.6484,10.6484,10.5781,10.4883,10.3086,0.0,9.789,9.5664,9.3711,9.3086,9.3164,9.4062,9.7578,9.9883,10.1406,10.6015,10.8984,11.0703,11.1484,11.1914,11.1992,11.289,11.3086,11.3008,11.3203,11.3203,11.3203,11.3203,11.3203,11.3203,11.3203,11.3203,11.3086,11.2304,11.2109,11.1914,11.1093,11.0898,11.1093,11.1914,11.2109,11.2304,11.3203,11.3281,11.3203,11.3281,11.3203,11.3281,11.3984,11.2187,11.0117,10.8398,10.7383,0.0,0.0,0.0,0.0,0.0,0.0,0.0,0.0,0.0,0.0,0.0,0.0,10.9883,10.9297,10.9218,10.9218,10.9492,11.0195,10.9804,10.8203,10.9609,11.0312,11.039,11.1289,11.2187,11.3008,11.3086,11.3203,11.3203,11.3086,11.2617,11.1914,11.2617,11.2383,11.1718,11.1718,11.1289,11.0508,10.9609,11.0312,11.1601,9.4336,9.5664,9.6758,9.6523,9.9414,10.1601,10.1015,10.2304,10.3711,10.4883,10.6211,10.7187,10.75,10.7695,10.7812,10.8008,10.8008,0.0,0.0,0.0,0.0,10.7617,10.7695,10.7695,10.7617,10.6093,10.3984,0.0,9.875,9.5898,9.2851,9.3398,9.375,9.4062,9.8242,10.2109,10.5703,10.7304,10.8984,11.0703,11.1484,11.1914,11.1992,11.289,11.2812,11.2187,11.289,11.3203,11.3203,11.3203,11.3203,11.3203,11.3203,11.3203,11.3203,11.3008,11.3008,11.289,11.2812,11.2695,11.2812,11.289,11.3008,11.3203,11.4101,11.3711,11.3398,11.4101,11.3086,11.2187,11.2304,11.1406,11.0312,10.9218,0.0,0.0,0.0,0.0,0.0,0.0,0.0,0.0,0.0,0.0,0.0,0.0,0.0,0.0,10.9218,10.8593,10.8906,11.0312,11.0508,11.0117,10.9101,10.8711,10.8789,10.9492,11.039,11.1289,11.2187,11.289,11.3203,11.3203,11.2383,11.1992,11.1914,11.1289,11.1015,11.0781,11.0781,11.0703,11.0508,10.9609,10.9492,10.9804,0.0,0.0,0.0,0.0,0.0,0.0,10.3515,10.4687,10.5508,10.5508,10.5781,10.6406,10.7187,10.7695,10.8008,10.8008,10.8008,10.8008,10.8008,10.8008,10.8008,10.8008,10.8008,10.8008,10.8008,10.7187,10.5508,10.289,10.0312,9.7734,9.5234,9.5234,9.5469,9.6054,9.9922,10.3789,10.7383,10.7812,10.8984,11.0703,11.1484,11.1601,11.1289,11.2187,11.2304,11.1992,11.2383,11.2812,11.3203,11.3203,11.3203,11.3203,11.3203,11.3203,11.3203,11.3203,11.3203,11.3203,11.3203,11.3203,11.3203,11.3203,11.3203,11.3281,11.3711,11.3515,11.3281,11.3711,11.3203,11.2383,11.1992,11.0781,10.9883,11.0,0.0,0.0,0.0,0.0,0.0,0.0,0.0,0.0,0.0,0.0,0.0,0.0,0.0,0.0,10.9883,10.9101,10.9297,11.0586,11.1015,11.0586,10.9297,10.8906,10.8906,10.9297,11.0195,11.1093,11.1914,11.2812,11.3008,11.25,11.2109,11.1406,11.0508,11.0117,10.9883,10.9883,10.9883,10.9609,10.9218,10.8789,10.8593,10.8789,0.0,10.0703,0.0,0.0,10.3203,10.3906,10.5,10.5898,10.6289,10.5781,10.5312,10.539,10.6601,10.75,10.8008,10.8008,10.8008,10.8086,10.8281,10.8281,10.8281,10.8281,10.8281,10.8203,10.8008,10.7812,10.6719,10.4492,10.1914,9.9687,9.7969,9.7344,9.7773,9.9219,10.1992,10.5117,10.8281,10.789,10.8789,11.0586,11.1093,11.0898,11.039,11.1289,11.1484,11.1406,11.1797,11.2304,11.3008,11.3086,11.3203,11.3203,11.3203,11.3203,11.3203,11.3203,11.3203,11.3203,11.3203,11.3203,11.3203,11.3203,11.3203,11.3203,11.3203,11.3203,11.3203,11.3203,11.3203,11.2812,11.1601,11.0703,11.0195,11.0312,11.0117,0.0,0.0,0.0,0.0,0.0,0.0,0.0,0.0,0.0,0.0,0.0,0.0,0.0,10.9687,10.9609,10.9883,11.0586,11.1289,11.0898,10.9297,10.9297,10.9218,10.8984,11.0117,11.1015,11.1718,11.25,11.25,11.1914,11.1484,11.0508,10.8984,10.8984,10.8984,10.8984,10.8984,10.8593,10.8008,10.8008,10.8008,10.8203,10.3515,0.0,0.0,10.3008,10.4219,10.5,10.4414,10.5117,10.5781,10.6484,10.7187,10.7383,10.6797,10.75,10.8008,10.8008,10.8008,10.8281,10.9101,10.9218,10.9218,10.9218,10.9218,10.8789,10.8008,10.7187,10.6289,10.539,10.2812,10.0586,9.8867,9.8789,10.0508,10.3594,10.3906,10.6015,10.9101,10.75,10.8281,11.0508,10.9804,10.9492,10.9492,11.039,11.0195,10.9804,11.1289,11.1992,11.2109,11.289,11.3203,11.3203,11.3203,11.3203,11.3203,11.3203,11.3203,11.3203,11.3203,11.3203,11.3203,11.3203,11.3203,11.3203,11.3203,11.3203,11.3203,11.3203,11.3203,11.25,11.0,11.1289,11.2109,10.9804,11.0703,11.1718,0.0,0.0,0.0,0.0,0.0,0.0,0.0,10.6406,0.0,0.0,10.8906,0.0,0.0,10.9218,11.0508,11.0586,11.0703,11.0312,10.9297,10.9297,10.8906,10.8086,10.9804,11.0586,11.0781,11.1601,11.1992,11.1797,11.0195,10.8984,10.8086,10.8086,10.8086,10.8086,10.8086,10.8086,10.8008,10.8008,10.8008,10.8086,10.4219,10.4609,10.5,10.5195,10.539,10.5703,10.6406,10.6289,10.6484,10.7383,10.7304,10.75,10.8203,10.8593,10.8984,10.9492,10.9609,10.9492,10.9297,10.9297,10.9101,10.8515,10.8515,10.8086,10.7187,10.6914,10.6289,10.5508,10.3398,10.1992,10.1406,10.1914,10.3711,10.6484,10.5898,10.6797,10.8515,10.7812,10.8398,10.9804,10.9414,10.9297,10.9297,10.9687,10.9609,10.9414,11.0117,11.1015,11.1992,11.2304,11.2812,11.3203,11.3203,11.3203,11.3203,11.3203,11.3203,11.3203,11.3203,11.3203,11.3203,11.3203,11.3203,11.3203,11.3203,11.3203,11.3203,11.3203,11.2812,11.2304,11.1718,11.1601,11.1601,11.1601,11.1797,11.2109,0.0,0.0,0.0,0.0,0.0,0.0,0.0,0.0,0.0,0.0,0.0,0.0,0.0,10.8515,10.9218,11.1289,11.0898,11.039,11.0117,10.9609,10.8906,10.8008,10.9804,11.0586,11.0586,11.1484,11.1289,11.0312,10.8984,10.8281,10.8008,10.8008,10.8008,10.8008,10.8008,10.8008,10.8008,10.8008,10.8008,10.8008,10.539,10.5781,10.6406,10.6992,10.6406,10.6406,10.8086,10.7383,10.7109,10.8203,10.7617,10.7617,10.9101,10.9492,10.9883,11.0508,11.0586,11.039,11.0117,11.0117,10.9804,10.9218,10.8906,10.8203,10.7109,10.6601,10.6211,10.5898,10.4101,10.3398,10.3711,10.3984,10.539,10.7617,10.6992,10.7304,10.8398,10.8086,10.8515,10.9297,10.8984,10.8906,10.8906,10.8906,10.8906,10.8984,10.9218,11.0117,11.1211,11.1718,11.2304,11.289,11.3086,11.3203,11.3203,11.3203,11.3203,11.3203,11.3203,11.3203,11.3203,11.3203,11.3203,11.3203,11.3203,11.3203,11.3203,11.3203,11.2695,11.2383,11.2812,11.1797,11.1289,11.2304,11.2109,11.1992,11.2383,11.2383,0.0,11.2109,11.25,11.25,11.1992,11.0195,0.0,0.0,0.0,0.0,0.0,0.0,0.0,11.1797,11.0781,11.0195,11.0195,10.9609,10.8906,10.8008,10.9804,11.0586,11.0586,11.1211,11.0586,10.8906,10.8281,10.8008,10.8008,10.8008,10.8008,10.8008,10.8008,10.8008,10.8008,10.8008,10.8008,10.8008,10.8008,10.8008,10.8008,10.8008,10.7304,10.7304,10.8984,10.7812,10.7304,10.9101,10.8515,10.8281,10.9218,11.0117,11.0586,11.0586,11.0586,11.1015,11.1797,11.1914,11.1914,11.1914,11.1015,10.9804,10.8008,10.6406,10.5898,10.6719,10.5,10.4609,10.539,10.4609,10.5117,10.6719,10.6719,10.7695,10.9218,10.8398,10.8515,10.9218,10.8398,10.8008,10.8008,10.8008,10.8008,10.8086,10.8984,10.9297,10.9609,11.1289,11.1914,11.2109,11.289,11.3203,11.3203,11.3203,11.3203,11.3203,11.3203,11.3203,11.3203,11.3203,11.3203,11.3203,11.3203,11.3203,11.3203,11.3203,11.3203,11.289,11.2109,11.1914,11.1601,11.0781,11.1289,11.1601,11.0781,11.0586,11.0312,10.9414,10.7109,10.7304,11.1484,10.8086,0.0,0.0,0.0,0.0,0.0,0.0,0.0,11.1797,11.0195,10.9297,10.9297,10.9297,10.8906,10.8008,10.9804,11.0586,11.0586,11.0586,10.9687,10.8008,10.8008,10.8008,10.8008,10.8008,10.8008,10.8008,10.8008,10.8008,10.8008,10.8008,10.8008,10.8008,10.9804,10.9297,10.9101,10.9687,10.9101,10.8906,11.0,10.9218,10.8906,11.0,10.9414,10.9218,11.0117,10.9883,11.0,11.0508,11.0586,11.0508,11.0117,11.0117,10.9883,10.9297,10.8984,10.8281,10.7109,10.6093,10.5898,10.6719,10.5,10.5195,10.7187,10.5781,10.6289,10.8398,10.7187,10.7304,10.8398,10.8086,10.8203,10.8398,10.8086,10.8008,10.8008,10.8008,10.8008,10.8008,10.8281,10.9218,11.0312,11.0781,11.1797,11.2812,11.3086,11.3203,11.3203,11.3203,11.3203,11.3203,11.3203,11.3203,11.3203,11.3203,11.3203,11.3203,11.3203,11.3203,11.3203,11.3203,11.3203,11.3086,11.2812,11.2812,11.25,11.1601,11.1718,11.1601,11.0703,11.0586,11.0703,11.1015,11.0898,11.1289,11.2695,11.1015,11.0117,0.0,0.0,0.0,0.0,0.0,0.0,11.1015,10.9883,10.9609,11.0195,10.9609,10.8906,10.8008,10.9804,11.0586,11.0586,11.0586,10.9609,10.8008,10.8008,10.8008,10.8008,10.8008,10.8008,10.8008,10.8008,10.8008,10.8008,10.8008,10.8008,10.8008,11.0586,11.0195,11.0,11.0508,11.0117,11.0,11.0508,10.9883,10.9492,11.0,10.9414,10.8984,10.9609,10.9101,10.9297,11.0508,11.0586,11.039,10.9804,10.9804,10.9492,10.8984,10.8711,10.8086,10.7187,10.6406,10.6015,10.6211,10.5195,10.5703,10.75,10.6406,10.7109,10.9218,10.7812,10.7695,10.8515,10.8086,10.8008,10.8008,10.8008,10.8008,10.8008,10.8008,10.8008,10.8008,10.8008,10.8906,11.0195,11.0508,11.1484,11.2812,11.3086,11.3203,11.3203,11.3203,11.3203,11.3203,11.3203,11.3203,11.3203,11.3203,11.3203,11.3203,11.3203,11.3203,11.3203,11.3203,11.3203,11.3203,11.3203,11.289,11.25,11.1992,11.1601,11.1093,11.0195,11.0117,11.0117,11.0,11.039,11.0898,11.1211,11.1289,11.1406,11.1289,0.0,0.0,0.0,10.9218,10.8984,11.0586,10.9804,10.9609,11.0117,10.9218,10.8515,10.8008,10.9804,11.0586,11.0586,11.0586,10.9609,10.8008,10.8008,10.8008,10.8008,10.8008,10.8008,10.8008,10.8008,10.8008,10.8008,10.8008,10.8008,10.8008,11.0781,11.0703,11.0703,11.0781,11.0703,11.0586,11.0703,10.9883,10.9297,10.9297,10.8515,10.8008,10.8008,10.8008,10.8711,11.0312,11.039,11.039,11.039,11.039,11.039,11.039,10.9609,10.8789,10.8008,10.7109,10.6289,10.5586,10.5586,10.6093,10.6797,10.6797,10.7695,10.9218,10.8398,10.8515,10.9218,10.8281,10.8008,10.8008,10.8008,10.8008,10.8008,10.8008,10.8008,10.8008,10.8086,10.8711,10.9492,11.039,11.1289,11.2109,11.289,11.3203,11.3203,11.3203,11.3203,11.3203,11.3203,11.3203,11.3203,11.3203,11.3203,11.3203,11.3203,11.3203,11.3203,11.3203,11.3203,11.3203,11.3203,11.25,11.1992,11.1914,11.1211,11.0312,10.9414,10.9218,10.8593,10.7109,10.6914,10.7187,10.8008,10.9687,11.1601,11.3906,11.4101,11.3789,11.3008,10.8984,10.789,11.039,10.9687,10.9218,10.9297,10.8398,10.8086,10.8203,10.9804,11.0508,11.0586,11.0508,10.9609,10.8086,10.8008,10.8008,10.8086,10.8008,10.8008,10.8008,10.8008,10.8008,10.8008,10.8008,10.8008,10.8008,11.2617,11.1992,11.1797,11.25,11.1484,11.0781,11.1484,11.0312,10.9297,10.9297,10.8515,10.8008,10.8008,10.8008,10.8203,10.8593,10.8593,10.8593,10.8593,10.8593,10.8593,10.8593,10.8398,10.8203,10.8008,10.7109,10.6601,10.6406,10.7109,10.75,10.7695,10.7695,10.789,10.8281,10.8086,10.8086,10.8281,10.8086,10.8008,10.8008,10.8008,10.8008,10.8008,10.8008,10.8008,10.8086,10.8789,10.9609,11.039,11.1289,11.2187,11.289,11.3086,11.3203,11.3203,11.3203,11.3203,11.3203,11.3203,11.3203,11.3203,11.3203,11.3203,11.3203,11.3203,11.3203,11.3203,11.3203,11.3203,11.3203,11.3203,11.3008,11.2695,11.1992,11.1211,11.0312,10.9414,10.8711,10.8398,10.8711,10.8711,10.8789,10.8984,11.0586,11.1015,10.9609,11.0195,11.039,11.0195,10.8593,10.8281,10.9609,10.8789,10.8593,10.9297,10.8398,10.8711,11.0,10.9687,11.0,11.0586,10.9883,10.9414,10.8984,10.8281,10.8398,10.8906,10.8281,10.8008,10.8008,10.8008,10.8008,10.8008,10.8008,10.8008,10.8008,11.3203,11.2812,11.25,11.2617,11.1797,11.1093,11.0781,10.9883,10.9218,10.8789,10.8281,10.8008,10.8008,10.8398,10.8593,10.8593,10.8203,10.8008,10.8008,10.8008,10.8008,10.8008,10.8008,10.8008,10.8008,10.75,10.7109,10.6719,10.7187,10.7617,10.8008,10.8008,10.8398,10.9218,10.8398,10.8203,10.8593,10.8203,10.8008,10.8008,10.8008,10.8008,10.8008,10.8008,10.8008,10.8086,10.8515,10.9492,11.0586,11.0703,11.1601,11.2617,11.2617,11.2617,11.2695,11.3086,11.3203,11.3203,11.3203,11.3203,11.3203,11.3203,11.3203,11.3203,11.3203,11.3203,11.3203,11.3203,11.3203,11.3203,11.3203,11.289,11.25,11.1992,11.1211,11.0312,10.9414,10.8906,10.8789,10.9218,10.9297,10.9297,10.9297,11.0508,11.0703,10.9297,10.9297,10.9492,10.9883,10.8711,10.8398,10.9297,10.8789,10.8593,10.8711,10.8203,10.8906,11.0586,10.9687,10.9804,11.0586,10.9687,10.9101,10.8711,10.8203,10.8281,10.8711,10.8203,10.8008,10.8008,10.8008,10.8008,10.8008,10.8008,10.8008,10.8008,11.3203,11.3203,11.289,11.2109,11.1797,11.1211,10.9492,10.9218,10.8789,10.8086,10.8008,10.8086,10.8203,10.8906,10.9414,10.9492,10.8789,10.8281,10.8203,10.8086,10.8008,10.8008,10.8008,10.8008,10.8008,10.8008,10.7617,10.6914,10.6914,10.7304,10.8008,10.8086,10.8906,11.0117,10.8789,10.8515,10.9101,10.8281,10.8008,10.8008,10.8008,10.8008,10.8007,10.7987,10.7995,10.8008,10.8086,10.9101,11.0312,10.9687,11.0508,11.1718,11.1718,11.1718,11.1797,11.2617,11.2812,11.289,11.3086,11.3203,11.3203,11.3203,11.3203,11.3203,11.3203,11.3203,11.3203,11.3203,11.3203,11.3203,11.3203,11.25,11.1914,11.1718,11.1015,11.0117,10.9414,10.9297,10.9297,10.9492,10.9414,10.9297,10.9297,10.9883,11.0312,11.039,10.9609,10.9492,11.0508,10.8906,10.8398,10.9297,10.9218,10.8711,10.8008,10.8008,10.8789,11.039,10.9492,10.9609,11.039,10.9492,10.8789,10.8203,10.8086,10.8086,10.8203,10.8086,10.8008,10.8008,10.8008,10.8008,10.8008,10.8008,10.8008,10.8008,11.3203,11.3203,11.289,11.2109,11.1289,11.0508,10.9492,10.8711,10.8203,10.8008,10.8008,10.8281,10.8984,10.9218,10.9609,11.0312,11.0312,10.9883,10.9101,10.8398,10.8008,10.8008,10.8008,10.8008,10.8008,10.8008,10.789,10.7812,10.7812,10.789,10.8008,10.8789,10.8789,10.8398,10.8906,10.8789,10.8203,10.8086,10.8008,10.8008,10.8008,10.8008,10.8001,10.7715,10.7811,10.8086,10.8593,10.9101,10.9609,11.0195,11.0586,11.0781,11.0781,11.0781,11.0781,11.1015,11.1015,11.1289,11.2812,11.3203,11.3203,11.3203,11.3203,11.3203,11.3203,11.3203,11.3203,11.3203,11.3203,11.3203,11.3203,11.25,11.1718,11.0898,11.0117,10.9492,10.9297,10.9297,10.9609,11.0312,10.9687,10.9297,10.9297,10.8789,10.8711,10.9414,10.8711,10.8906,11.0508,10.8906,10.8398,10.9297,10.8593,10.8086,10.8008,10.8008,10.8515,10.9492,10.8593,10.8711,10.9492,10.8593,10.8515,10.9101,10.8281,10.8398,10.8984,10.8281,10.8008,10.8008,10.8008,10.8008,10.8008,10.8008,10.8008,10.8008,11.25,11.2109,11.1484,11.0703,11.0195,10.9609,10.8711,10.8281,10.8008,10.8008,10.8008,10.8086,10.8398,10.9414,11.0117,11.039,11.0781,11.0703,10.9804,10.9101,10.8515,10.8008,10.8008,10.8008,10.8008,10.8008,10.8008,10.8008,10.8515,10.8711,10.8711,10.9101,10.9101,10.8711,10.8593,10.8398,10.8008,10.8008,10.8008,10.8005,10.78,10.7805,10.7783,10.753,10.7507,10.7617,10.8021,10.8593,10.9101,10.9218,10.9492,10.9883,10.9883,10.9883,11.0,11.0508,11.0898,11.1484,11.2304,11.2812,11.3203,11.3203,11.3203,11.3203,11.3203,11.3203,11.3203,11.3203,11.3203,11.3203,11.3203,11.25,11.1797,11.1406,11.0586,11.0,11.0,11.0,11.0312,11.1211,11.0898,11.0703,11.0703,10.9883,10.9414,10.9297,10.8515,10.8398,10.9218,10.8398,10.8203,10.8593,10.8203,10.8008,10.8008,10.8008,10.8398,10.9297,10.8398,10.8515,10.9297,10.8398,10.8203,10.8593,10.8203,10.8203,10.8593,10.8203,10.8008,10.8008,10.8008,10.8008,10.8008,10.8008,10.8008,10.8008,11.1484,11.1093,11.0312,10.9492,10.9297,10.9101,10.8398,10.8281,10.8281,10.8281,10.8398,10.8398,10.8203,10.9695,11.0697,11.0703,11.1289,11.1204,11.0188,10.971,10.9018,10.8007,10.8008,10.8008,10.8008,10.8008,10.8008,10.8008,10.8711,10.8984,10.8984,10.8984,10.8984,10.8984,10.8281,10.8008,10.8008,10.8008,10.7995,10.7883,10.7685,10.76,10.7488,10.7212,10.7098,10.722,10.7416,10.8016,10.8515,10.8086,10.8398,10.8984,10.8984,10.8984,10.9101,10.9804,11.0586,11.1406,11.1797,11.2383,11.289,11.3086,11.3203,11.3203,11.3203,11.3203,11.3203,11.3203,11.3203,11.3203,11.3203,11.25,11.1797,11.1601,11.1015,11.0586,11.0586,11.0781,11.1211,11.2109,11.1992,11.1797,11.1601,11.1015,11.0195,10.9101,10.8593,10.8203,10.8008,10.8008,10.8008,10.8008,10.8008,10.8008,10.8008,10.8008,10.8281,10.8984,10.8281,10.8398,10.8984,10.8281,10.8008,10.8008,10.8008,10.8008,10.8008,10.8008,10.8008,10.8008,10.8008,10.8008,10.8008,10.8008,10.8008,10.8008,11.0586,11.0586,11.0312,10.9492,10.9297,10.9297,10.9218,10.9218,10.9218,10.9218,10.9687,11.0,11.0,11.0605,11.1311,11.2105,11.2187,11.1601,10.9919,10.9996,10.9397,10.7694,10.789,10.8008,10.8008,10.8008,10.8008,10.8008,10.8086,10.8086,10.8086,10.8086,10.8086,10.8086,10.8008,10.8008,10.8008,10.8008,10.7908,10.7605,10.7602,10.7523,10.7216,10.6871,10.6986,10.7216,10.722,10.7399,10.7695,10.789,10.8008,10.8086,10.8086,10.8086,10.8086,10.8203,10.8789,10.9804,11.1484,11.1914,11.2187,11.3008,11.3203,11.3203,11.3203,11.3203,11.3203,11.3203,11.3203,11.3203,11.3203,11.25,11.1601,11.0781,11.0586,11.0586,11.0586,11.1289,11.2109,11.3008,11.2383,11.1601,11.0781,11.0586,10.9883,10.8203,10.8789,10.8906,10.8008,10.8008,10.8008,10.8008,10.8008,10.8008,10.8008,10.8008,10.8008,10.8086,10.8008,10.8008,10.8086,10.8008,10.8008,10.8008,10.8008,10.8008,10.8008,10.8008,10.8008,10.8008,10.8008,10.8008,10.8008,10.8008,10.8008,10.8008,10.9997,10.9218,10.8593,10.8789,10.8789,10.8789,10.8789,10.9218,10.9218,10.8086,10.9101,10.9409,10.8193,10.9796,11.0921,11.0496,11.1016,11.0794,10.9598,10.9098,10.8627,10.7889,10.789,10.8008,10.8008,10.8008,10.8008,10.8008,10.8008,10.8008,10.8008,10.8008,10.8008,10.8008,10.8008,10.8008,10.8007,10.781,10.7711,10.76,10.7175,10.6982,10.6905,10.6713,10.6597,10.6713,10.6905,10.7125,10.7415,10.7686,10.789,10.8008,10.8008,10.8008,10.8008,10.8008,10.8203,10.8789,11.0,11.1093,11.2109,11.3008,11.3203,11.3203,11.3203,11.3203,11.3203,11.3203,11.3203,11.3203,11.3203,11.289,11.2383,11.1484,11.1406,11.1406,11.1406,11.1718,11.1992,11.2383,11.2109,11.1601,11.0703,11.0117,10.9492,10.8906,10.8593,10.8281,10.8008,10.8008,10.8008,10.8008,10.8008,10.8008,10.8008,10.8008,10.8008,10.8008,10.8008,10.8008,10.8008,10.8008,10.8008,10.8008,10.8008,10.8008,10.8008,10.8008,10.8008,10.8008,10.8008,10.8008,10.8008,10.8008,10.8008,10.8008,10.9405,10.8588,10.8081,10.8393,10.8692,10.9004,10.9199,10.9797,10.968,10.8497,10.9602,10.9796,10.8218,10.9902,11.0906,11.0094,11.0286,11.0094,10.9286,10.829,10.7707,10.7889,10.789,10.789,10.789,10.789,10.789,10.789,10.789,10.789,10.8008,10.8008,10.8008,10.8008,10.8008,10.7987,10.7898,10.7691,10.7523,10.729,10.6905,10.6713,10.6713,10.6521,10.6405,10.6405,10.6713,10.6898,10.7091,10.7502,10.7695,10.789,10.8008,10.8008,10.8008,10.8008,10.8008,10.8203,10.9101,11.0195,11.1289,11.2187,11.2617,11.2812,11.2812,11.3008,11.3203,11.3203,11.3203,11.3203,11.3203,11.3203,11.3008,11.2383,11.2304,11.2187,11.1914,11.1914,11.1797,11.1484,11.1484,11.1093,11.0312,10.9883,10.9492,10.8906,10.8593,10.8281,10.8008,10.8008,10.8008,10.8008,10.8008,10.8008,10.8008,10.8008,10.8008,10.8008,10.8008,10.8008,10.8008,10.8008,10.8008,10.8008,10.8008,10.8008,10.8008,10.8008,10.8008,10.8008,10.8008,10.8008,10.8008,10.8008,10.8008,10.8008,10.8601,10.9219,10.9412,10.8678,10.9213,11.0017,11.0863,11.1029,11.099,11.1021,11.1491,11.1609,11.0714,11.1106,11.1491,11.1483,11.0671,10.9829,10.887,10.76,10.7009,10.7615,10.7617,10.7617,10.7617,10.7617,10.7617,10.7617,10.7617,10.7695,10.8008,10.8008,10.8008,10.8008,10.8008,10.7815,10.76,10.76,10.729,10.679,10.679,10.6597,10.6405,10.6405,10.6405,10.6405,10.6713,10.679,10.6909,10.7407,10.7617,10.7617,10.789,10.8008,10.8008,10.8008,10.8008,10.8203,10.9101,10.9297,10.9492,11.039,11.1289,11.1914,11.1914,11.2617,11.3203,11.3203,11.3203,11.3203,11.3203,11.3203,11.3203,11.3203,11.3203,11.289,11.1992,11.1914,11.1601,11.0703,11.0586,11.0195,10.9414,11.0117,10.9883,10.8086,10.8789,10.8906,10.8008,10.8008,10.8008,10.8008,10.8008,10.8008,10.8008,10.8008,10.8008,10.8008,10.8008,10.8008,10.8008,10.8008,10.8008,10.8008,10.8008,10.8008,10.8008,10.8008,10.8008,10.8008,10.8008,10.8008,10.8008,10.8008,10.8008,10.8008,10.9713,10.9409,10.9294,10.9598,10.9902,11.0094,11.0402,11.0983,11.0906,10.9709,11.0714,11.1098,10.9633,11.0714,11.1333,11.0594,11.0402,10.9637,10.8216,10.7098,10.6679,10.698,10.7202,10.7304,10.7304,10.7305,10.7319,10.7319,10.7495,10.7617,10.7695,10.789,10.8008,10.8007,10.7811,10.7697,10.76,10.7175,10.6905,10.679,10.6597,10.6521,10.6405,10.6405,10.6405,10.6405,10.6521,10.6597,10.6834,10.6982,10.7293,10.7617,10.789,10.8008,10.8008,10.8008,10.8008,10.8086,10.8281,10.8398,10.8711,11.0195,11.0781,11.1093,11.1797,11.2109,11.25,11.3086,11.3203,11.3203,11.3203,11.3203,11.3203,11.3203,11.3203,11.3086,11.2812,11.2304,11.1601,11.0703,11.0117,10.9297,10.8515,10.8593,10.8593,10.8008,10.8203,10.8281,10.8008,10.8008,10.8008,10.8008,10.8008,10.8008,10.8008,10.8008,10.8008,10.8008,10.8008,10.8008,10.8008,10.8008,10.8008,10.8008,10.8008,10.8008,10.8008,10.8008,10.8008,10.8008,10.8008,10.8008,10.8008,10.8008,10.8008,10.8008,11.0286,11.0098,11.0025,11.0209,11.0479,11.0671,11.0671,11.1214,11.1137,11.0094,11.0786,11.1137,11.0017,11.0863,11.1329,11.0786,11.0094,10.9094,10.7831,10.6905,10.6521,10.6597,10.6808,10.6887,10.7004,10.7028,10.6982,10.6982,10.7299,10.7504,10.7617,10.789,10.8008,10.8007,10.7707,10.7523,10.7408,10.6982,10.6713,10.6597,10.6521,10.6405,10.6405,10.6405,10.6405,10.6405,10.6405,10.6521,10.6713,10.679,10.7199,10.7617,10.789,10.8008,10.8008,10.8008,10.8008,10.8008,10.8008,10.8008,10.8281,10.9297,10.9804,11.0195,11.0781,11.1406,11.1992,11.2617,11.3008,11.3203,11.3203,11.3203,11.3203,11.3203,11.289,11.2617,11.2187,11.1406,11.0508,10.9687,10.9101,10.8593,10.8086,10.8008,10.8008,10.8008,10.8008,10.8008,10.8008,10.8008,10.8008,10.8008,10.8008,10.8008,10.8008,10.8008,10.8008,10.8008,10.8008,10.8008,10.8008,10.8008,10.8008,10.8008,10.8008,10.8008,10.8008,10.8008,10.8008,10.8008,10.8008,10.8008,10.8008,10.8008,10.8008,10.8008,11.0479,11.0978,11.1214,11.0479,11.0978,11.1522,11.1522,11.1522,11.1522,11.1522,11.1522,11.1522,11.1522,11.1522,11.1522,11.1522,10.9902,10.8594,10.7908,10.6905,10.6405,10.6405,10.6405,10.6521,10.679,10.679,10.679,10.679,10.6982,10.7286,10.7617,10.7812,10.8008,10.8007,10.7713,10.7411,10.7175,10.6905,10.6597,10.6405,10.6405,10.6405,10.6405,10.6405,10.6405,10.6405,10.6405,10.6405,10.6405,10.6713,10.7192,10.7615,10.789,10.8008,10.8008,10.8008,10.8008,10.8008,10.8008,10.8008,10.8008,10.8008,10.8593,10.9218,10.9297,11.0586,11.1797,11.1914,11.2617,11.3203,11.3203,11.3086,11.3086,11.3086,11.2383,11.1484,11.0703,10.9804,10.8984,10.8203,10.8008,10.8008,10.8008,10.8008,10.8008,10.8008,10.8008,10.8008,10.8008,10.8008,10.8008,10.8008,10.8008,10.8008,10.8008,10.8008,10.8008,10.8008,10.8008,10.8008,10.8008,10.8008,10.8008,10.8008,10.8008,10.8008,10.8008,10.8008,10.8008,10.8008,10.8008,10.8008,10.8008,10.8008,10.8008,10.8008,11.1329,11.1406,11.1406,11.1329,11.1406,11.1522,11.1522,11.1522,11.1522,11.1522,11.1522,11.1522,11.1522,11.1522,11.1522,11.1522,10.9902,10.8787,10.8678,10.7175,10.6405,10.6405,10.6405,10.6405,10.6521,10.6521,10.6521,10.6521,10.679,10.6976,10.7304,10.7617,10.7812,10.8007,10.7516,10.7316,10.7175,10.6713,10.6521,10.6405,10.6405,10.6405,10.6405,10.6405,10.6405,10.6405,10.6405,10.6405,10.6521,10.6982,10.7222,10.7377,10.78,10.8008,10.8008,10.8008,10.8008,10.8008,10.8008,10.8008,10.8008,10.8008,10.8086,10.8515,10.9101,11.0117,11.1093,11.1797,11.2617,11.3203,11.3203,11.2617,11.2187,11.2187,11.1484,11.0781,11.0586,10.9804,10.9218,10.8984,10.8398,10.8008,10.8008,10.8008,10.8008,10.8008,10.8008,10.8008,10.8008,10.8008,10.8008,10.8008,10.8008,10.8008,10.8008,10.8008,10.8008,10.8008,10.8008,10.8008,10.8008,10.8008,10.8008,10.8008,10.8008,10.8008,10.8008,10.8008,10.8008,10.8008,10.8008,10.8008,10.8008,10.8008,10.8008,10.8008,11.1522,11.1522,11.1522,11.1522,11.1522,11.1522,11.1522,11.1522,11.1522,11.1522,11.1522,11.1522,11.1522,11.1522,11.1522,11.1522,10.9902,10.8902,10.887,10.729,10.6405,10.6405,10.6405,10.6405,10.6405,10.6405,10.6405,10.6405,10.6713,10.689,10.7014,10.7307,10.75,10.7617,10.7182,10.6998,10.6982,10.6597,10.6405,10.6405,10.6405,10.6405,10.6405,10.6405,10.6405,10.6405,10.6405,10.6405,10.6521,10.6905,10.7098,10.7303,10.7718,10.789,10.8008,10.8008,10.8008,10.8008,10.8008,10.8008,10.8008,10.8008,10.8008,10.8086,10.8593,10.9414,11.0195,11.1093,11.1992,11.2695,11.3086,11.25,11.1914,11.1914,11.0781,11.0,11.0,10.9218,10.8711,10.8711,10.8281,10.8008,10.8008,10.8008,10.8008,10.8008,10.8008,10.8008,10.8008,10.8008,10.8008,10.8008,10.8008,10.8008,10.8008,10.8008,10.8008,10.8008,10.8008,10.8008,10.8008,10.8008,10.8008,10.8008,10.8398,10.8398,10.8008,10.8398,10.8398,10.8008,10.8008,10.8008,10.8008,10.8008,10.8008,10.8008,11.1522,11.1522,11.1522,11.1522,11.1522,11.1522,11.1522,11.1522,11.1522,11.1522,11.1406,11.1329,11.1522,11.1522,11.1406,11.1137,10.9709,10.8787,10.8678,10.729,10.6405,10.6405,10.6405,10.6405,10.6405,10.6405,10.6405,10.6405,10.6597,10.679,10.6792,10.6992,10.7215,10.7208,10.6916,10.6804,10.679,10.6521,10.6405,10.6405,10.6405,10.6405,10.6405,10.6405,10.6405,10.6405,10.6405,10.6405,10.6405,10.6713,10.7001,10.7226,10.7513,10.7812,10.8008,10.8008,10.8008,10.8008,10.8008,10.8008,10.8008,10.8008,10.8008,10.8008,10.8008,10.8711,10.9492,11.0195,11.1093,11.1914,11.2617,11.1992,11.1484,11.1484,11.0117,10.9101,10.9101,10.8515,10.8008,10.8008,10.8008,10.8008,10.8008,10.8008,10.8008,10.8008,10.8008,10.8008,10.8008,10.8008,10.8008,10.8008,10.8008,10.8008,10.8008,10.8008,10.8008,10.8008,10.8008,10.8008,10.8008,10.8008,10.8008,10.8008,10.8789,10.8711,10.8086,10.8789,10.8711,10.8008,10.8008,10.8008,10.8008,10.8008,10.8008,10.8008,11.1522,11.1522,11.1522,11.1522,11.1522,11.1522,11.1522,11.1522,11.1522,11.1522,11.0786,11.0671,11.1406,11.1522,11.0863,10.9397,10.9013,10.8594,10.7908,10.6905,10.6405,10.6405,10.6405,10.6405,10.6405,10.6405,10.6405,10.6405,10.6405,10.6597,10.679,10.6795,10.7018,10.7211,10.6911,10.6795,10.679,10.6521,10.6405,10.6405,10.6405,10.6405,10.6405,10.6405,10.6405,10.6405,10.6405,10.6405,10.6405,10.6713,10.7026,10.7199,10.7512,10.7812,10.8008,10.8008,10.8008,10.8008,10.8008,10.8008,10.8008,10.8008,10.8008,10.8008,10.8008,10.8711,10.9297,10.9492,11.0195,11.0781,11.0898,11.0195,10.9687,10.9687,10.8789,10.8203,10.8203,10.8086,10.8008,10.8008,10.8008,10.8008,10.8008,10.8008,10.8008,10.8008,10.8008,10.8008,10.8008,10.8008,10.8008,10.8008,10.8008,10.8008,10.8008,10.8008,10.8008,10.8008,10.8008,10.8008,10.8008,10.8008,10.8008,10.8008,10.8086,10.8086,10.8008,10.8086,10.8086,10.8008,10.8008,10.8008,10.8008,10.8008,10.8008,10.8008,11.1522,11.1522,11.1522,11.1522,11.1522,11.1522,11.1522,11.1522,11.1329,11.0786,11.0402,11.0329,11.0679,11.0794,11.0291,10.8975,10.8517,10.8098,10.7716,10.6905,10.6405,10.6405,10.6405,10.6405,10.6405,10.6405,10.6405,10.6405,10.6405,10.6521,10.6597,10.6597,10.6597,10.6713,10.6597,10.6597,10.6597,10.6521,10.6405,10.6405,10.6405,10.6405,10.6405,10.6405,10.6405,10.6405,10.6405,10.6405,10.6405,10.6521,10.679,10.6988,10.7303,10.7619,10.7812,10.8008,10.8008,10.8008,10.8008,10.8008,10.8008,10.8008,10.8008,10.8008,10.8008,10.8281,10.8711,10.9218,10.9609,11.0,11.0508,10.9883,10.9297,10.9297,10.8593,10.8008,10.8008,10.8008,10.8008,10.8008,10.8008,10.8008,10.8008,10.8008,10.8008,10.8008,10.8008,10.8008,10.8008,10.8008,10.8008,10.8008,10.8008,10.8008,10.8008,10.8008,10.8008,10.8008,10.8008,10.8008,10.8008,10.8008,10.8008,10.8008,10.8515,10.8398,10.8086,10.9101,10.8906,10.8086,10.9101,10.9218,10.8711,10.8711,10.8398,10.8008]},{"header":{"parameterUnit":"m.s-1","parameterCategory":1,"la1":30.6,"la2":28.766,"lo1":-90.7593,"lo2":-88.6598,"dx":0.0162,"dy":0.0183,"nx":116,"ny":114,"refTime":"2022-11-11T18:00:00:Z","depth":0,"parameterNumber":3,"parameterNumberName":"V-component_of_WINDS"},"data":[0.0,0.0,0.0,0.0,0.0,0.0,0.0,0.0,0.0,0.0,0.0,0.0,0.0,0.0,0.0,0.0,0.0,0.0,0.0,0.0,0.0,0.0,0.0,0.0,0.0,0.0,0.0,0.0,0.0,0.0,0.0,0.0,0.0,0.0,0.0,0.0,0.0,0.0,0.0,0.0,0.0,0.0,0.0,0.0,0.0,0.0,0.0,0.0,0.0,0.0,0.0,0.0,0.0,0.0,0.0,0.0,0.0,0.0,0.0,0.0,0.0,0.0,0.0,0.0,0.0,0.0,0.0,0.0,0.0,0.0,0.0,0.0,0.0,0.0,0.0,0.0,0.0,0.0,0.0,0.0,0.0,0.0,0.0,0.0,0.0,0.0,0.0,0.0,0.0,0.0,0.0,0.0,0.0,0.0,0.0,0.0,0.0,0.0,0.0,0.0,0.0,0.0,0.0,0.0,0.0,0.0,0.0,0.0,0.0,0.0,0.0,0.0,0.0,0.0,0.0,0.0,0.0,0.0,0.0,0.0,0.0,0.0,0.0,0.0,0.0,0.0,0.0,0.0,0.0,0.0,0.0,0.0,0.0,0.0,0.0,0.0,0.0,0.0,0.0,0.0,0.0,0.0,0.0,0.0,0.0,0.0,0.0,0.0,0.0,0.0,0.0,0.0,0.0,0.0,0.0,0.0,0.0,0.0,0.0,0.0,0.0,0.0,0.0,0.0,0.0,0.0,0.0,0.0,0.0,0.0,0.0,0.0,0.0,0.0,0.0,0.0,0.0,0.0,0.0,0.0,0.0,0.0,0.0,0.0,0.0,0.0,0.0,0.0,0.0,0.0,0.0,0.0,0.0,0.0,0.0,0.0,0.0,0.0,0.0,0.0,0.0,0.0,0.0,0.0,0.0,0.0,0.0,0.0,0.0,0.0,0.0,0.0,0.0,0.0,0.0,0.0,0.0,0.0,0.0,0.0,0.0,0.0,0.0,0.0,0.0,0.0,0.0,0.0,0.0,0.0,0.0,0.0,0.0,0.0,0.0,0.0,0.0,0.0,0.0,0.0,0.0,0.0,0.0,0.0,0.0,0.0,0.0,0.0,0.0,0.0,0.0,0.0,0.0,0.0,0.0,0.0,0.0,0.0,0.0,0.0,0.0,0.0,0.0,0.0,0.0,0.0,0.0,0.0,0.0,0.0,0.0,0.0,0.0,0.0,0.0,0.0,0.0,0.0,0.0,0.0,0.0,0.0,0.0,0.0,0.0,0.0,0.0,0.0,0.0,0.0,0.0,0.0,0.0,0.0,0.0,0.0,0.0,0.0,0.0,0.0,0.0,0.0,0.0,0.0,0.0,0.0,0.0,0.0,0.0,0.0,0.0,0.0,0.0,0.0,0.0,0.0,0.0,0.0,0.0,0.0,0.0,0.0,0.0,0.0,0.0,0.0,0.0,0.0,0.0,0.0,0.0,0.0,0.0,0.0,0.0,0.0,0.0,0.0,0.0,0.0,0.0,0.0,0.0,0.0,0.0,0.0,0.0,0.0,0.0,0.0,0.0,0.0,0.0,0.0,0.0,0.0,0.0,0.0,0.0,0.0,0.0,0.0,0.0,0.0,0.0,0.0,0.0,0.0,0.0,0.0,0.0,0.0,0.0,0.0,0.0,0.0,0.0,0.0,0.0,0.0,0.0,0.0,0.0,0.0,0.0,0.0,0.0,0.0,0.0,0.0,0.0,0.0,0.0,0.0,0.0,0.0,0.0,0.0,0.0,0.0,0.0,0.0,0.0,0.0,0.0,0.0,0.0,0.0,0.0,0.0,0.0,0.0,0.0,0.0,0.0,0.0,0.0,0.0,0.0,0.0,0.0,0.0,0.0,0.0,0.0,0.0,0.0,0.0,0.0,0.0,0.0,0.0,0.0,0.0,0.0,0.0,0.0,0.0,0.0,0.0,0.0,0.0,0.0,0.0,0.0,0.0,0.0,0.0,0.0,0.0,0.0,0.0,0.0,0.0,0.0,0.0,0.0,0.0,0.0,0.0,0.0,0.0,0.0,0.0,0.0,0.0,0.0,0.0,0.0,0.0,0.0,0.0,0.0,0.0,0.0,0.0,0.0,0.0,0.0,0.0,0.0,0.0,0.0,0.0,0.0,0.0,0.0,0.0,0.0,0.0,0.0,0.0,0.0,0.0,0.0,0.0,0.0,0.0,0.0,0.0,0.0,0.0,0.0,0.0,0.0,0.0,0.0,0.0,0.0,0.0,0.0,0.0,0.0,0.0,0.0,0.0,0.0,0.0,0.0,0.0,0.0,0.0,0.0,0.0,0.0,0.0,0.0,0.0,0.0,0.0,0.0,0.0,0.0,0.0,0.0,0.0,0.0,0.0,0.0,0.0,0.0,0.0,0.0,0.0,0.0,0.0,0.0,0.0,0.0,0.0,0.0,0.0,0.0,0.0,0.0,0.0,0.0,0.0,0.0,0.0,0.0,0.0,0.0,0.0,0.0,0.0,0.0,0.0,0.0,0.0,0.0,0.0,0.0,0.0,0.0,0.0,0.0,0.0,0.0,0.0,0.0,0.0,0.0,0.0,0.0,0.0,0.0,0.0,0.0,0.0,0.0,0.0,0.0,0.0,0.0,0.0,0.0,0.0,0.0,0.0,0.0,0.0,0.0,0.0,0.0,0.0,0.0,0.0,0.0,0.0,0.0,0.0,0.0,0.0,0.0,0.0,0.0,0.0,0.0,0.0,0.0,0.0,0.0,0.0,0.0,0.0,0.0,0.0,0.0,0.0,0.0,0.0,0.0,0.0,0.0,0.0,0.0,0.0,0.0,0.0,0.0,0.0,0.0,0.0,0.0,0.0,0.0,0.0,0.0,0.0,0.0,0.0,0.0,0.0,0.0,0.0,0.0,0.0,0.0,0.0,0.0,0.0,0.0,0.0,0.0,0.0,0.0,0.0,0.0,0.0,0.0,0.0,0.0,0.0,0.0,0.0,0.0,0.0,0.0,0.0,0.0,0.0,0.0,0.0,0.0,0.0,0.0,0.0,0.0,0.0,0.0,0.0,0.0,0.0,0.0,0.0,0.0,0.0,0.0,0.0,0.0,0.0,0.0,0.0,0.0,0.0,0.0,0.0,0.0,0.0,0.0,0.0,0.0,0.0,0.0,0.0,0.0,0.0,0.0,0.0,0.0,0.0,0.0,0.0,0.0,0.0,0.0,0.0,0.0,0.0,0.0,0.0,0.0,0.0,0.0,0.0,0.0,0.0,0.0,0.0,0.0,0.0,0.0,0.0,0.0,0.0,0.0,0.0,0.0,0.0,0.0,0.0,0.0,0.0,0.0,0.0,0.0,0.0,0.0,0.0,0.0,0.0,0.0,0.0,0.0,0.0,0.0,0.0,0.0,0.0,0.0,0.0,0.0,0.0,0.0,0.0,0.0,0.0,0.0,0.0,0.0,0.0,0.0,0.0,0.0,0.0,0.0,0.0,0.0,0.0,0.0,0.0,0.0,0.0,0.0,0.0,0.0,0.0,0.0,0.0,0.0,0.0,0.0,0.0,0.0,0.0,0.0,0.0,0.0,0.0,0.0,0.0,0.0,0.0,0.0,0.0,0.0,0.0,0.0,0.0,0.0,0.0,0.0,0.0,0.0,0.0,0.0,0.0,0.0,0.0,0.0,0.0,0.0,0.0,0.0,0.0,0.0,0.0,0.0,0.0,0.0,0.0,0.0,0.0,0.0,0.0,0.0,0.0,0.0,0.0,0.0,0.0,0.0,0.0,0.0,0.0,0.0,0.0,0.0,0.0,0.0,0.0,0.0,0.0,0.0,0.0,0.0,0.0,0.0,0.0,0.0,0.0,0.0,0.0,0.0,0.0,0.0,0.0,0.0,0.0,0.0,0.0,0.0,0.0,0.0,0.0,0.0,0.0,0.0,0.0,0.0,0.0,0.0,0.0,0.0,0.0,0.0,0.0,0.0,0.0,0.0,0.0,0.0,0.0,0.0,0.0,0.0,0.0,0.0,0.0,0.0,0.0,0.0,0.0,0.0,0.0,0.0,0.0,0.0,0.0,0.0,0.0,0.0,0.0,0.0,0.0,0.0,0.0,0.0,0.0,0.0,0.0,0.0,0.0,0.0,0.0,0.0,0.0,0.0,0.0,0.0,0.0,0.0,0.0,0.0,0.0,0.0,0.0,0.0,0.0,0.0,0.0,0.0,0.0,0.0,0.0,0.0,0.0,0.0,0.0,0.0,0.0,0.0,0.0,0.0,0.0,0.0,0.0,0.0,0.0,0.0,0.0,0.0,0.0,0.0,0.0,0.0,0.0,0.0,0.0,0.0,0.0,0.0,0.0,0.0,0.0,0.0,0.0,0.0,0.0,0.0,0.0,0.0,0.0,0.0,0.0,0.0,0.0,0.0,0.0,0.0,0.0,0.0,0.0,0.0,0.0,0.0,0.0,0.0,0.0,0.0,0.0,0.0,0.0,0.0,0.0,0.0,0.0,0.0,0.0,0.0,0.0,0.0,0.0,0.0,0.0,0.0,0.0,0.0,0.0,0.0,0.0,0.0,0.0,0.0,0.0,0.0,0.0,0.0,0.0,0.0,0.0,0.0,0.0,0.0,0.0,0.0,0.0,0.0,0.0,0.0,0.0,0.0,0.0,0.0,0.0,0.0,0.0,0.0,0.0,0.0,0.0,0.0,0.0,0.0,0.0,0.0,0.0,0.0,0.0,0.0,0.0,0.0,0.0,0.0,0.0,0.0,0.0,0.0,0.0,0.0,0.0,0.0,0.0,0.0,0.0,0.0,0.0,0.0,0.0,0.0,0.0,0.0,0.0,0.0,0.0,0.0,0.0,0.0,0.0,0.0,0.0,0.0,0.0,0.0,0.0,0.0,0.0,0.0,0.0,0.0,0.0,0.0,0.0,0.0,0.0,0.0,0.0,0.0,0.0,0.0,0.0,0.0,0.0,0.0,0.0,0.0,0.0,0.0,0.0,0.0,0.0,0.0,0.0,0.0,0.0,0.0,0.0,0.0,0.0,0.0,0.0,0.0,0.0,0.0,0.0,0.0,0.0,0.0,0.0,0.0,0.0,0.0,0.0,0.0,0.0,0.0,0.0,0.0,0.0,0.0,0.0,0.0,0.0,0.0,0.0,0.0,0.0,0.0,0.0,0.0,0.0,0.0,0.0,0.0,0.0,0.0,0.0,0.0,0.0,0.0,0.0,0.0,0.0,0.0,0.0,0.0,0.0,0.0,0.0,0.0,0.0,0.0,0.0,0.0,0.0,0.0,0.0,0.0,0.0,0.0,0.0,0.0,0.0,0.0,0.0,0.0,0.0,0.0,0.0,0.0,0.0,0.0,0.0,0.0,0.0,0.0,0.0,0.0,0.0,0.0,0.0,0.0,0.0,0.0,0.0,0.0,0.0,0.0,0.0,0.0,0.0,0.0,0.0,0.0,0.0,0.0,0.0,0.0,0.0,0.0,0.0,0.0,0.0,0.0,0.0,0.0,0.0,0.0,0.0,0.0,0.0,0.0,0.0,0.0,0.0,0.0,0.0,0.0,0.0,0.0,0.0,0.0,0.0,0.0,0.0,0.0,0.0,0.0,0.0,0.0,0.0,0.0,0.0,0.0,0.0,0.0,0.0,0.0,0.0,0.0,0.0,0.0,0.0,0.0,0.0,0.0,0.0,0.0,0.0,0.0,0.0,0.0,0.0,0.0,0.0,0.0,0.0,0.0,0.0,0.0,0.0,0.0,0.0,0.0,0.0,0.0,0.0,0.0,0.0,0.0,0.0,0.0,0.0,0.0,0.0,0.0,0.0,0.0,0.0,0.0,0.0,0.0,0.0,0.0,0.0,0.0,0.0,0.0,0.0,0.0,0.0,0.0,0.0,0.0,0.0,0.0,0.0,0.0,0.0,0.0,0.0,0.0,0.0,0.0,0.0,0.0,0.0,0.0,0.0,0.0,0.0,0.0,0.0,0.0,0.0,0.0,0.0,0.0,0.0,0.0,0.0,0.0,0.0,0.0,0.0,0.0,0.0,0.0,0.0,0.0,0.0,0.0,0.0,0.0,0.0,0.0,0.0,0.0,0.0,-0.2435,0.0,0.0,0.0,0.0,0.0,0.0,0.0,0.0,0.0,0.0,0.0,0.0,0.0,0.0,0.0,0.0,0.0,0.0,0.0,0.0,0.0,0.0,0.0,0.0,0.0,0.0,0.0,0.0,0.0,0.0,0.0,0.0,0.0,0.0,0.0,0.0,0.0,0.0,0.0,0.0,0.0,0.0,0.0,0.0,0.0,0.0,0.0,0.0,0.0,0.0,0.0,0.0,0.0,0.0,0.0,0.0,0.0,0.0,0.0,0.0,0.0,0.0,0.0,0.0,0.0,0.0,0.0,0.0,0.0,0.0,0.0,0.0,0.0,0.0,0.0,0.0,0.0,0.0,0.0,0.0,0.0,0.0,0.0,0.0,0.0,0.0,0.0,0.0,0.0,0.0,0.0,0.0,0.0,0.0,0.0,0.0,0.0,0.0,0.0,0.0,0.0,0.0,0.0,0.0,0.0,0.0,0.0,0.0,0.0,0.0,0.0,0.0,0.0,0.0,0.0,-0.3116,0.0,0.0,0.0,0.0,0.0,0.0,0.0,0.0,0.0,0.0,0.0,0.0,0.0,0.0,0.0,0.0,0.0,0.0,0.0,0.0,0.0,0.0,0.0,0.0,0.0,0.0,0.0,0.0,0.0,0.0,0.0,0.0,0.0,0.0,0.0,0.0,0.0,0.0,0.0,0.0,0.0,0.0,0.0,0.0,0.0,0.0,0.0,0.0,0.0,0.0,0.0,0.0,0.0,0.0,0.0,0.0,0.0,0.0,0.0,0.0,0.0,0.0,0.0,0.0,0.0,0.0,0.0,0.0,0.0,0.0,0.0,0.0,0.0,0.0,0.0,0.0,0.0,0.0,0.0,0.0,0.0,0.0,0.0,0.0,0.0,0.0,0.0,0.0,0.0,0.0,0.0,0.0,0.0,0.0,0.0,0.0,0.0,0.0,0.0,0.0,0.0,0.0,0.0,0.0,0.0,0.0,0.0,0.0,0.0,-0.0853,-0.3147,-0.8782,-0.8765,-0.8754,-0.845,-0.2551,0.0,0.0,0.0,0.0,0.0,0.0,0.0,0.0,0.0,0.0,0.0,0.0,0.0,0.0,0.0,0.0,0.0,0.0,0.0,0.0,0.0,0.0,0.0,0.0,0.0,0.0,0.0,0.0,0.0,0.0,0.0,0.0,0.0,0.0,0.0,0.0,0.0,0.0,0.0,0.0,0.0,0.0,0.0,0.0,0.0,0.0,0.0,0.0,0.0,0.0,0.0,0.0,0.0,0.0,0.0,0.0,0.0,0.0,0.0,0.0,0.0,0.0,0.0,0.0,0.0,0.0,0.0,0.0,0.0,0.0,0.0,0.0,0.0,0.0,0.0,0.0,0.0,0.0,0.0,0.0,0.0,0.0,0.0,0.0,0.0,0.0,0.0,0.0,0.0,-1.2197,-1.0587,0.0,0.0,0.0,0.0,0.0,0.0,0.0,0.0,0.0,0.0,0.0,0.0,0.0,-1.4109,-1.4784,-1.4819,-1.4421,-1.3852,-0.4463,-0.0594,-0.1404,-0.1393,-0.1398,-0.1414,-0.0395,0.0,0.0,0.0,0.0,0.0,0.0,0.0,0.0,0.0,0.0,0.0,0.0,0.0,0.0,0.0,0.0,0.0,0.0,0.0,0.0,0.0,0.0,0.0,0.0,0.0,0.0,0.0,0.0,0.0,0.0,0.0,0.0,0.0,0.0,0.0,0.0,0.0,0.0,0.0,0.0,0.0,0.0,0.0,0.0,0.0,0.0,0.0,0.0,0.0,0.0,0.0,0.0,0.0,0.0,0.0,0.0,0.0,0.0,0.0,0.0,0.0,0.0,0.0,0.0,0.0,0.0,0.0,0.0,0.0,0.0,0.0,0.0,0.0,0.0,0.0,0.0,0.0,0.0,0.0,0.0,0.0,0.0,0.0,0.0,0.0,0.0,0.0,0.0,-1.3165,-1.3946,-1.2928,-1.2742,-1.2073,0.0,0.0,0.0,0.0,0.0,0.0,0.0,0.0,0.0,-1.3673,-1.4792,-1.5668,-1.6301,-1.6245,-1.6293,-1.6494,-0.533,0.0,0.0,0.0,0.0,0.0,0.0,0.0,0.0,0.0,0.0,0.0,0.0,0.0,0.0,0.0,-0.209,-0.4576,0.0,0.0,0.0,0.0,0.0,0.0,0.0,0.0,0.0,0.0,0.0,0.0,0.0,0.0,0.0,0.0,0.0,0.0,0.0,0.0,0.0,0.0,0.0,0.0,0.0,0.0,0.0,0.0,0.0,0.0,0.0,0.0,0.0,0.0,0.0,0.0,0.0,0.0,0.0,0.0,0.0,0.0,0.0,0.0,0.0,0.0,0.0,0.0,0.0,0.0,0.0,0.0,0.0,0.0,0.0,0.0,0.0,0.0,0.0,0.0,0.0,0.0,0.0,0.0,0.0,0.0,0.0,0.0,0.0,0.0,0.0,0.0,0.0,0.0,0.0,0.0,0.0,-1.3945,-1.4742,-1.4495,-1.4102,-1.3029,0.0,0.0,0.0,0.0,0.0,0.0,-1.3398,-1.4729,-1.5374,-1.5491,-1.3198,-1.2292,-1.2651,-1.2574,-1.26,-1.2538,-0.4029,0.0,0.0,0.0,0.0,0.0,0.0,0.0,0.0,0.0,0.0,0.0,0.0,0.0,0.0,0.0,0.0,0.0,0.0,0.0,0.0,0.0,0.0,0.0,0.0,0.0,0.0,0.0,0.0,0.0,0.0,0.0,0.0,0.0,0.0,0.0,0.0,0.0,0.0,0.0,0.0,0.0,0.0,0.0,0.0,0.0,0.0,0.0,0.0,0.0,0.0,0.0,0.0,0.0,0.0,0.0,0.0,0.0,0.0,0.0,0.0,0.0,0.0,0.0,0.0,0.0,0.0,0.0,0.0,0.0,0.0,0.0,0.0,0.0,0.0,0.0,0.0,0.0,0.0,0.0,0.0,0.0,0.0,0.0,0.0,0.0,0.0,0.0,0.0,0.0,0.0,0.0,0.0,0.0,0.0,0.0,0.0,-1.5038,-1.3565,0.0,0.0,0.0,0.0,-1.4899,-1.5064,-1.5308,-1.5818,-1.6008,-1.6024,-1.6089,-0.6222,-0.0816,-0.0832,-0.0847,-0.086,-0.0869,-0.0218,0.0,0.0,0.0,0.0,0.0,0.0,0.0,0.0,0.0,0.0,0.0,0.0,0.0,0.0,0.0,0.0,0.0,0.0,0.0,0.0,0.0,0.0,0.0,0.0,0.0,0.0,0.0,0.0,0.0,0.0,0.0,0.0,0.0,0.0,0.0,0.0,0.0,0.0,0.0,0.0,0.0,0.0,0.0,0.0,0.0,0.0,0.0,0.0,0.0,0.0,0.0,0.0,0.0,0.0,0.0,0.0,0.0,0.0,0.0,0.0,0.0,0.0,0.0,0.0,0.0,0.0,0.0,0.0,0.0,0.0,0.0,0.0,0.0,0.0,0.0,0.0,0.0,0.0,0.0,0.0,0.0,0.0,0.0,0.0,0.0,0.0,0.0,0.0,0.0,0.0,0.0,0.0,0.0,0.0,0.0,0.0,-1.5592,-1.4153,0.0,-1.4421,-1.4558,-1.4868,-1.5643,-1.5753,-1.5786,-1.6084,-0.9448,-0.5782,-0.5702,-0.2049,0.0,0.0,0.0,0.0,0.0,0.0,0.0,0.0,0.0,0.0,0.0,0.0,0.0,0.0,0.0,0.0,0.0,0.0,0.0,0.0,0.0,0.0,0.0,0.0,0.0,0.0,0.0,0.0,0.0,0.0,0.0,0.0,0.0,0.0,0.0,0.0,0.0,0.0,0.0,0.0,0.0,0.0,0.0,0.0,0.0,0.0,0.0,0.0,0.0,0.0,0.0,0.0,0.0,0.0,0.0,0.0,0.0,0.0,0.0,0.0,0.0,0.0,0.0,0.0,0.0,0.0,0.0,0.0,0.0,0.0,0.0,0.0,0.0,0.0,0.0,0.0,0.0,0.0,0.0,0.0,0.0,0.0,0.0,0.0,0.0,0.0,0.0,0.0,0.0,0.0,0.0,0.0,0.0,0.0,0.0,0.0,0.0,0.0,0.0,0.0,0.0,-1.478,-1.6214,-1.5343,-1.5069,-1.6302,-1.6416,-1.6266,-1.6096,-1.2651,-1.0658,-1.0577,-0.3875,0.0,0.0,0.0,0.0,0.0,0.0,0.0,0.0,0.0,0.0,0.0,0.0,0.0,0.0,0.0,0.0,0.0,0.0,0.0,0.0,0.0,0.0,0.0,0.0,0.0,0.0,0.0,0.0,0.0,0.0,0.0,0.0,0.0,0.0,0.0,0.0,0.0,0.0,0.0,0.0,0.0,0.0,0.0,0.0,0.0,0.0,0.0,0.0,0.0,0.0,0.0,0.0,0.0,0.0,0.0,0.0,0.0,0.0,0.0,0.0,0.0,0.0,0.0,0.0,0.0,0.0,0.0,0.0,0.0,0.0,0.0,0.0,0.0,0.0,0.0,0.0,0.0,0.0,0.0,0.0,0.0,0.0,0.0,0.0,0.0,0.0,0.0,0.0,0.0,0.0,0.0,0.0,0.0,0.0,0.0,0.0,0.0,0.0,0.0,0.0,0.0,0.0,-1.5418,-1.5701,-1.6394,-1.6989,-1.7077,-1.6807,-1.66,-1.6385,-1.6245,-1.5615,-0.591,0.0,0.0,0.0,0.0,0.0,0.0,0.0,0.0,0.0,0.0,0.0,0.0,0.0,0.0,0.0,0.0,0.0,0.0,0.0,0.0,0.0,0.0,0.0,0.0,0.0,0.0,0.0,0.0,0.0,0.0,0.0,0.0,0.0,0.0,0.0,0.0,0.0,0.0,0.0,0.0,0.0,0.0,0.0,0.0,0.0,0.0,0.0,0.0,0.0,0.0,0.0,0.0,0.0,0.0,0.0,0.0,0.0,0.0,0.0,0.0,0.0,0.0,0.0,0.0,0.0,0.0,0.0,0.0,0.0,0.0,0.0,0.0,0.0,0.0,0.0,0.0,0.0,0.0,0.0,0.0,0.0,0.0,0.0,0.0,0.0,0.0,0.0,0.0,0.0,0.0,0.0,0.0,0.0,0.0,0.0,0.0,0.0,0.0,0.0,0.0,0.0,0.0,0.0,0.0,-1.5382,-1.5874,-1.6342,-1.6876,-1.7017,-1.7051,-1.378,-0.5392,-0.4588,-0.4601,-0.4371,-0.1663,0.0,0.0,0.0,0.0,0.0,0.0,0.0,0.0,0.0,0.0,0.0,0.0,0.0,0.0,0.0,0.0,0.0,0.0,0.0,0.0,0.0,0.0,0.0,0.0,0.0,0.0,0.0,0.0,0.0,0.0,0.0,0.0,0.0,0.0,0.0,0.0,0.0,0.0,0.0,0.0,0.0,0.0,0.0,0.0,0.0,0.0,0.0,0.0,0.0,0.0,0.0,0.0,0.0,0.0,0.0,0.0,0.0,0.0,0.0,0.0,0.0,0.0,0.0,0.0,0.0,0.0,0.0,0.0,0.0,0.0,0.0,0.0,0.0,0.0,0.0,0.0,0.0,0.0,0.0,0.0,0.0,0.0,0.0,0.0,0.0,0.0,0.0,0.0,0.0,0.0,0.0,0.0,0.0,0.0,0.0,0.0,0.0,0.0,0.0,0.0,0.0,0.0,0.0,-1.5479,-1.589,-1.6467,-1.653,-1.4879,-1.037,-0.9815,-0.7263,-0.0636,0.0,0.0,0.0,0.0,0.0,0.0,0.0,0.0,0.0,0.0,0.0,0.0,0.0,0.0,0.0,0.0,0.0,0.0,0.0,0.0,0.0,0.0,0.0,0.0,0.0,0.0,0.0,0.0,0.0,0.0,0.0,0.0,0.0,0.0,0.0,0.0,0.0,0.0,0.0,0.0,0.0,0.0,0.0,0.0,0.0,0.0,0.0,0.0,0.0,0.0,0.0,0.0,0.0,0.0,0.0,0.0,0.0,0.0,0.0,0.0,0.0,0.0,0.0,0.0,0.0,0.0,0.0,0.0,0.0,0.0,0.0,0.0,0.0,0.0,0.0,0.0,0.0,0.0,0.0,0.0,0.0,0.0,0.0,0.0,0.0,0.0,0.0,0.0,0.0,0.0,0.0,0.0,0.0,0.0,0.0,0.0,0.0,0.0,0.0,0.0,0.0,0.0,0.0,0.0,0.0,0.0,0.0,-1.5962,-1.6788,-1.6889,-1.6472,-1.2084,-0.1285,0.0,0.0,0.0,0.0,0.0,0.0,0.0,0.0,0.0,0.0,0.0,0.0,0.0,0.0,0.0,0.0,0.0,0.0,0.0,0.0,0.0,0.0,0.0,0.0,0.0,0.0,0.0,0.0,0.0,0.0,0.0,0.0,0.0,0.0,0.0,0.0,0.0,0.0,0.0,0.0,0.0,0.0,0.0,0.0,0.0,0.0,0.0,0.0,0.0,0.0,0.0,0.0,0.0,0.0,0.0,0.0,0.0,0.0,0.0,0.0,0.0,0.0,0.0,0.0,0.0,0.0,0.0,0.0,0.0,0.0,0.0,0.0,0.0,0.0,0.0,0.0,0.0,0.0,0.0,0.0,0.0,0.0,0.0,0.0,0.0,0.0,0.0,0.0,0.0,0.0,0.0,0.0,0.0,0.0,0.0,0.0,0.0,0.0,0.0,0.0,0.0,0.0,0.0,0.0,0.0,0.0,0.0,0.0,0.0,-1.4674,-1.606,-1.7049,-1.7003,-1.6849,-1.2746,-0.1294,0.0,0.0,0.0,0.0,0.0,0.0,0.0,0.0,0.0,0.0,0.0,0.0,0.0,0.0,0.0,0.0,0.0,0.0,0.0,0.0,0.0,0.0,0.0,0.0,0.0,0.0,0.0,0.0,0.0,0.0,0.0,0.0,0.0,0.0,0.0,0.0,0.0,0.0,0.0,0.0,0.0,0.0,0.0,0.0,0.0,0.0,0.0,0.0,0.0,0.0,0.0,0.0,0.0,0.0,0.0,0.0,0.0,0.0,0.0,0.0,0.0,0.0,0.0,0.0,0.0,0.0,0.0,0.0,0.0,0.0,0.0,0.0,0.0,0.0,0.0,0.0,0.0,0.0,0.0,0.0,0.0,0.0,0.0,0.0,0.0,0.0,0.0,0.0,0.0,0.0,0.0,0.0,0.0,0.0,0.0,0.0,0.0,0.0,0.0,0.0,0.0,0.0,0.0,0.0,0.0,-1.0154,0.0,0.0,-0.9078,-1.4941,-1.6446,-1.6994,-1.708,-1.2008,-0.6313,-0.0652,0.0,0.0,0.0,0.0,0.0,0.0,0.0,0.0,0.0,0.0,0.0,0.0,0.0,0.0,0.0,0.0,0.0,0.0,0.0,0.0,0.0,0.0,0.0,0.0,0.0,0.0,0.0,0.0,0.0,0.0,0.0,0.0,0.0,0.0,0.0,0.0,0.0,0.0,0.0,0.0,0.0,0.0,0.0,0.0,0.0,0.0,0.0,0.0,0.0,0.0,0.0,0.0,0.0,0.0,0.0,0.0,0.0,0.0,0.0,0.0,0.0,0.0,0.0,0.0,0.0,0.0,0.0,0.0,0.0,0.0,0.0,0.0,0.0,0.0,0.0,0.0,0.0,0.0,0.0,0.0,0.0,0.0,0.0,0.0,0.0,0.0,0.0,0.0,0.0,0.0,0.0,0.0,0.0,0.0,0.0,0.0,0.0,0.0,0.0,0.0,0.0,-0.4284,-0.4327,-0.4572,-0.7145,-0.8473,-0.5153,-0.2031,-0.2918,-1.2287,-1.368,-1.376,-1.3733,-0.5725,0.0,0.0,0.0,0.0,0.0,0.0,0.0,0.0,0.0,0.0,0.0,0.0,0.0,0.0,0.0,0.0,0.0,0.0,0.0,0.0,0.0,0.0,0.0,0.0,0.0,0.0,0.0,0.0,0.0,0.0,0.0,0.0,0.0,0.0,0.0,0.0,0.0,0.0,0.0,0.0,0.0,0.0,0.0,0.0,0.0,0.0,0.0,0.0,0.0,0.0,0.0,0.0,0.0,0.0,0.0,0.0,0.0,0.0,0.0,0.0,0.0,0.0,0.0,0.0,0.0,0.0,0.0,0.0,0.0,0.0,0.0,0.0,0.0,0.0,0.0,0.0,0.0,0.0,0.0,0.0,0.0,0.0,0.0,0.0,0.0,0.0,0.0,0.0,0.0,0.0,0.0,0.0,0.0,0.0,0.0,0.0,0.0,-0.0656,-0.2698,-0.9047,-1.0776,-0.9084,0.0,-0.0585,-0.058,-0.0614,-0.1043,-0.1264,-0.064,-0.0214,-0.043,-0.1726,-0.1956,-0.1963,-0.1951,-0.0877,0.0,0.0,0.0,0.0,0.0,0.0,0.0,0.0,0.0,0.0,0.0,0.0,0.0,0.0,0.0,0.0,0.0,0.0,0.0,0.0,0.0,0.0,0.0,0.0,0.0,0.0,0.0,0.0,0.0,0.0,0.0,0.0,0.0,0.0,0.0,0.0,0.0,0.0,0.0,0.0,0.0,0.0,0.0,0.0,0.0,0.0,0.0,0.0,0.0,0.0,0.0,0.0,0.0,0.0,0.0,0.0,0.0,0.0,0.0,0.0,0.0,0.0,0.0,0.0,0.0,0.0,0.0,0.0,0.0,0.0,0.0,0.0,0.0,0.0,0.0,0.0,0.0,0.0,0.0,0.0,0.0,0.0,0.0,0.0,0.0,0.0,0.0,0.0,0.0,0.0,0.0,0.0,0.0,0.0,-0.3993,-0.7033,-0.1503,0.0,-0.0729,-0.3793,-0.459,-0.4056,-0.0805,0.0,0.0,0.0,0.0,0.0,0.0,0.0,0.0,0.0,0.0,0.0,0.0,0.0,0.0,0.0,0.0,0.0,0.0,0.0,0.0,0.0,0.0,0.0,0.0,0.0,0.0,0.0,0.0,0.0,0.0,0.0,0.0,0.0,0.0,0.0,0.0,0.0,0.0,0.0,0.0,0.0,0.0,0.0,0.0,0.0,0.0,0.0,0.0,0.0,0.0,0.0,0.0,0.0,0.0,0.0,0.0,0.0,0.0,0.0,0.0,0.0,0.0,0.0,0.0,0.0,0.0,0.0,0.0,0.0,0.0,0.0,0.0,0.0,0.0,0.0,0.0,0.0,0.0,0.0,0.0,0.0,0.0,0.0,0.0,0.0,0.0,0.0,0.0,0.0,0.0,0.0,0.0,0.0,0.0,0.0,0.0,0.0,0.0,0.0,0.0,0.0,0.0,0.0,0.0,0.0,-0.0596,-0.3517,-0.9318,-1.308,-0.5806,-0.1971,0.0,0.0,0.0,0.0,0.0,0.0,0.0,0.0,0.0,0.0,0.0,0.0,0.0,0.0,0.0,0.0,0.0,0.0,0.0,0.0,0.0,0.0,0.0,0.0,0.0,0.0,0.0,0.0,0.0,0.0,0.0,0.0,0.0,0.0,0.0,0.0,0.0,0.0,0.0,0.0,0.0,0.0,0.0,0.0,0.0,0.0,0.0,0.0,0.0,0.0,0.0,0.0,0.0,0.0,0.0,0.0,0.0,0.0,0.0,0.0,0.0,0.0,0.0,0.0,0.0,0.0,0.0,0.0,0.0,0.0,0.0,0.0,0.0,0.0,0.0,0.0,0.0,0.0,0.0,0.0,0.0,0.0,0.0,0.0,0.0,0.0,0.0,0.0,0.0,0.0,0.0,0.0,0.0,0.0,0.0,0.0,0.0,0.0,0.0,0.0,0.0,0.0,0.0,0.0,0.0,0.0,0.0,0.0,0.0,0.0,-0.1988,-1.2481,-1.5428,-1.501,-1.418,-0.7058,0.0,0.0,0.0,0.0,0.0,0.0,0.0,0.0,0.0,0.0,0.0,0.0,0.0,0.0,0.0,0.0,0.0,0.0,0.0,0.0,0.0,0.0,0.0,0.0,0.0,0.0,0.0,0.0,0.0,0.0,0.0,0.0,0.0,0.0,0.0,0.0,0.0,0.0,0.0,0.0,0.0,0.0,0.0,0.0,0.0,0.0,0.0,0.0,0.0,0.0,0.0,0.0,0.0,0.0,0.0,0.0,0.0,0.0,0.0,0.0,0.0,0.0,0.0,0.0,0.0,0.0,0.0,0.0,0.0,0.0,0.0,0.0,0.0,0.0,0.0,0.0,0.0,0.0,0.0,0.0,0.0,0.0,0.0,0.0,0.0,0.0,0.0,0.0,0.0,0.0,0.0,0.0,0.0,0.0,0.0,0.0,0.0,0.0,0.0,0.0,0.0,0.0,0.0,0.0,0.0,0.0,0.0,0.0,0.0,0.0,-0.0774,-0.4442,-1.0383,-1.5618,-1.5063,-1.2323,-0.7893,-0.149,0.0,0.0,0.0,0.0,0.0,0.0,0.0,0.0,0.0,0.0,0.0,0.0,0.0,0.0,0.0,0.0,0.0,0.0,0.0,0.0,0.0,0.0,0.0,0.0,0.0,0.0,0.0,0.0,0.0,0.0,0.0,0.0,0.0,0.0,0.0,0.0,0.0,0.0,0.0,0.0,0.0,0.0,0.0,0.0,0.0,0.0,0.0,0.0,0.0,0.0,0.0,0.0,0.0,0.0,0.0,0.0,0.0,0.0,0.0,0.0,0.0,0.0,0.0,0.0,0.0,0.0,0.0,0.0,0.0,0.0,0.0,0.0,0.0,0.0,0.0,0.0,0.0,0.0,0.0,0.0,0.0,0.0,0.0,0.0,0.0,0.0,0.0,0.0,0.0,0.0,0.0,0.0,0.0,0.0,0.0,0.0,0.0,0.0,0.0,0.0,0.0,0.0,0.0,0.0,0.0,0.0,0.0,0.0,0.0,0.0,-0.4962,-1.1042,-1.4528,-1.5102,-1.2214,-0.2413,0.0,0.0,0.0,0.0,0.0,0.0,0.0,0.0,0.0,0.0,0.0,0.0,0.0,0.0,0.0,0.0,0.0,0.0,0.0,0.0,0.0,0.0,0.0,0.0,0.0,0.0,0.0,0.0,0.0,0.0,0.0,0.0,0.0,0.0,0.0,0.0,0.0,0.0,0.0,0.0,0.0,0.0,0.0,0.0,0.0,0.0,0.0,0.0,0.0,0.0,0.0,0.0,0.0,0.0,0.0,0.0,0.0,0.0,0.0,0.0,0.0,0.0,0.0,0.0,0.0,0.0,0.0,0.0,0.0,0.0,0.0,0.0,0.0,0.0,0.0,0.0,0.0,0.0,0.0,0.0,0.0,0.0,0.0,0.0,0.0,0.0,0.0,0.0,0.0,0.0,0.0,0.0,0.0,0.0,0.0,0.0,0.0,0.0,0.0,0.0,0.0,0.0,0.0,0.0,0.0,0.0,0.0,0.0,0.0,0.0,0.0,-0.2272,-1.2462,-1.4787,-1.2012,-0.2458,0.0,0.0,0.0,0.0,0.0,0.0,0.0,0.0,0.0,0.0,0.0,0.0,0.0,0.0,0.0,0.0,0.0,0.0,0.0,0.0,0.0,0.0,0.0,0.0,0.0,0.0,0.0,0.0,0.0,0.0,0.0,0.0,0.0,0.0,0.0,0.0,0.0,0.0,0.0,0.0,0.0,0.0,0.0,0.0,0.0,0.0,0.0,0.0,0.0,0.0,0.0,0.0,0.0,0.0,0.0,0.0,0.0,0.0,0.0,0.0,0.0,0.0,0.0,0.0,0.0,0.0,0.0,0.0,0.0,0.0,0.0,0.0,0.0,0.0,0.0,0.0,0.0,0.0,0.0,0.0,0.0,0.0,0.0,0.0,0.0,0.0,0.0,0.0,0.0,0.0,0.0,0.0,0.0,0.0,0.0,0.0,0.0,0.0,0.0,0.0,0.0,0.0,0.0,0.0,0.0,0.0,0.0,0.0,0.0,0.0,0.0,-0.0647,-0.3287,-0.4,-0.315,-0.0684,0.0,0.0,0.0,0.0,0.0,0.0,0.0,0.0,0.0,0.0,0.0,0.0,0.0,0.0,0.0,0.0,0.0,0.0,0.0,0.0,0.0,0.0,0.0,0.0,0.0,0.0,0.0,0.0,0.0,0.0,0.0,0.0,0.0,0.0,0.0,0.0,0.0,0.0,0.0,0.0,0.0,0.0,0.0,0.0,0.0,0.0,0.0,0.0,0.0,0.0,0.0,0.0,0.0,0.0,0.0,0.0,0.0,0.0,0.0,0.0,0.0,0.0,0.0,0.0,0.0,0.0,0.0,0.0,0.0,0.0,0.0,0.0,0.0,0.0,0.0,0.0,0.0,0.0,0.0,0.0,0.0,0.0,0.0,0.0,0.0,0.0,0.0,0.0,0.0,0.0,0.0,0.0,0.0,0.0,0.0,0.0,0.0,0.0,0.0,0.0,0.0,0.0,0.0,0.0,0.0,0.0,0.0,0.0,0.0,0.0,0.0,0.0,0.0,0.0,0.0,0.0,0.0,0.0,0.0,0.0,0.0,0.0,0.0,0.0,0.0,0.0,0.0,0.0,0.0,0.0,0.0,0.0,0.0,0.0,0.0,0.0,0.0,0.0,0.0,0.0,0.0,0.0,0.0,0.0,0.0,0.0,0.0,0.0,0.0,0.0,0.0,0.0,0.0,0.0,0.0,0.0,0.0,0.0,0.0,0.0,0.0,0.0,0.0,0.0,0.0,0.0,0.0,0.0,0.0,0.0,0.0,0.0,0.0,0.0,0.0,0.0,0.0,0.0,0.0,0.0,0.0,0.0,0.0,0.0,0.0,0.0,0.0,0.0,0.0,0.0,0.0,0.0,0.0,0.0,0.0,0.0,0.0,0.0,0.0,0.0,0.0,0.0,0.0,0.0,0.0,0.0,0.0,0.0,0.0,0.0,0.0,0.0,0.0,0.0,0.0,0.0,0.0,0.0,0.0,0.0,0.0,0.0,0.0,0.0,0.0,0.0,0.0,0.0,0.0,0.0,0.0,0.0,0.0,0.0,0.0,0.0,0.0,0.0,0.0,0.0,0.0,0.0,0.0,0.0,0.0,0.0,0.0,0.0,0.0,0.0,0.0,0.0,0.0,0.0,0.0,0.0,0.0,0.0,0.0,0.0,0.0,0.0,0.0,0.0,0.0,0.0,0.0,0.0,0.0,0.0,0.0,0.0,0.0,0.0,0.0,0.0,0.0,0.0,0.0,0.0,0.0,0.0,0.0,0.0,0.0,0.0,0.0,0.0,0.0,0.0,0.0,0.0,0.0,0.0,0.0,0.0,0.0,0.0,0.0,0.0,0.0,0.0,0.0,0.0,0.0,0.0,0.0,0.0,0.0,0.0,0.0,0.0,0.0,0.0,0.0,0.0,0.0,0.0,0.0,0.0,0.0,0.0,0.0,0.0,0.0,0.0,0.0,0.0,0.0,0.0,0.0,0.0,0.0,0.0,0.0,0.0,0.0,0.0,0.0,0.0,0.0,0.0,0.0,0.0,0.0,0.0,0.0,0.0,0.0,0.0,0.0,0.0,0.0,0.0,0.0,0.0,0.0,0.0,0.0,0.0,0.0,0.0,0.0,0.0,0.0,0.0,0.0,0.0,0.0,0.0,0.0,0.0,0.0,0.0,0.0,0.0,0.0,0.0,0.0,0.0,0.0,0.0,0.0,0.0,0.0,0.0,0.0,0.0,0.0,0.0,0.0,0.0,0.0,0.0,0.0,0.0,0.0,0.0,0.0,0.0,0.0,0.0,0.0,0.0,0.0,0.0,0.0,0.0,0.0,0.0,0.0,0.0,0.0,0.0,0.0,0.0,0.0,0.0,0.0,0.0,0.0,0.0,0.0,0.0,0.0,0.0,0.0,0.0,0.0,0.0,0.0,0.0,0.0,0.0,0.0,0.0,0.0,0.0,0.0,0.0,0.0,0.0,0.0,0.0,0.0,0.0,0.0,0.0,0.0,0.0,0.0,0.0,0.0,0.0,0.0,0.0,0.0,0.0,0.0,0.0,0.0,0.0,0.0,0.0,0.0,0.0,0.0,0.0,0.0,0.0,0.0,0.0,0.0,0.0,0.0,0.0,0.0,0.0,0.0,0.0,0.0,0.0,0.0,0.0,0.0,0.0,0.0,0.0,0.0,0.0,0.0,0.0,0.0,0.0,0.0,0.0,0.0,0.0,0.0,0.0,0.0,0.0,0.0,0.0,0.0,0.0,0.0,0.0,0.0,0.0,0.0,0.0,0.0,0.0,0.0,0.0,0.0,0.0,0.0,0.0,0.0,0.0,0.0,0.0,0.0,0.0,0.0,0.0,0.0,0.0,0.0,0.0,0.0,0.0,0.0,0.0,0.0,0.0,0.0,0.0,0.0,0.0,0.0,0.0,0.0,0.0,0.0,0.0,0.0,0.0,0.0,0.0,0.0,0.0,0.0,0.0,0.0,0.0,0.0,0.0,0.0,0.0,0.0,0.0,0.0,0.0,0.0,0.0,0.0,0.0,0.0,0.0,0.0,0.0,0.0,0.0,0.0,0.0,0.0,0.0,0.0,0.0,0.0,0.0,0.0,0.0,0.0,0.0,0.0,0.0,0.0,0.0,0.0,0.0,0.0,0.0,0.0,0.0,0.0,0.0,0.0,0.0,0.0,0.0,0.0,0.0,0.0,0.0,0.0,0.0,0.0,0.0,0.0,0.0,0.0,0.0,0.0,0.0,0.0,0.0,0.0,0.0,0.0,0.0,0.0,0.0,0.0,0.0,0.0,0.0,0.0,0.0,0.0,0.0,0.0,0.0,0.0,0.0,0.0,0.0,0.0,0.0,0.0,0.0,0.0,0.0,0.0,0.0,0.0,0.0,0.0,0.0,0.0,0.0,0.0,0.0,0.0,0.0,0.0,0.0,0.0,0.0,0.0,0.0,0.0,0.0,0.0,0.0,0.0,0.0,0.0,0.0,0.0,0.0,0.0,0.0,0.0,0.0,0.0,0.0,0.0,0.0,0.0,0.0,0.0,0.0,0.0,0.0,0.0,0.0,0.0,0.0,0.0,0.0,0.0,0.0,0.0,0.0,0.0,0.0,0.0,0.0,0.0,0.0,0.0,0.0,0.0,0.0,0.0,0.0,0.0,0.0,0.0,0.0,0.0,0.0,0.0,0.0,0.0,0.0,0.0,0.0,0.0,0.0,0.0,0.0,0.0,0.0,0.0,0.0,0.0,0.0,0.0,0.0,0.0,0.0,0.0,0.0,0.0,0.0,0.0,0.0,0.0,0.0,0.0,0.0,0.0,0.0,0.0,0.0,0.0,0.0,0.0,0.0,0.0,0.0,0.0,0.0,0.0,0.0,0.0,0.0,0.0,0.0,0.0,0.0,0.0,0.0,0.0,0.0,0.0,0.0,0.0,0.0,0.0,0.0,0.0,0.0,0.0,0.0,0.0,0.0,0.0,0.0,0.0,0.0,0.0,0.0,0.0,0.0,0.0,0.0,0.0,0.0,0.0,0.0,0.0,0.0,0.0,0.0,0.0,0.0,0.0,0.0,0.0,0.0,0.0,0.0,0.0,0.0,0.0,0.0,0.0,0.0,0.0,0.0,0.0,0.0,0.0,0.0,0.0,0.0,0.0,0.0,0.0,0.0,0.0,0.0,0.0,0.0,0.0,0.0,0.0,0.0,0.0,0.0,0.0,0.0,0.0,0.0,0.0,0.0,0.0,0.0,0.0,0.0,0.0,0.0,0.0,0.0,0.0,0.0,0.0,0.0,0.0,0.0,0.0,0.0,0.0,0.0,0.0,0.0,0.0,0.0,0.0,0.0,0.0,0.0,0.0,0.0,0.0,0.0,0.0,0.0,0.0,0.0,0.0,0.0,0.0,0.0,0.0,0.0,0.0,0.0,0.0,0.0,0.0,0.0,0.0,0.0,0.0,0.0,0.0,0.0,0.0,0.0,0.0,0.0,0.0,0.0,0.0,0.0,0.0,0.0,0.0,0.0,0.0,0.0,0.0,0.0,0.0,0.0,0.0,0.0,0.0,0.0,0.0,0.0,0.0,0.0,0.0,0.0,0.0,0.0,0.0,0.0,0.0,0.0,0.0,0.0,0.0,0.0,0.0,0.0,0.0,0.0,0.0,0.0,0.0,0.0,0.0,0.0,0.0,0.0,0.0,0.0,0.0,0.0,0.0,0.0,0.0,0.0,0.0,0.0,0.0,0.0,0.0,0.0,0.0,0.0,0.0,0.0,0.0,0.0,0.0,0.0,0.0,0.0,0.0,0.0,0.0,0.0,0.0,0.0,0.0,0.0,0.0,0.0,0.0,0.0,0.0,0.0,0.0,0.0,0.0,0.0,0.0,0.0,0.0,0.0,0.0,0.0,0.0,0.0,0.0,0.0,0.0,0.0,0.0,0.0,0.0,0.0,0.0,0.0,0.0,0.0,0.0,0.0,0.0,0.0,0.0,0.0,0.0,0.0,0.0,0.0,0.0,0.0,0.0,0.0,0.0,0.0,0.0,0.0,0.0,0.0,0.0,0.0,0.0,0.0,0.0,0.0,0.0,0.0,0.0,0.0,0.0,0.0,0.0,0.0,0.0,0.0,0.0,0.0,0.0,0.0,0.0,0.0,0.0,0.0,0.0,0.0,0.0,0.0,0.0,0.0,0.0,0.0,0.0,0.0,0.0,0.0,0.0,0.0,0.0,0.0,0.0,0.0,0.0,0.0,0.0,0.0,0.0,0.0,0.0,0.0,0.0,0.0,0.0,0.0,0.0,0.0,0.0,0.0,0.0,0.0,0.0,0.0,0.0,0.0,0.0,0.0,0.0,0.0,0.0,0.0,0.0,0.0,0.0,0.0,0.0,0.0,0.0,0.0,0.0,0.0,0.0,0.0,0.0,0.0,0.0,0.0,0.0,0.0,0.0,0.0,0.0,0.0,0.0,0.0,0.0,0.0,0.0,0.0,0.0,0.0,0.0,0.0,0.0,0.0,0.0,0.0,0.0,0.0,0.0,0.0,0.0,0.0,0.0,0.0,0.0,0.0,0.0,0.0,0.0,0.0,0.0,0.0,0.0,0.0,0.0,0.0,0.0,0.0,0.0,0.0,0.0,0.0,0.0,0.0,0.0,0.0,0.0,0.0,0.0,0.0,0.0,0.0,0.0,0.0,0.0,0.0,0.0,0.0,0.0,0.0,0.0,0.0,0.0,0.0,0.0,0.0,0.0,0.0,0.0,0.0,0.0,0.0,0.0,0.0,0.0,0.0,0.0,0.0,0.0,0.0,0.0,0.0,0.0,0.0,0.0,0.0,0.0,0.0,0.0,0.0,0.0,0.0,0.0,0.0,0.0,0.0,0.0,0.0,0.0,0.0,0.0,0.0,0.0,0.0,0.0,0.0,0.0,0.0,0.0,0.0,0.0,0.0,0.0,0.0,0.0,0.0,0.0,0.0,0.0,0.0,0.0,0.0,0.0,0.0,0.0,0.0,0.0,0.0,0.0,0.0,0.0,0.0,0.0,0.0,0.0,0.0,0.0,0.0,0.0,0.0,0.0,0.0,0.0,0.0,0.0,0.0,0.0,0.0,0.0,0.0,0.0,0.0,0.0,0.0,0.0,0.0,0.0,0.0,0.0,0.0,0.0,0.0,0.0,0.0,0.0,0.0,0.0,0.0,0.0,0.0,0.0,0.0,0.0,0.0,0.0,0.0,0.0,0.0,0.0,0.0,0.0,0.0,0.0,0.0,0.0,0.0,0.0,0.0,0.0,0.0,0.0,0.0,0.0,0.0,0.0,0.0,0.0,0.0,0.0,0.0,0.0,0.0,0.0,0.0,0.0,0.0,0.0,0.0,0.0,0.0,0.0,0.0,0.0,0.0,0.0,0.0,0.0,0.0,0.0,0.0,0.0,0.0,0.0,0.0,0.0,0.0,0.0,0.0,0.0,0.0,0.0,0.0,0.0,0.0,0.0,0.0,0.0,0.0,0.0,0.0,0.0,0.0,0.0,0.0,0.0,0.0,0.0,0.0,0.0,0.0,0.0,0.0,0.0,0.0,0.0,0.0,0.0,0.0,0.0,0.0,0.0,0.0,0.0,0.0,0.0,0.0,0.0,0.0,0.0,0.0,0.0,0.0,0.0,0.0,0.0,0.0,0.0,0.0,0.0,0.0,0.0,0.0,0.0,0.0,0.0,0.0,0.0,0.0,0.0,0.0,0.0,0.0,0.0,0.0,0.0,0.0,0.0,0.0,0.0,0.0,0.0,0.0,0.0,0.0,0.0,0.0,0.0,0.0,0.0,0.0,0.0,0.0,0.0,0.0,0.0,0.0,0.0,0.0,0.0,0.0,0.0,0.0,0.0,0.0,0.0,0.0,0.0,0.0,0.0,0.0,0.0,0.0,0.0,0.0,0.0,0.0,0.0,0.0,0.0,0.0,0.0,0.0,0.0,0.0,0.0,0.0,0.0,0.0,0.0,0.0,0.0,0.0,0.0,0.0,0.0,0.0,0.0,0.0,0.0,0.0,0.0,0.0,0.0,0.0,0.0,0.0,0.0,0.0,0.0,0.0,0.0,0.0,0.0,0.0,0.0,0.0,0.0,0.0,0.0,0.0,0.0,0.0,0.0,0.0,0.0,0.0,0.0,0.0,0.0,0.0,0.0,0.0,0.0,0.0,0.0,0.0,0.0,0.0,0.0,0.0,0.0,0.0,0.0,0.0,0.0,0.0,0.0,0.0,0.0,0.0,0.0,0.0,0.0,0.0,0.0,0.0,0.0,0.0,0.0,0.0,0.0,0.0,0.0,0.0,0.0,0.0,0.0,0.0,0.0,0.0,0.0,0.0,0.0,0.0,0.0,0.0,0.0,0.0,0.0,0.0,0.0,0.0,0.0,0.0,0.0,0.0,0.0,0.0,0.0,0.0,0.0,0.0,0.0,0.0,0.0,0.0,0.0,0.0,0.0,0.0,0.0,0.0,0.0,0.0,0.0,0.0,0.0,0.0,0.0,0.0,0.0,0.0,0.0,0.0,0.0,0.0,0.0,0.0,0.0,0.0,0.0,0.0,0.0,0.0,0.0,0.0,0.0,0.0,0.0,0.0,0.0,0.0,0.0,0.0,0.0,0.0,0.0,0.0,0.0,0.0,0.0,0.0,0.0,0.0,0.0,0.0,0.0,0.0,0.0,0.0,0.0,0.0,0.0,0.0,0.0,0.0,0.0,0.0,0.0,0.0,0.0,0.0,0.0,0.0,0.0,0.0,0.0,0.0,0.0,0.0,0.0,0.0,0.0,0.0,0.0,0.0,0.0,0.0,0.0,0.0,0.0,0.0,0.0,0.0,0.0,0.0,0.0,0.0,0.0,0.0,0.0,0.0,0.0,0.0,0.0,0.0,0.0,0.0,0.0,0.0,0.0,0.0,0.0,0.0,0.0,0.0,0.0,0.0,0.0,0.0,0.0,0.0,0.0,0.0,0.0,0.0,0.0,0.0,0.0,0.0,0.0,0.0,0.0,0.0,0.0,0.0,0.0,0.0,0.0,0.0,0.0,0.0,0.0,0.0,0.0,0.0,0.0,0.0,0.0,0.0,0.0,0.0,0.0,0.0,0.0,0.0,0.0,0.0,0.0,0.0,0.0,0.0,0.0,0.0,0.0,0.0,0.0,0.0,0.0,0.0,0.0,0.0,0.0,0.0,0.0,0.0,0.0,0.0,0.0,0.0,0.0,0.0,0.0,0.0,0.0,0.0,0.0,0.0,0.0,0.0,0.0,0.0,0.0,0.0,0.0,0.0,0.0,0.0,0.0,0.0,0.0,0.0,0.0,0.0,0.0,0.0,0.0,0.0,0.0,0.0,0.0,0.0,0.0,0.0,0.0,0.0,0.0,0.0,0.0,0.0,0.0,0.0,0.0,0.0,0.0,0.0,0.0,0.0,0.0,0.0,0.0,0.0,0.0,0.0,0.0,0.0,0.0,0.0,0.0,0.0,0.0,0.0,0.0,0.0,0.0,0.0,0.0,0.0,0.0,0.0,0.0,0.0,0.0,0.0,0.0,0.0,0.0,0.0,0.0,0.0,0.0,0.0,0.0,0.0,0.0,0.0,0.0,0.0,0.0,0.0,0.0,0.0,0.0,0.0,0.0,0.0,0.0,0.0,0.0,0.0,0.0,0.0,0.0,0.0,0.0,0.0,0.0,0.0,0.0,0.0,0.0,0.0,0.0,0.0,0.0,0.0,0.0,0.0,0.0,0.0,0.0,0.0,0.0,0.0,0.0,0.0,0.0,0.0,0.0,0.0,0.0,0.0,0.0,0.0,0.0,0.0,0.0,0.0,0.0,0.0,0.0,0.0,0.0,0.0,0.0,0.0,0.0,0.0,0.0,0.0,0.0,0.0,0.0,0.0,0.0,0.0,0.0,0.0,0.0,0.0,0.0,0.0,0.0,0.0,0.0,0.0,0.0,0.0,0.0,0.0,0.0,0.0,0.0,0.0,0.0,0.0,0.0,0.0,0.0,0.0,0.0,0.0,0.0,0.0,0.0,0.0,0.0,0.0,0.0,0.0,0.0,0.0,0.0,0.0,0.0,0.0,0.0,0.0,0.0,0.0,0.0,0.0,0.0,0.0,0.0,0.0,0.0,0.0,0.0,0.0,0.0,0.0,0.0,0.0,0.0,0.0,0.0,0.0,0.0,0.0,0.0,0.0,0.0,0.0,0.0,0.0,0.0,0.0,0.0,0.0,0.0,0.0,0.0,0.0,0.0,0.0,0.0,0.0,0.0,0.0,0.0,0.0,0.0,0.0,0.0,0.0,0.0,0.0,0.0,0.0,0.0,0.0,0.0,0.0,0.0,0.0,0.0,0.0,0.0,0.0,0.0,0.0,0.0,0.0,0.0,0.0,0.0,0.0,0.0,0.0,0.0,0.0,0.0,0.0,0.0,0.0,0.0,0.0,0.0,0.0,0.0,0.0,0.0,0.0,0.0,0.0,0.0,0.0,0.0,0.0,0.0,0.0,0.0,0.0,0.0,0.0,0.0,0.0,0.0,0.0,0.0,0.0,0.0,0.0,0.0,0.0,0.0,0.0,0.0,0.0,0.0,0.0,0.0,0.0,0.0,0.0,0.0,0.0,0.0,0.0,0.0,0.0,0.0,0.0,0.0,0.0,0.0,0.0,0.0,0.0,0.0,0.0,0.0,0.0,0.0,0.0,0.0,0.0,0.0,0.0,0.0,0.0,0.0,0.0,0.0,0.0,0.0,0.0,0.0,0.0,0.0,0.0,0.0,0.0,0.0,0.0,0.0,0.0,0.0,0.0,0.0,0.0,0.0,0.0,0.0,0.0,0.0,0.0,0.0,0.0,0.0,0.0,0.0,0.0,0.0,0.0,0.0,0.0,0.0,0.0,0.0,0.0,0.0,0.0,0.0,0.0,0.0,0.0,0.0,0.0,0.0,0.0,0.0,0.0,0.0,0.0,0.0,0.0,0.0,0.0,0.0,0.0,0.0,0.0,0.0,0.0,0.0,0.0,0.0,0.0,0.0,0.0,0.0,0.0,0.0,0.0,0.0,0.0,0.0,0.0,0.0,0.0,0.0,0.0,0.0,0.0,0.0,0.0,0.0,0.0,0.0,0.0,0.0,0.0,0.0,0.0,0.0,0.0,0.0,0.0,0.0,0.0,0.0,0.0,0.0,0.0,0.0,0.0,0.0,0.0,0.0,0.0,0.0,0.0,0.0,0.0,0.0,0.0,0.0,0.0,0.0,0.0,0.0,0.0,0.0,0.0,0.0,0.0,0.0,0.0,0.0,0.0,0.0,0.0,0.0,0.0,0.0,0.0,0.0,0.0,0.0,0.0,0.0,0.0,0.0,0.0,0.0,0.0,0.0,0.0,0.0,0.0,0.0,0.0,0.0,0.0,0.0,0.0,0.0,0.0,0.0,0.0,0.0,0.0,0.0,0.0,0.0,0.0,0.0,0.0,0.0,0.0,0.0,0.0,0.0,0.0,0.0,0.0,0.0,0.0,0.0,0.0,0.0,0.0,0.0,0.0,0.0,0.0,0.0,0.0,0.0,0.0,0.0,0.0,0.0,0.0,0.0,0.0,0.0,0.0,0.0,0.0,0.0,0.0,0.0,0.0,0.0,0.0,0.0,0.0,0.0,0.0,0.0,0.0,0.0,0.0,0.0,0.0,0.0,0.0,0.0,0.0,0.0,0.0,0.0,0.0,0.0,0.0,0.0,0.0,0.0,0.0,0.0,0.0,0.0,0.0,0.0,0.0,0.0,0.0,0.0,0.0,0.0,0.0,0.0,0.0,0.0,0.0,0.0,0.0,0.0,0.0,0.0,0.0,0.0,0.0,0.0,0.0,0.0,0.0,0.0,0.0,0.0,0.0,0.0,0.0,0.0,0.0,0.0,0.0,0.0,0.0,0.0,0.0,0.0,0.0,0.0,0.0,0.0,0.0,0.0,0.0,0.0,0.0,0.0,0.0,0.0,0.0,0.0,0.0,0.0,0.0,0.0,0.0,0.0,0.0,0.0,0.0,0.0,0.0,0.0,0.0,0.0,0.0,0.0,0.0,0.0,0.0,0.0,0.0,0.0,0.0,0.0,0.0,0.0,0.0,0.0,0.0,0.0,0.0,0.0,0.0,0.0,0.0,0.0,0.0,0.0,0.0,0.0,0.0,0.0,0.0,0.0,0.0,0.0,0.0,0.0,0.0,0.0,0.0,0.0,0.0,0.0,0.0,0.0,0.0,0.0,0.0,0.0,0.0,0.0,0.0,0.0,0.0,0.0,0.0,0.0,0.0,0.0,0.0,0.0,0.0,0.0,0.0,0.0,0.0,0.0,0.0,0.0,0.0,0.0,0.0,0.0,0.0,0.0,0.0,0.0,0.0,0.0,0.0,0.0,0.0,0.0,0.0,0.0,0.0,0.0,0.0,0.0,0.0,0.0,0.0,0.0,0.0,0.0,0.0,0.0,0.0,0.0,0.0,0.0,0.0,0.0,0.0,0.0,0.0,0.0,0.0,0.0,0.0,0.0,0.0,0.0,0.0,0.0,0.0,0.0,0.0,0.0,0.0,0.0,0.0,0.0,0.0,0.0,0.0,0.0,0.0,0.0,0.0,0.0,0.0,0.0,0.0,0.0,0.0,0.0,0.0,0.0,0.0,0.0,0.0,0.0,0.0,0.0,0.0,0.0,0.0,0.0,0.0,0.0,0.0,0.0,0.0,0.0,0.0,0.0,0.0,0.0,0.0,0.0,0.0,0.0,0.0,0.0,0.0,0.0,0.0,0.0,0.0,0.0,0.0,0.0,0.0,0.0,0.0,0.0,0.0,0.0,0.0,0.0,0.0,0.0,0.0,0.0,0.0,0.0,0.0,0.0,0.0,0.0,0.0,0.0,0.0,0.0,0.0,0.0,0.0,0.0,0.0,0.0,0.0,0.0,0.0,0.0,0.0,0.0,0.0,0.0,0.0,0.0,0.0,0.0,0.0,0.0,0.0,0.0,0.0,0.0,0.0,0.0,0.0,0.0,0.0,0.0,0.0,0.0,0.0,0.0,0.0,0.0,0.0,0.0,0.0,0.0,0.0,0.0,0.0,0.0,0.0,0.0,0.0,0.0,0.0,0.0,0.0,0.0,0.0,0.0,0.0,0.0,0.0,0.0,0.0,0.0,0.0,0.0,0.0,0.0,0.0,0.0,0.0,0.0,0.0,0.0,0.0,0.0,0.0,0.0,0.0,0.0,0.0,0.0,0.0,0.0,0.0,0.0,0.0,0.0,0.0,0.0,0.0,0.0,0.0,0.0,0.0,0.0,0.0,0.0,0.0,0.0,0.0,0.0,0.0,0.0,0.0,0.0,0.0,0.0,0.0,0.0,0.0,0.0,0.0,0.0,0.0,0.0,0.0,0.0,0.0,0.0,0.0,0.0,0.0,0.0,0.0,0.0,0.0,0.0,0.0,0.0,0.0,0.0,0.0,0.0,0.0,0.0,0.0,0.0,0.0,0.0,0.0,0.0,0.0,0.0,0.0,0.0,0.0,0.0,0.0,0.0,0.0,0.0,0.0,0.0,0.0,0.0,0.0,0.0,0.0,0.0,0.0,0.0,0.0,0.0,0.0,0.0,0.0,0.0,0.0,0.0,0.0,0.0,0.0,0.0,0.0,0.0,0.0,0.0,0.0,0.0,0.0,0.0,0.0,0.0,0.0,0.0,0.0,0.0,0.0,0.0,0.0,0.0,0.0,0.0,0.0,0.0,0.0,0.0,0.0,0.0,0.0,0.0,0.0,0.0,0.0,0.0,0.0,0.0,0.0,0.0,0.0,0.0,0.0,0.0,0.0,0.0,0.0,0.0,0.0,0.0,0.0,0.0,0.0,0.0,0.0,0.0,0.0,0.0,0.0,0.0,0.0,0.0,0.0,0.0,0.0,0.0,0.0,0.0,0.0,0.0,0.0,0.0,0.0,0.0,0.0,0.0,0.0,0.0,0.0,0.0,0.0,0.0,0.0,0.0,0.0,0.0,0.0,0.0,0.0,0.0,0.0,0.0,0.0,0.0,0.0,0.0,0.0,0.0,0.0,0.0,-0.067,-0.0447,-0.0782,0.0,0.0,0.0,0.0,0.0,0.0,0.0,0.0,0.0,0.0,0.0,0.0,0.0,0.0,0.0,0.0,0.0,0.0,0.0,0.0,0.0,0.0,0.0,0.0,0.0,0.0,0.0,0.0,0.0,0.0,0.0,0.0,0.0,0.0,0.0,0.0,0.0,0.0,0.0,0.0,0.0,0.0,0.0,0.0,0.0,0.0,0.0,0.0,0.0,0.0,0.0,0.0,0.0,0.0,0.0,0.0,0.0,0.0,0.0,0.0,0.0,0.0,0.0,0.0,0.0,0.0,0.0,0.0,0.0,0.0,0.0,0.0,0.0,0.0,0.0,0.0,0.0,0.0,0.0,0.0,0.0,0.0,0.0,0.0,0.0,0.0,0.0,0.0,0.0,0.0,0.0,0.0,0.0,0.0,0.0,0.0,0.0,0.0,0.0,0.0,0.0,0.0,0.0,0.0,0.0,0.0,0.0,0.0,0.0,0.0,0.0,0.0,-0.1457,-0.0223,-0.4036,-0.699,-0.699,-0.2805,0.0,0.0,0.0,0.0,0.0,0.0,0.0,0.0,0.0,0.0,0.0,0.0,0.0,0.0,0.0,0.0,0.0,0.0,0.0,0.0,0.0,0.0,0.0,0.0,0.0,0.0,0.0,0.0,0.0,0.0,0.0,0.0,0.0,0.0,0.0,0.0,0.0,0.0,0.0,0.0,0.0,0.0,0.0,0.0,0.0,0.0,0.0,0.0,0.0,0.0,0.0,0.0,0.0,0.0,0.0,0.0,0.0,0.0,0.0,0.0,0.0,0.0,0.0,0.0,0.0,0.0,0.0,0.0,0.0,0.0,0.0,0.0,0.0,0.0,0.0,0.0,0.0,0.0,0.0,0.0,0.0,0.0,0.0,0.0,0.0,0.0,0.0,0.0,0.0,0.0,0.0,0.0,0.0,0.0,0.0,0.0,0.0,0.0,0.0,0.0,0.0,0.0,0.0,0.0,0.0,0.0,0.0,0.0,0.0,0.0,0.0,0.0,-0.2686,-0.4603,-0.4603,-0.1903,0.0,0.0,0.0,0.0,0.0,0.0,0.0,0.0,0.0,0.0,0.0,0.0,0.0,0.0,0.0,0.0,0.0,0.0,0.0,0.0,0.0,0.0,0.0,0.0,0.0,0.0,0.0,0.0,0.0,0.0,0.0,0.0,0.0,0.0,0.0,0.0,0.0,0.0,0.0,0.0,0.0,0.0,0.0,0.0,0.0,0.0,0.0,0.0,0.0,0.0,0.0,0.0,0.0,0.0,0.0,0.0,0.0,0.0,0.0,0.0,0.0,0.0,0.0,0.0,0.0,0.0,0.0,0.0,0.0,0.0,0.0,0.0,0.0,0.0,0.0,0.0,0.0,0.0,0.0,0.0,0.0,0.0,0.0,0.0,0.0,0.0,0.0,0.0,0.0,0.0,0.0,0.0,0.0,0.0,0.0,0.0,0.0,0.0,0.0,0.0,0.0,0.0,0.0,0.0,0.0,0.0,0.0,0.0,0.0,0.0,0.0,-0.0112,0.0,0.0,0.0,0.0,0.0,0.0,0.0,0.0,0.0,0.0,0.0,0.0,0.0,0.0,0.0,0.0,0.0,0.0,0.0,0.0,0.0,0.0,0.0,0.0,0.0,0.0,0.0,0.0,0.0,0.0,0.0,0.0,0.0,0.0,0.0,0.0,0.0,0.0,0.0,0.0,0.0,0.0,0.0,0.0,0.0,0.0,0.0,0.0,0.0,0.0,0.0,0.0,0.0,0.0,0.0,0.0,0.0,0.0,0.0,0.0,0.0,0.0,0.0,0.0,0.0,0.0,0.0,0.0,0.0,0.0,0.0,0.0,0.0,0.0,0.0,0.0,0.0,0.0,0.0,0.0,0.0,0.0,0.0,0.0,0.0,0.0,0.0,0.0,0.0,0.0,0.0,0.0,0.0,0.0,0.0,0.0,0.0,0.0,0.0,0.0,0.0,0.0,0.0,0.0,0.0,0.0,0.0,0.0,0.0,0.0,0.0,0.0,0.0,0.0,0.0,0.0,0.0,0.0,0.0,0.0,0.0,0.0,0.0,0.0,0.0,0.0,0.0,0.0,0.0,0.0,0.0,0.0,0.0,0.0,0.0,0.0,0.0,0.0,0.0,0.0,0.0,0.0,0.0,0.0,0.0,0.0,0.0,0.0,0.0,0.0,0.0,0.0,0.0,0.0,0.0,0.0,0.0,0.0,0.0,0.0,0.0,0.0,0.0,0.0,0.0,0.0,0.0,0.0,0.0,0.0,0.0,0.0,0.0,0.0,0.0,0.0,0.0,0.0,0.0,0.0,0.0,0.0,0.0,0.0,0.0,0.0,0.0,0.0,0.0,0.0,0.0,0.0,0.0,0.0,0.0,0.0,0.0,0.0,0.0,0.0,0.0,0.0,0.0,0.0,0.0,0.0,0.0,0.0,0.0,0.0,0.0,0.0,0.0,0.0,0.0,0.0,0.0,0.0,0.0,0.0,0.0,0.0,0.0,0.0,0.0,0.0,0.0,0.0,0.0,0.0,0.0,0.0,0.0,0.0,0.0,0.0,0.0,0.0,0.0,0.0,0.0,0.0,0.0,0.0,0.0,0.0,0.0,0.0,0.0,0.0,0.0,0.0,0.0,0.0,0.0,0.0,0.0,0.0,0.0,0.0,0.0,0.0,0.0,0.0,0.0,0.0,0.0,0.0,0.0,0.0,0.0,0.0,0.0,0.0,0.0,0.0,0.0,0.0,0.0,0.0,0.0,0.0,0.0,0.0,0.0,0.0,0.0,0.0,0.0,0.0,0.0,0.0,0.0,0.0,0.0,0.0,0.0,0.0,0.0,0.0,0.0,0.0,0.0,0.0,0.0,0.0,0.0,0.0,0.0,0.0,0.0,0.0,0.0,0.0,0.0,0.0,0.0,0.0,0.0,0.0,0.0,0.0,0.0,0.0,0.0,0.0,0.0,0.0,0.0,0.0,0.0,0.0,0.0,0.0,0.0,0.0,0.0,0.0,0.0,0.0,0.0,0.0,0.0,0.0,0.0,0.0,0.0,0.0,0.0,0.0,0.0,0.0,0.0,0.0,0.0,0.0,0.0,0.0,0.0,0.0,0.0,0.0,0.0,0.0,0.0,0.0,0.0,0.0,0.0,0.0,0.0,0.0,0.0,0.0,0.0,0.0,0.0,0.0,0.0,0.0,0.0,0.0,0.0,0.0,0.0,0.0,0.0,0.0,0.0,0.0,0.0,0.0,0.0,0.0,0.0,0.0,0.0,0.0,0.0,0.0,0.0,0.0,0.0,0.0,0.0,0.0,0.0,0.0,0.0,0.0,0.0,0.0,0.0,0.0,0.0,0.0,0.0,0.0,0.0,0.0,0.0,0.0,0.0,0.0,0.0,0.0,0.0,0.0,0.0,0.0,0.0,0.0,0.0,0.0,0.0,0.0,0.0,0.0,0.0,0.0,0.0,0.0,0.0,0.0,0.0,0.0,0.0,0.0,0.0,0.0,0.0,0.0,0.0,0.0,0.0,0.0,0.0,0.0,0.0,0.0,0.0,0.0,0.0,0.0,0.0,0.0,0.0,0.0,0.0,0.0,0.0,0.0,0.0,0.0,0.0,0.0,0.0,0.0,0.0,0.0,0.0,0.0,0.0,0.0,0.0,0.0,0.0,0.0,0.0,0.0,0.0,0.0,0.0,0.0,0.0,0.0,0.0,0.0,0.0,0.0,0.0,0.0,0.0,0.0,0.0,0.0,0.0,0.0,0.0,0.0,0.0,0.0,0.0,0.0,0.0,0.0,0.0,0.0,0.0,0.0,0.0,0.0,0.0,0.0,0.0,0.0,0.0,0.0,0.0,0.0,0.0,0.0,0.0,0.0,0.0,0.0,0.0,0.0,0.0,0.0,0.0,0.0,0.0,0.0,0.0,0.0,0.0,0.0,0.0,0.0,0.0,0.0,0.0,0.0,0.0,0.0,0.0,0.0,0.0,0.0,0.0,0.0,0.0,0.0,0.0,0.0,0.0,0.0,0.0,0.0,0.0,0.0,0.0,0.0,0.0,0.0,0.0,0.0,0.0,0.0,0.0,0.0,0.0,0.0,0.0,0.0,0.0,0.0,0.0,0.0,0.0,0.0,0.0,0.0,0.0,0.0,0.0,0.0,0.0,0.0,0.0,0.0,0.0,0.0,0.0,0.0,0.0,0.0,0.0,0.0,0.0,0.0,0.0,0.0,0.0,0.0,0.0,0.0,0.0,0.0,0.0,0.0,0.0,0.0,0.0,0.0,0.0,0.0,0.0,0.0,0.0,0.0,0.0,0.0,0.0,0.0,0.0,0.0,0.0,0.0,0.0,0.0,0.0,0.0,0.0,0.0,0.0,0.0,0.0,0.0,0.0,0.0,0.0,0.0,0.0,0.0,0.0,0.0,0.0,0.0,0.0,0.0,0.0,0.0,0.0,0.0,0.0,0.0,0.0,0.0,0.0,0.0,0.0,0.0,0.0,0.0,0.0,0.0,0.0,0.0,0.0,0.0,0.0,0.0,0.0,0.0,0.0,0.0,0.0,0.0,0.0,0.0,0.0,0.0,0.0,0.0,0.0,0.0,0.0,0.0,0.0,0.0,0.0,0.0,0.0,0.0,0.0,0.0,0.0,0.0,0.0,0.0,0.0,0.0,0.0,0.0,0.0,0.0,0.0,0.0,0.0,0.0,0.0,0.0,0.0,0.0,0.0,0.0,0.0,0.0,0.0,0.0,0.0,0.0,0.0,0.0,0.0,0.0,0.0,0.0,0.0,0.0,0.0,0.0,0.0,0.0,0.0,0.0,0.0,0.0,0.0,0.0,0.0,0.0,0.0,0.0,0.0,0.0,0.0,0.0,0.0,0.0,0.0,0.0,0.0,0.0,0.0,0.0,0.0,0.0,0.0,0.0,0.0,0.0,0.0,0.0,0.0,0.0,0.0,0.0,0.0,0.0,0.0,0.0,0.0,0.0,0.0,0.0,0.0,0.0,0.0,0.0,0.0,0.0,0.0,0.0,0.0,0.0,0.0,0.0,0.0,0.0,0.0,0.0,0.0,0.0,0.0,0.0,0.0,0.0,0.0,0.0,0.0,0.0,0.0,0.0,0.0,0.0,0.0,0.0,0.0,0.0,0.0,0.0,0.0,0.0,0.0,0.0,0.0,0.0,0.0,0.0,0.0,0.0,0.0,0.0,0.0,0.0,0.0,0.0,0.0,0.0,0.0,0.0,0.0,0.0,0.0,0.0,0.0,0.0,0.0,0.0,0.0,0.0,0.0,0.0,0.0,0.0,0.0,0.0,0.0,0.0,0.0,0.0,0.0,0.0,0.0,0.0,0.0,0.0,0.0,0.0,0.0,0.0,0.0,0.0,0.0,0.0,0.0,0.0,0.0,0.0,0.0,0.0,0.0,0.0,0.0,0.0,0.0,0.0,0.0,0.0,0.0,0.0,0.0,0.0,0.0,0.0,0.0,0.0,0.0,0.0,0.0,0.0,0.0,0.0,0.0,0.0,0.0,0.0,0.0,0.0,0.0,0.0,0.0,0.0,0.0,0.0,0.0,0.0,0.0,0.0,0.0,0.0,0.0,0.0,0.0,0.0,0.0,0.0,0.0,0.0,0.0,0.0,0.0,0.0,0.0,0.0,0.0,0.0,0.0,0.0,0.0,0.0,0.0,0.0,0.0,0.0,0.0,0.0,0.0,0.0,0.0,0.0,0.0,0.0,0.0,0.0,0.0,0.0,0.0,0.0,0.0,0.0,0.0,0.0,0.0,0.0,0.0,0.0,0.0,0.0,0.0,0.0,0.0,0.0,0.0,0.0,0.0,0.0,0.0,0.0,0.0,0.0,0.0,0.0,0.0,0.0,0.0,0.0,0.0,0.0,0.0,0.0,0.0,0.0,0.0,0.0,0.0,0.0,0.0,0.0,0.0,0.0,0.0,0.0,0.0,0.0,0.0,0.0,0.0,0.0,0.0,0.0,0.0,0.0,0.0,0.0,0.0,0.0,0.0,0.0,0.0,0.0,0.0,0.0,0.0,0.0,0.0,0.0,0.0,0.0,0.0,0.0,0.0,0.0,0.0,0.0,0.0,0.0,0.0,0.0,0.0,0.0,0.0,0.0,0.0,0.0,0.0,0.0,0.0,0.0,0.0,0.0,0.0,0.0,0.0,0.0,0.0,0.0,0.0,0.0,0.0,0.0,0.0,0.0,0.0,0.0,0.0,0.0,0.0,0.0,0.0,0.0,0.0,0.0,0.0,0.0,0.0,0.0,0.0,0.0,0.0,0.0,0.0,0.0,0.0,0.0,0.0,0.0,0.0,0.0,0.0,0.0,0.0,0.0,0.0,0.0,0.0,0.0,0.0,0.0,0.0,0.0,0.0,0.0,0.0,0.0,0.0,0.0,0.0,0.0,0.0,0.0,0.0,0.0,0.0,0.0,0.0,0.0,0.0,0.0,0.0,0.0,0.0,0.0,0.0,0.0,0.0,0.0,0.0,0.0,0.0,0.0,0.0,0.0,0.0,0.0,0.0,0.0,0.0,0.0,0.0,0.0,0.0,0.0,0.0,0.0,0.0,0.0,0.0,0.0,0.0,0.0,0.0,0.0,0.0,0.0,0.0,0.0,0.0,0.0,0.0,0.0,0.0,0.0,0.0,0.0,0.0,0.0,0.0,0.0,0.0,0.0,0.0,0.0,0.0,0.0,0.0,0.0,0.0,0.0,0.0,0.0,0.0,0.0,0.0,0.0,0.0,0.0,0.0,0.0,0.0,0.0,0.0,0.0,0.0,0.0,0.0,0.0,0.0,0.0,0.0,0.0,0.0,0.0,0.0,0.0,0.0,0.0,0.0,0.0,0.0,0.0,0.0,0.0,0.0,0.0,0.0,0.0,0.0,0.0,0.0,0.0,0.0,0.0,0.0,0.0,0.0,0.0,0.0,0.0,0.0,0.0,0.0,0.0,0.0,0.0,0.0,0.0,0.0,0.0,0.0,0.0,0.0,0.0,0.0,0.0,0.0,0.0,0.0,0.0,0.0,0.0,0.0,0.0,0.0,0.0,0.0,0.0,0.0,0.0,0.0,0.0,0.0,0.0,0.0,0.0,0.0,0.0,0.0,0.0,0.0,0.0,0.0,0.0,0.0,0.0,0.0,0.0,0.0,0.0,0.0,0.0,0.0,0.0,0.0,0.0,0.0,0.0,0.0,0.0,0.0,0.0,0.0,0.0,0.0,0.0,0.0,0.0,0.0,0.0,0.0,0.0,0.0,0.0,0.0,0.0,0.0,0.0,0.0,0.0,0.0,0.0,0.0,0.0,0.0,0.0,0.0,0.0,0.0,0.0,0.0,0.0,0.0,0.0,0.0,0.0,0.0,0.0,0.0,0.0,0.0,0.0,0.0,0.0,0.0,0.0,0.0,0.0,0.0,0.0,0.0,0.0,0.0,0.0,0.0,0.0,0.0,0.0,0.0,0.0,0.0,0.0,0.0,0.0,0.0,0.0,0.0,0.0,0.0,0.0,0.0,0.0,0.0,0.0,0.0,0.0,0.0,0.0,0.0,0.0,0.0,0.0,0.0,0.0,0.0,0.0,0.0,0.0,0.0,0.0,0.0,0.0,0.0,0.0,0.0,0.0,0.0,0.0,0.0,0.0,0.0,0.0,0.0,0.0,0.0,0.0,0.0,0.0,0.0,0.0,0.0,0.0,0.0,0.0,0.0,0.0,0.0,0.0,0.0,0.0,0.0,0.0,0.0,0.0,0.0,0.0,0.0,0.0,0.0,0.0,0.0,0.0,0.0,0.0,0.0,0.0,0.0,0.0,0.0,0.0,0.0,0.0,0.0,0.0,0.0,0.0,0.0,0.0,0.0,0.0,0.0,0.0,0.0,0.0,0.0,0.0,0.0,0.0,0.0,0.0,0.0,0.0,0.0,0.0,0.0,0.0,0.0,0.0,0.0,0.0,0.0,0.0,0.0,0.0,0.0,0.0,0.0,0.0,0.0,0.0,0.0,0.0,0.0,0.0,0.0,0.0,0.0,0.0,0.0,0.0,0.0,0.0,0.0,0.0,0.0,0.0,0.0,0.0,0.0,0.0,0.0,0.0,0.0,0.0,0.0,0.0,0.0,0.0,0.0,0.0,0.0,0.0,0.0,0.0,0.0,0.0,0.0,0.0,0.0,0.0,0.0,0.0,0.0,0.0,0.0,0.0,0.0,0.0,0.0,0.0,0.0,0.0,0.0,0.0,0.0,0.0,0.0,0.0,0.0,0.0,0.0,0.0,0.0,0.0,0.0,0.0,0.0,0.0,0.0,0.0,0.0,0.0,0.0,0.0,0.0,0.0,0.0,0.0,0.0,0.0,0.0,0.0,0.0,0.0,0.0,0.0,0.0,0.0,0.0,0.0,0.0,0.0,0.0,0.0,0.0,0.0,0.0,0.0,0.0,0.0,0.0,0.0,0.0,0.0,0.0,0.0,0.0,0.0,0.0,0.0,0.0,0.0,0.0,0.0,0.0,0.0,0.0,0.0,0.0,0.0,0.0,0.0,0.0,0.0,0.0,0.0,0.0,0.0,0.0,0.0,0.0,0.0,0.0,0.0,0.0,0.0,0.0,0.0,0.0,0.0,0.0,0.0,0.0,0.0,0.0,0.0,0.0,0.0,0.0,0.0,0.0,0.0,0.0,0.0,0.0,0.0,0.0,0.0,0.0,0.0,0.0,0.0,0.0,0.0,0.0,0.0,0.0,0.0,0.0,0.0,0.0,0.0,0.0,0.0,0.0,0.0,0.0,0.0,0.0,0.0,0.0,0.0,0.0,0.0,0.0,0.0,0.0,0.0,0.0,0.0,0.0,0.0,0.0,0.0,0.0,0.0,0.0,0.0,0.0,0.0,0.0,0.0,0.0,0.0,0.0,0.0,0.0,0.0,0.0,0.0,0.0,0.0,0.0,0.0,0.0,0.0,0.0,0.0,0.0,0.0,0.0,0.0,0.0,0.0,0.0,0.0,0.0,0.0,0.0,0.0,0.0,0.0,0.0,0.0,0.0,0.0,0.0,0.0,0.0,0.0,0.0,0.0,0.0,0.0,0.0,0.0,0.0,0.0,0.0,0.0,0.0,0.0,0.0,0.0,0.0,0.0,0.0,0.0,0.0,0.0,0.0,0.0,0.0,0.0,0.0,0.0,0.0,0.0,0.0,0.0,0.0,0.0,0.0,0.0,0.0,0.0,0.0,0.0,0.0,0.0,0.0,0.0,0.0,0.0,0.0,0.0,0.0,0.0,0.0,0.0,0.0,0.0,0.0,0.0,0.0,0.0,0.0,0.0,0.0,0.0,0.0,0.0,0.0,0.0,0.0,0.0,0.0,0.0,0.0,0.0,0.0,0.0,0.0,0.0,0.0,0.0,0.0,0.0,0.0,0.0,0.0,0.0,0.0,0.0,0.0,0.0,0.0,0.0,0.0,0.0,0.0,0.0,0.0,0.0,0.0,0.0,0.0,0.0,0.0,0.0,0.0,0.0,0.0,0.0,0.0,0.0,0.0,0.0,0.0,0.0,0.0,0.0,0.0,0.0,0.0,0.0,0.0,0.0,0.0,0.0,0.0,0.0,0.0,0.0,0.0,0.0,0.0,0.0,0.0,0.0,0.0,0.0,0.0,0.0,0.0,0.0,0.0,0.0,0.0,0.0,0.0,0.0,0.0,0.0,0.0,0.0,0.0,0.0,0.0,0.0,0.0,0.0,0.0,0.0,0.0,0.0,0.0,0.0,0.0,0.0,0.0,0.0,0.0,0.0,0.0,0.0,0.0,0.0,0.0,0.0,0.0,0.0,0.0,0.0,0.0,0.0,0.0,0.0,0.0,0.0,0.0,0.0,0.0,0.0,0.0,0.0,0.0,0.0,0.0,0.0,0.0,0.0,0.0,0.0,0.0,0.0,0.0,0.0,0.0,0.0,0.0,0.0,0.0,0.0,0.0,0.0,0.0,0.0,0.0,0.0,0.0,0.0,0.0,0.0,0.0,0.0,0.0,0.0,0.0,0.0,0.0,0.0,0.0,0.0,0.0,0.0,0.0,0.0,0.0,0.0,0.0,0.0,0.0,0.0,0.0,0.0,0.0,0.0,0.0,0.0,0.0,0.0,0.0,0.0,0.0,0.0,0.0,0.0,0.0,0.0,0.0,0.0,0.0,0.0,0.0,0.0,0.0,0.0,0.0,0.0,0.0,0.0,0.0,0.0,0.0,0.0,0.0,0.0,0.0,0.0,0.0,0.0,0.0,0.0,0.0,0.0,0.0,0.0,0.0,0.0,0.0,0.0,0.0,0.0,0.0,0.0,0.0,0.0,0.0,0.0,0.0,0.0,0.0,0.0,0.0,0.0,0.0,0.0,0.0,0.0,0.0,0.0,0.0,0.0,0.0,0.0,0.0,0.0,0.0,0.0,0.0,0.0,0.0,0.0,0.0,0.0,0.0,0.0,0.0,0.0,0.0,0.0,0.0,0.0,0.0,0.0,0.0,0.0,0.0,0.0,0.0,0.0,0.0,0.0,0.0,0.0,0.0,0.0,0.0,0.0,0.0,0.0,0.0,0.0,0.0,0.0,0.0,0.0,0.0,0.0,0.0,0.0,0.0,0.0,0.0,0.0,0.0,0.0,0.0,0.0,0.0,0.0,0.0,0.0,0.0,0.0,0.0,0.0,0.0,0.0,0.0,0.0,0.0,0.0,0.0,0.0,0.0,0.0,0.0,0.0,0.0,0.0,0.0,0.0,0.0,0.0,0.0,0.0,0.0,0.0,0.0,0.0,0.0,0.0,0.0,0.0,0.0,0.0,0.0,0.0,0.0,0.0,0.0,0.0,0.0,0.0,0.0,0.0,0.0,0.0,0.0,0.0,0.0,0.0,0.0,0.0,0.0,0.0,0.0,0.0,0.0,0.0,0.0,0.0,0.0,0.0,0.0,0.0,0.0,0.0,0.0,0.0,0.0,0.0,0.0,0.0,0.0,0.0,0.0,0.0,0.0,0.0,0.0,0.0,0.0,0.0,0.0,0.0,0.0,0.0,0.0,0.0,0.0,0.0,0.0,0.0,0.0,0.0,0.0,0.0,0.0,0.0,0.0,0.0,0.0,0.0,0.0,0.0,0.0,0.0,0.0,0.0,0.0,0.0,0.0,0.0,0.0,0.0,0.0,0.0,0.0,0.0,0.0,0.0,0.0,0.0,0.0,0.0,0.0,0.0,0.0,0.0,0.0,0.0,0.0,0.0,0.0,0.0,0.0,0.0,0.0,0.0,0.0,0.0,0.0,0.0,0.0,0.0,0.0,0.0,0.0,0.0,0.0,0.0,0.0,0.0,0.0,0.0,0.0,0.0,0.0,0.0,0.0,0.0,0.0,0.0,0.0,0.0,0.0,0.0,0.0,0.0,0.0,0.0,0.0,0.0,0.0,0.0,0.0,0.0,0.0,0.0,0.0,0.0,0.0,0.0,0.0,0.0,0.0,0.0,0.0,0.0,0.0,0.0,0.0,0.0,0.0,0.0,0.0,0.0,0.0,0.0,0.0,0.0,0.0,0.0,0.0,0.0,0.0,0.0,0.0,0.0,0.0,0.0,0.0,0.0,0.0,0.0,0.0,0.0,0.0,0.0,0.0,0.0,0.0,0.0,0.0,0.0,0.0,0.0,0.0,0.0,0.0,0.0,0.0,0.0,0.0,0.0,0.0,0.0,0.0,0.0,0.0,0.0,0.0,0.0,0.0,0.0,0.0,0.0,0.0,0.0,0.0,0.0,0.0,0.0,0.0,0.0,0.0,0.0,0.0,0.0,0.0,0.0,0.0,0.0,0.0,0.0,0.0,0.0,0.0,0.0,0.0,0.0,0.0,0.0,0.0,0.0,0.0,0.0,0.0,0.0,0.0,0.0,0.0,0.0,0.0,0.0,0.0,0.0,0.0,0.0,0.0,0.0,0.0,0.0,0.0,0.0,0.0,0.0,0.0,0.0,0.0,0.0,0.0,0.0,0.0,0.0,0.0,0.0,0.0,0.0,0.0,0.0,0.0,0.0,0.0,0.0,0.0,0.0,0.0,0.0,0.0,0.0,0.0,0.0,0.0,0.0,0.0,0.0,0.0,0.0,0.0,0.0,0.0,0.0,0.0,0.0,0.0,0.0,0.0,0.0,0.0,0.0,0.0,0.0,0.0,0.0,0.0,0.0,0.0,0.0,0.0,0.0,0.0,0.0,0.0,0.0,0.0,0.0,0.0,0.0,0.0,0.0,0.0,0.0,0.0,0.0,0.0,0.0,0.0,0.0,0.0,0.0,0.0,0.0,0.0,0.0,0.0,0.0,0.0,0.0,0.0,0.0,0.0,0.0,0.0,0.0,0.0,0.0,0.0,0.0,0.0,0.0,0.0,0.0,0.0,0.0,0.0,0.0,0.0,0.0,0.0,0.0,0.0,0.0,0.0,0.0,0.0,0.0,0.0,0.0,0.0,0.0,0.0,0.0,0.0,0.0,0.0,0.0,0.0,0.0,0.0,0.0,0.0,0.0,0.0,0.0,0.0,0.0,0.0,0.0,0.0,0.0,0.0,0.0,0.0,0.0,0.0,0.0,0.0,0.0,0.0,0.0,0.0,0.0,0.0,0.0,0.0,0.0,0.0,0.0,0.0,0.0,0.0,0.0,0.0,0.0,0.0,0.0,0.0,0.0,0.0,0.0,0.0,0.0,0.0,0.0,0.0,0.0,0.0,0.0,0.0,0.0,0.0,0.0,0.0,0.0,0.0,0.0,0.0,0.0,0.0,0.0,0.0,0.0,0.0,0.0,0.0,0.0,0.0,0.0,0.0,0.0,0.0,0.0,0.0,0.0,0.0,0.0,0.0,0.0,0.0,0.0,0.0,0.0,0.0,0.0,0.0,0.0,0.0,0.0,0.0,0.0,0.0,0.0,0.0,0.0,0.0,0.0,0.0,0.0,0.0,0.0,0.0,0.0,0.0,0.0,0.0,0.0,0.0,0.0,0.0,0.0,0.0,0.0,0.0,0.0,0.0,0.0,0.0,0.0,0.0,0.0,0.0,0.0,0.0,0.0,0.0,0.0,0.0,0.0,0.0,0.0,0.0,0.0,0.0,0.0,0.0,0.0,0.0,0.0,0.0,0.0,0.0,0.0,0.0,0.0,0.0,0.0,0.0,0.0,0.0,0.0,0.0,0.0,0.0,0.0,0.0,0.0,0.0,0.0,0.0,0.0,0.0,0.0,0.0,0.0,0.0,0.0,0.0,0.0,0.0,0.0,0.0,0.0,0.0,0.0,0.0,0.0,0.0,0.0,0.0,0.0,0.0,0.0,0.0,0.0,0.0,0.0,0.0,0.0,0.0,0.0,0.0,0.0,0.0,0.0,0.0,0.0,0.0,0.0,0.0,0.0,0.0,0.0,0.0,0.0,0.0,0.0,0.0,0.0,0.0,0.0,0.0,0.0,0.0,0.0,0.0,0.0,0.0,0.0,0.0,0.0,0.0,0.0,0.0,0.0,0.0,0.0,0.0,0.0,0.0,0.0,0.0,0.0,0.0,0.0,0.0,0.0,0.0,0.0,0.0,0.0,0.0,0.0,0.0,0.0,0.0,0.0,0.0,0.0,0.0,0.0,0.0,0.0,0.0,0.0,0.0,0.0,0.0,0.0,0.0,0.0,0.0,0.0,0.0,0.0,0.0,0.0,0.0,0.0,0.0,0.0,0.0,0.0,0.0,0.0,0.0,0.0,0.0,0.0,0.0,0.0,0.0,0.0,0.0,0.0,0.0,0.0,0.0,0.0,0.0,0.0,0.0,0.0,0.0,0.0,0.0,0.0,0.0,0.0,0.0,0.0,0.0,0.0,0.0,0.0,0.0,0.0,0.0,0.0,0.0,0.0,0.0,0.0,0.0,0.0,0.0,0.0,0.0,0.0,0.0,0.0,0.0,0.0,0.0,0.0,0.0,0.0,0.0,0.0,0.0,0.0,0.0,0.0,0.0,0.0,0.0,0.0,0.0,0.0,0.0,0.0,0.0,0.0,0.0,0.0,0.0,0.0,0.0,0.0,0.0,0.0,0.0,0.0,0.0,0.0,0.0,0.0,0.0,0.0,0.0,0.0,0.0,0.0,0.0,0.0,0.0,0.0,0.0,0.0,0.0,0.0,0.0,0.0,0.0,0.0,0.0,0.0,0.0,0.0,0.0,0.0,0.0,0.0,0.0,0.0,0.0,0.0,0.0,0.0,0.0,0.0,0.0,0.0,0.0,0.0,0.0,0.0,0.0,0.0,0.0,0.0,0.0,0.0,0.0,0.0,0.0,0.0,0.0,0.0,0.0,0.0,0.0,0.0,0.0,0.0,0.0,0.0,0.0,0.0,0.0,0.0,0.0,0.0,0.0,0.0,0.0,0.0,0.0,0.0,0.0,0.0,0.0,0.0,0.0,0.0,0.0,0.0,0.0,0.0,0.0,0.0,0.0,0.0,0.0,0.0,0.0,0.0,0.0,0.0,0.0,0.0,0.0,0.0,0.0,0.0,0.0,0.0,0.0,0.0,0.0,0.0,0.0,0.0,0.0,0.0,0.0,0.0,0.0,0.0,0.0,0.0,0.0,0.0,0.0,0.0,0.0,0.0,0.0,0.0,0.0,0.0,0.0,0.0,0.0,0.0,0.0,0.0,0.0,0.0,0.0,0.0,0.0,0.0,0.0,0.0,0.0,0.0,0.0,0.0,0.0,0.0,0.0,0.0,0.0,0.0,0.0,0.0,0.0,0.0,0.0,0.0,0.0,0.0,0.0,0.0,0.0,0.0,0.0,0.0,0.0,0.0,0.0,0.0,0.0,0.0,0.0,0.0,0.0,0.0,0.0,0.0,0.0,0.0,0.0,0.0,0.0,0.0,0.0,0.0,0.0,0.0,0.0,0.0,0.0,0.0,0.0,0.0,0.0,0.0,0.0,0.0,0.0,0.0,0.0,0.0,0.0,0.0,0.0,0.0,0.0,0.0,0.0,0.0,0.0,0.0,0.0,0.0,0.0,0.0,0.0,0.0,0.0,0.0,0.0,0.0,0.0,0.0,0.0,0.0,0.0,0.0,0.0,0.0,0.0,0.0,0.0,0.0,0.0,0.0,0.0,0.0,0.0,0.0,0.0,0.0,0.0,0.0,0.0,0.0,0.0,0.0,0.0,0.0,0.0,0.0,0.0,0.0,0.0,0.0,0.0,0.0,0.0,0.0,0.0,0.0,0.0,0.0,0.0,0.0,0.0,0.0,0.0,0.0,0.0,0.0,0.0,0.0,0.0,0.0,0.0,0.0,0.0,0.0,0.0,0.0,0.0,0.0,0.0,0.0,0.0,0.0,0.0,0.0,0.0,0.0,0.0,0.0,0.0,0.0,0.0,0.0,0.0,0.0,0.0,0.0,0.0,0.0,0.0,0.0,0.0,0.0,0.0,0.0,0.0,0.0,0.0,0.0,0.0,0.0,0.0,0.0,0.0,0.0,0.0,0.0,0.0,0.0,0.0,0.0,0.0,0.0,0.0,0.0,0.0,0.0,0.0,0.0,0.0,0.0,0.0,0.0,0.0,0.0,0.0,0.0,0.0,0.0,0.0,0.0,0.0,0.0,0.0,0.0,0.0,0.0,0.0,0.0,0.0,0.0,0.0,0.0,0.0,0.0,0.0,0.0,0.0,0.0,0.0,0.0,0.0,0.0,0.0,0.0,0.0,0.0,0.0,0.0,0.0,0.0,0.0,0.0,0.0,0.0,0.0,0.0,0.0,0.0,0.0,0.0,0.0,0.0,0.0,0.0,0.0,0.0,0.0,0.0,0.0,0.0,0.0,0.0,0.0,0.0,0.0,0.0,0.0,0.0,0.0,0.0,0.0,0.0,0.0,0.0,0.0,0.0,0.0,0.0,0.0,0.0,0.0,0.0,0.0,0.0,0.0,0.0,0.0,0.0,0.0,0.0,0.0,0.0,0.0,0.0,0.0,0.0,0.0,0.0,0.0,0.0,0.0,0.0,0.0,0.0,0.0,0.0,0.0,0.0,0.0,0.0,0.0,0.0,0.0,0.0,0.0,0.0,0.0,0.0,0.0,0.0,0.0,0.0,0.0,0.0,0.0,0.0,0.0,0.0,0.0,0.0,0.0,0.0,0.0,0.0,0.0,0.0,0.0,0.0,0.0,0.0,0.0,0.0,0.0,0.0,0.0,0.0,0.0,0.0,0.0,0.0,0.0,0.0,0.0,0.0,0.0,0.0,0.0,0.0,0.0,0.0,0.0,0.0,0.0,0.0,0.0,0.0,0.0,0.0,0.0,0.0,0.0,0.0,0.0,0.0,0.0,0.0,0.0,0.0,0.0,0.0,0.0,0.0,0.0,0.0,0.0,0.0,0.0,0.0,0.0,0.0,0.0,0.0,0.0,0.0,0.0,0.0,0.0,0.0,0.0,0.0,0.0,0.0,0.0,0.0,0.0,0.0,0.0,0.0,0.0,0.0,0.0,0.0,0.0,0.0,0.0,0.0,0.0,0.0,0.0,0.0,0.0,0.0,0.0,0.0,0.0,0.0,0.0,0.0,0.0,0.0,0.0,0.0,0.0,0.0,0.0,0.0,0.0,0.0,0.0,0.0,0.0,0.0,0.0,0.0,0.0,0.0,0.0,0.0,0.0,0.0,0.0,0.0,0.0,0.0,0.0,0.0,0.0,0.0,0.0,0.0,0.0,0.0,0.0,0.0,0.0,0.0,0.0,0.0,0.0,0.0,0.0,0.0,0.0,0.0,0.0,0.0,0.0,0.0,0.0,0.0,0.0,0.0,0.0,0.0,0.0,0.0,0.0,0.0,0.0,0.0,0.0,0.0,0.0,0.0,0.0,0.0,0.0,0.0,0.0,0.0,0.0,0.0,0.0,0.0,0.0,0.0,0.0,0.0,0.0,0.0,0.0,0.0,0.0,0.0,0.0,0.0,0.0,0.0,0.0,0.0,0.0,0.0,0.0,0.0,0.0,0.0,0.0,0.0,0.0,0.0,0.0,0.0,0.0,0.0,0.0,0.0,0.0,0.0,0.0,0.0,0.0,0.0,0.0,0.0,0.0,0.0,0.0,0.0,0.0,0.0,0.0,0.0,0.0,0.0,0.0,0.0,0.0,0.0,0.0,0.0,0.0,0.0,0.0,0.0,0.0,0.0,0.0,0.0,0.0,0.0,0.0,0.0,0.0,0.0,0.0,0.0,0.0,0.0,0.0,0.0,0.0,0.0,0.0,0.0,0.0,0.0,0.0,0.0,0.0,0.0,0.0,0.0,0.0,0.0,0.0,0.0,0.0,0.0,0.0,0.0,0.0,0.0,0.0,0.0,0.0,0.0,0.0,0.0,0.0,0.0,0.0,0.0,0.0,0.0,0.0,0.0,0.0,0.0,0.0,0.0,0.0,0.0,0.0,0.0,0.0,0.0,0.0,0.0,0.0,0.0,0.0,0.0,0.0,0.0,0.0,0.0,0.0,0.0,0.0,0.0,0.0,0.0,0.0,0.0,0.0,0.0,0.0,0.0,0.0,0.0,0.0,0.0,0.0,0.0,0.0,0.0,0.0,0.0,0.0,0.0,0.0,0.0,0.0,0.0,0.0,0.0,0.0,0.0,0.0,0.0,0.0,0.0,0.0,0.0,0.0,0.0,0.0,0.0,0.0,0.0,0.0,0.0,0.0,0.0,0.0,0.0,0.0,0.0,0.0,0.0,0.0,0.0,0.0,0.0,0.0,0.0,0.0,0.0,0.0,0.0,0.0,0.0,0.0,0.0,0.0,0.0,0.0,0.0,0.0,0.0,0.0,0.0,0.0,0.0,0.0,0.0,0.0,0.0,0.0,0.0,0.0,0.0,0.0,0.0,0.0,0.0,0.0,0.0,0.0,0.0,0.0,0.0,0.0,0.0,0.0,0.0,0.0,0.0,0.0,0.0,0.0,0.0,0.0,0.0,0.0,0.0,0.0,0.0,0.0,0.0,0.0,0.0,0.0,0.0,0.0,0.0,0.0,0.0,0.0,0.0,0.0,0.0,0.0,0.0,0.0,0.0,0.0,0.0,0.0,0.0,0.0,0.0,0.0,0.0,0.0,0.0,0.0,0.0,0.0,0.0,0.0,0.0,0.0,0.0,0.0,0.0,0.0,0.0,0.0,0.0,0.0,0.0,0.0,0.0,0.0,0.0,0.0,0.0,0.0,0.0,0.0,0.0,0.0,0.0,0.0,0.0,0.0,0.0,0.0,0.0,0.0,0.0,0.0,0.0,0.0,0.0,0.0,0.0,0.0,0.0,0.0,0.0,0.0,0.0,0.0,0.0,0.0,0.0,0.0,0.0,0.0,0.0,0.0,0.0,0.0,0.0,0.0,0.0,0.0,0.0,0.0,0.0,0.0,0.0,0.0,0.0,0.0,0.0,0.0,0.0,0.0,0.0,0.0,0.0,0.0,0.0,0.0,0.0,0.0,0.0,0.0,0.0,0.0,0.0,0.0,0.0,0.0,0.0,0.0,0.0,0.0,0.0,0.0,0.0,0.0,0.0,0.0,0.0,0.0,0.0,0.0,0.0,0.0,0.0,0.0,0.0,0.0,0.0,0.0,0.0,0.0,0.0,0.0,0.0,0.0,0.0,0.0,0.0,0.0,0.0,0.0,0.0,0.0,0.0,0.0,0.0,0.0,0.0,0.0,0.0,0.0,0.0,0.0,0.0,0.0,0.0,0.0,0.0,0.0,0.0,0.0,0.0,0.0,0.0,0.0,0.0,0.0,0.0,0.0,0.0,0.0,0.0,0.0,0.0,0.0,0.0,0.0,0.0,0.0,0.0,0.0,0.0,0.0,0.0,0.0,0.0,0.0,0.0,0.0,0.0,0.0,0.0,0.0,0.0,0.0,0.0,0.0,0.0,0.0,0.0,0.0,0.0,0.0,0.0,0.0,0.0,0.0,0.0,0.0,0.0,0.0,0.0,0.0,0.0,0.0,0.0,0.0,0.0,0.0,0.0,0.0,0.0,0.0,0.0,0.0,0.0,0.0,0.0,0.0,0.0,0.0,0.0,0.0,0.0,0.0,0.0,0.0,0.0,0.0,0.0,0.0,0.0,0.0,0.0,0.0,0.0,0.0,0.0,0.0,0.0,0.0,0.0,0.0,0.0,0.0,0.0,0.0,0.0,0.0,0.0,0.0,0.0,0.0,0.0,0.0,0.0,0.0,0.0,0.0,0.0,0.0,0.0,0.0,0.0,0.0,0.0,0.0,0.0,0.0,0.0,0.0,0.0,0.0,0.0,0.0,0.0,0.0,0.0,0.0,0.0,0.0,0.0,0.0,0.0,0.0,0.0,0.0,0.0,0.0,0.0,0.0,0.0,0.0,0.0,0.0,0.0,0.0,0.0,0.0,0.0,0.0,0.0,0.0,0.0,0.0,0.0,0.0,0.0,0.0,0.0,0.0,0.0,0.0,0.0,0.0,0.0,0.0,0.0,0.0,0.0,0.0,0.0,0.0,0.0,0.0,0.0,0.0,0.0,0.0,0.0,0.0,0.0,0.0,0.0,0.0,0.0,0.0,0.0,0.0,0.0,0.0,0.0,0.0,0.0,0.0,0.0,0.0,0.0,0.0,0.0,0.0,0.0,0.0,0.0,0.0,0.0,0.0,0.0,0.0,0.0,0.0,0.0,0.0,0.0,0.0,0.0,0.0,0.0,0.0,0.0,0.0,0.0,0.0,0.0,0.0,0.0,0.0,0.0,0.0,0.0,0.0,0.0,0.0,0.0,0.0,0.0,0.0,0.0,0.0,0.0,0.0,0.0,0.0,0.0,0.0,0.0,0.0,0.0,0.0,0.0,0.0,0.0,0.0,0.0,0.0,0.0,0.0,0.0,0.0,0.0,0.0,0.0,0.0,0.0,0.0,0.0,0.0,0.0,0.0,0.0,0.0,0.0,0.0,0.0,0.0,0.0,0.0,0.0,0.0,0.0,0.0,0.0,0.0,0.0,0.0,0.0,0.0,0.0,0.0,0.0,0.0,0.0,0.0,0.0,0.0,0.0,0.0,0.0,0.0,0.0,0.0,0.0,0.0,0.0,0.0236,0.2121,0.1649,0.0,0.0,0.0,0.0,0.0,0.0,0.0,0.0,0.0,0.0,0.0,0.0,0.0,0.0,0.0,0.0,0.0,0.0,0.0,0.0,0.0,0.0,0.0,0.0,0.0,0.0,0.0,0.0,0.0,0.0,0.0,0.0,0.0,0.0,0.0,0.0,0.0,0.0,0.0,0.0,0.0,0.0,0.0,0.0,0.0,0.0,0.0,0.0,0.0,0.0,0.0,0.0,0.0,0.0,0.0,0.0,0.0,0.0,0.0,0.0,0.0,0.0,0.0,0.0,0.0,0.0,0.0,0.0,0.0,0.0,0.0,0.0,0.0,0.0,0.0,0.0,0.0,0.0,0.0,0.0,0.0,0.0,0.0,0.0,0.0,0.0,0.0,0.0,0.0,0.0,0.0,0.0,0.0,0.0,0.0,0.0,0.0,0.0,0.0,0.0,0.0,0.0,0.0,0.0,0.0,0.0,0.0,0.0,0.0,0.0,0.0,0.0,0.0,0.1178,1.1797,0.9195,0.0,0.0,0.0,0.0,0.0,0.0,0.0,0.0,0.0,0.0,0.0,0.0,0.0,0.0,0.0,0.0,0.0,0.0,0.0,0.0,0.0,0.0,0.0,0.0,0.0,0.0,0.0,0.0,0.0,0.0,0.0,0.0,0.0,0.0,0.0,0.0,0.0,0.0,0.0,0.0,0.0,0.0,0.0,0.0,0.0,0.0,0.0,0.0,0.0,0.0,0.0,0.0,0.0,0.0,0.0,0.0,0.0,0.0,0.0,0.0,0.0,0.0,0.0,0.0,0.0,0.0,0.0,0.0,0.0,0.0,0.0,0.0,0.0,0.0,0.0,0.0,0.0,0.0,0.0,0.0,0.0,0.0,0.0,0.0,0.0,0.0,0.0,0.0,0.0,0.0,0.0,0.0,0.0,0.0,0.0,0.0,0.0,0.0,0.0,0.0,0.0,0.0,0.0,0.0,0.0,0.0,0.0,0.0,0.0,0.0,0.0707,0.7302,1.0143,1.0378,1.2727,1.2249,0.9179,0.2357,0.0,0.0,0.0,0.0,0.0,0.0,0.0,0.0,0.0,0.0,0.0,0.0,0.0,0.0,0.0,0.0,0.0,0.0,0.0,0.0,0.0,0.0,0.0,0.0,0.0,0.0,0.0,0.0,0.0,0.0,0.0,0.0,0.0,0.0,0.0,0.0,0.0,0.0,0.0,0.0,0.0,0.0,0.0,0.0,0.0,0.0,0.0,0.0,0.0,0.0,0.0,0.0,0.0,0.0,0.0,0.0,0.0,0.0,0.0,0.0,0.0,0.0,0.0,0.0,0.0,0.0,0.0,0.0,0.0,0.0,0.0,0.0,0.0,0.0,0.0,0.0,0.0,0.0,0.0,0.0,0.0,0.0,0.2633,0.314,0.0242,0.0,0.1213,0.4329,0.455,0.3093,0.0236,0.0,0.0,0.0,0.0,0.0,0.0,0.0,0.0,0.0,0.0,0.0,0.0,0.0,0.0,0.0,0.0,0.1649,0.5182,1.4895,1.8731,1.8229,1.3402,1.4575,1.7462,0.7747,0.2593,0.0,0.0,0.0,0.0,0.0,0.0,0.0,0.0,0.0,0.0,0.0,0.0,0.0,0.0,0.0,0.0,0.0,0.0,0.0,0.0,0.0,0.0,0.0,0.0,0.0,0.0,0.0,0.0,0.0,0.0,0.0,0.0,0.0,0.0,0.0,0.0,0.0,0.0,0.0,0.0,0.0,0.0,0.0,0.0,0.0,0.0,0.0,0.0,0.0,0.0,0.0,0.0,0.0,0.0,0.0,0.0,0.0,0.0,0.0,0.0,0.0,0.0,0.0,0.0,0.0,0.0,0.0,0.0,0.0,0.0,0.0,0.0,0.0,0.0,0.0,0.0,0.0,0.0,0.0,0.0,0.0,1.0407,1.2682,0.0978,0.0,0.5117,1.7409,1.7668,1.2223,0.047,0.0,0.0,0.0,0.0,0.0,0.0,0.0,0.0,0.0,0.0,0.0,0.0,0.0,0.0,0.0,0.0,0.6836,1.7525,1.8489,1.8717,1.8664,1.8364,1.8384,1.8664,1.7702,0.9869,0.0,0.0,0.0,0.0,0.0,0.0,0.0,0.0,0.0,0.0,0.0,0.0,0.0,0.0,0.0,0.0,0.0,0.0,0.0,0.0,0.0,0.0,0.0,0.0,0.0,0.0,0.0,0.0,0.0,0.0,0.0,0.0,0.0,0.0,0.0,0.0,0.0,0.0,0.0,0.0,0.0,0.0,0.0,0.0,0.0,0.0,0.0,0.0,0.0,0.0,0.0,0.0,0.0,0.0,0.0,0.0,0.0,0.0,0.0,0.0,0.0,0.0,0.0,0.0,0.0,0.0,0.0,0.0,0.072,0.0,0.0,0.0,0.0,0.0,0.0,0.0,0.0,0.0,0.0,0.3104,1.1372,1.6409,1.732,1.2589,1.2158,1.4341,1.9325,1.9237,1.3097,0.0471,0.0,0.0,0.0,0.0,0.0,0.0,0.0,0.0,0.0,0.0,0.0,0.0,0.0,0.0,0.0471,0.8248,1.442,1.8731,1.8898,1.8864,1.885,1.8816,1.8796,1.8816,1.885,1.3153,0.516,0.141,0.0,0.0,0.0,0.0,0.0,0.0,0.0,0.0,0.0,0.0,0.0,0.0,0.0,0.0,0.0,0.0,0.0,0.0,0.0,0.0,0.0,0.0,0.0,0.0,0.0,0.0,0.0,0.0,0.0,0.0,0.0,0.0,0.0,0.0,0.0,0.0,0.0,0.0,0.0,0.0,0.0,0.0,0.0,0.0,0.0,0.0,0.0,0.0,0.0,0.0,0.0,0.0,0.0,0.0,0.0,0.0,0.0,0.0,0.0,0.0,0.0,0.0,0.0,0.0,0.0,0.0,0.6691,0.5928,0.5901,0.5918,0.6172,0.619,0.6201,0.5994,0.5988,0.6161,0.5984,0.9365,1.8595,1.9626,1.9556,1.966,1.9695,1.966,1.9516,1.9094,1.3225,0.0471,0.0,0.0,0.0,0.0,0.0,0.0,0.0,0.0,0.0,0.0,0.0,0.0,0.0,0.2121,0.6363,1.5135,1.8717,1.8918,1.885,1.8816,1.8816,1.8782,1.8762,1.8762,1.8816,1.5976,1.102,0.2815,0.0,0.0,0.0,0.0,0.0,0.0,0.0,0.0,0.0,0.0,0.0,0.0,0.0,0.0,0.0,0.0,0.0,0.0,0.0,0.0,0.0,0.0,0.0,0.0,0.0,0.0,0.0,0.0,0.0,0.0,0.0,0.0,0.0,0.0,0.0,0.0,0.0,0.0,0.0,0.0,0.0,0.0,0.0,0.0,0.0,0.0,0.0,0.0,0.0,0.0,0.0,0.0,0.0,0.0,0.0,0.0,0.0,0.0,0.0,0.0,0.0,0.0,0.0,0.0,0.0,0.0,1.8905,1.8767,1.88,1.8918,1.9257,1.9647,1.9798,1.9078,1.9072,1.9576,1.9158,1.8927,1.9522,1.9091,1.9158,1.9657,1.9763,1.9366,1.8952,1.8731,1.3139,0.0704,0.0,0.0,0.0,0.0,0.0235,0.0235,0.0,0.0,0.0,0.0,0.0,0.0,0.0,0.7067,1.8731,1.8731,1.8918,1.883,1.883,1.8796,1.8762,1.8762,1.8762,1.8762,1.8816,1.883,1.6933,0.4455,0.0,0.0,0.0,0.0,0.0,0.0,0.0,0.0,0.0,0.0,0.0,0.0,0.0,0.0,0.0,0.0,0.0,0.0,0.0,0.0,0.0,0.0,0.0,0.0,0.0,0.0,0.0,0.0,0.0,0.0,0.0,0.0,0.0,0.0,0.0,0.0,0.0,0.0,0.0,0.0,0.0,0.0,0.0,0.0,0.0,0.0,0.0,0.0,0.0,0.0,0.0,0.0,0.0,0.0,0.0,0.0,0.0,0.0,0.0,0.0,0.0,0.0,0.0,0.0,0.0,0.0,1.9345,1.9046,1.9026,1.9325,1.9626,1.966,1.9715,1.9569,1.9556,1.9592,1.9522,1.959,1.9578,1.9522,1.9381,1.975,1.9715,1.9332,1.8838,1.8884,1.7135,1.3372,0.4681,0.0,0.0,0.8681,1.3177,1.3177,0.4223,0.0,0.0,0.0,0.0,0.0471,0.9195,1.5375,1.8731,1.8898,1.885,1.883,1.8796,1.8782,1.8762,1.8762,1.8762,1.8762,1.8782,1.8796,1.8118,1.456,0.7267,0.0,0.0,0.0,0.0,0.0,0.0,0.0,0.0,0.0,0.0,0.0,0.0,0.0,0.0,0.0,0.0,0.0,0.0,0.0,0.0,0.0,0.0,0.0,0.0,0.0,0.0,0.0,0.0,0.0,0.0,0.0,0.0,0.0,0.0,0.0,0.0,0.0,0.0,0.0,0.0,0.0,0.0,0.0,0.0,0.0,0.0,0.0,0.0,0.0,0.0,0.0,0.0,0.0,0.0,0.0,0.0,0.0,0.0,0.0,0.0,0.0,0.0,0.0,0.0,0.0,1.9695,1.9413,1.9153,1.9681,1.9729,1.9763,1.9763,1.961,1.9596,1.966,1.9784,1.9596,1.9647,1.9798,1.963,1.9784,1.966,1.9482,1.8771,1.885,1.8782,1.8796,1.1462,0.7474,0.7482,1.4804,1.8864,1.8864,1.1278,0.4929,0.0,0.0,0.0,0.0471,1.3225,1.8717,1.8697,1.8864,1.8816,1.8796,1.8782,1.8762,1.8762,1.8762,1.8762,1.8762,1.8762,1.8782,1.8816,1.883,1.0322,0.0,0.0,0.0,0.0,0.0,0.0,0.0,0.0,0.0,0.0,0.0,0.0,0.0,0.0,0.0,0.0,0.0,0.0,0.0,0.0,0.0,0.0,0.0,0.0,0.0,0.0,0.0,0.0,0.0,0.0,0.0,0.0,0.0,0.0,0.0,0.0,0.0,0.0,0.0,0.0,0.0,0.0,0.0,0.0,0.0,0.0,0.0,0.0,0.0,0.0,0.0,0.0,0.0,0.0,0.0,0.0,0.0,0.0,0.0,0.0,0.0,0.0,0.0,0.0,0.0,1.9729,1.9818,1.961,1.9729,1.9818,1.9664,1.9664,1.9664,1.9664,1.9664,1.9664,1.9664,1.9664,1.9664,1.9664,1.9664,1.9626,1.9392,1.8784,1.885,1.8762,1.8762,1.8762,1.8782,1.883,1.883,1.883,1.883,1.8864,1.2461,0.0,0.0,0.0,0.0471,1.251,1.8215,1.8898,1.885,1.8796,1.8762,1.8762,1.8762,1.8762,1.8762,1.8762,1.8762,1.8762,1.8762,1.8762,1.8816,1.0794,0.0704,0.0235,0.0,0.0,0.0,0.0,0.0,0.0,0.0,0.0,0.0,0.0,0.0,0.0,0.0,0.0,0.0,0.0,0.0,0.0,0.0,0.0,0.0,0.0,0.0,0.0,0.0,0.0,0.0,0.0,0.0,0.0,0.0,0.0,0.0,0.0,0.0,0.0,0.0,0.0,0.0,0.0,0.0,0.0,0.0,0.0,0.0,0.0,0.0,0.0,0.0,0.0,0.0,0.0,0.0,0.0,0.0,0.0,0.0,0.0,0.0,0.0,0.0,0.0,0.0,1.963,1.9644,1.9644,1.963,1.9644,1.9664,1.9664,1.9664,1.9664,1.9664,1.9664,1.9664,1.9664,1.9664,1.9664,1.9664,1.9626,1.9427,1.8918,1.8898,1.8762,1.8762,1.8762,1.8762,1.8782,1.8782,1.8782,1.8782,1.883,1.2425,0.0,0.0,0.0,0.0236,0.799,1.4128,1.8898,1.8816,1.8782,1.8762,1.8762,1.8762,1.8762,1.8762,1.8762,1.8762,1.8762,1.8762,1.8782,1.8864,1.364,0.6567,0.1646,0.0,0.0,0.0,0.0,0.0,0.0,0.0,0.0,0.0,0.0,0.0,0.0,0.0,0.0,0.0,0.0,0.0,0.0,0.0,0.0,0.0,0.0,0.0,0.0,0.0,0.0,0.0,0.0,0.0,0.0,0.0,0.0,0.0,0.0,0.0,0.0,0.0,0.0,0.0,0.0,0.0,0.0,0.0,0.0,0.0,0.0,0.0,0.0,0.0,0.0,0.0,0.0,0.0,0.0,0.0,0.0,0.0,0.0,0.0,0.0,0.0,0.0,0.0,1.9664,1.9664,1.9664,1.9664,1.9664,1.9664,1.9664,1.9664,1.9664,1.9664,1.9664,1.9664,1.9664,1.9664,1.9664,1.9664,1.9626,1.9447,1.8952,1.8918,1.8762,1.8762,1.8762,1.8762,1.8762,1.8762,1.8762,1.8762,1.8816,1.5498,0.8892,0.281,0.0,0.0235,0.6556,1.2901,1.8864,1.8796,1.8762,1.8762,1.8762,1.8762,1.8762,1.8762,1.8762,1.8762,1.8762,1.8762,1.8782,1.885,1.4575,0.8209,0.188,0.0,0.0,0.0,0.0,0.0,0.0,0.0,0.0,0.0,0.0,0.0,0.0,0.0,0.0,0.0,0.0,0.0,0.0,0.0,0.0,0.0,0.0,0.0,0.0,0.0,0.0,0.0,0.0,0.0,0.0,0.0,0.0,0.0,0.0,0.0,0.0,0.0,0.0,0.0,0.0,0.0,0.0,0.0,0.0,0.0,0.0,0.0,0.0,0.0,0.0,0.0,0.0,0.0,0.0,0.0,0.0,0.0,0.0,0.0,0.0,0.0,0.0,0.0,1.9664,1.9664,1.9664,1.9664,1.9664,1.9664,1.9664,1.9664,1.9664,1.9664,1.9644,1.963,1.9664,1.9664,1.9644,1.9596,1.9592,1.9427,1.8918,1.8918,1.8762,1.8762,1.8762,1.8762,1.8762,1.8762,1.8762,1.8762,1.8796,1.883,1.859,0.8186,0.3276,0.351,0.8649,1.3824,1.883,1.8782,1.8762,1.8762,1.8762,1.8762,1.8762,1.8762,1.8762,1.8762,1.8762,1.8762,1.8762,1.8816,1.5276,0.9617,0.2346,0.0,0.0,0.0,0.0,0.0,0.0,0.0,0.0,0.0,0.0,0.0,0.0,0.0,0.0,0.0,0.0,0.0,0.0,0.0,0.0,0.0,0.0,0.0,0.0,0.0,0.0,0.0,0.0,0.0,0.0,0.0,0.0,0.0,0.0,0.0,0.0,0.0,0.0,0.0,0.0,0.0,0.0,0.0,0.0,0.0,0.0,0.0,0.0,0.0,0.0,0.0,0.0,0.0,0.0,0.0,0.0,0.0,0.0,0.0,0.0,0.0,0.0,0.0,1.9664,1.9664,1.9664,1.9664,1.9664,1.9664,1.9664,1.9664,1.9664,1.9664,1.9784,1.9763,1.9644,1.9664,1.9798,1.9782,1.9713,1.9392,1.8784,1.885,1.8762,1.8762,1.8762,1.8762,1.8762,1.8762,1.8762,1.8762,1.8762,1.8796,1.883,1.7154,1.6233,1.6262,1.7172,1.8111,1.883,1.8782,1.8762,1.8762,1.8762,1.8762,1.8762,1.8762,1.8762,1.8762,1.8762,1.8762,1.8762,1.8816,1.815,1.5543,0.3754,0.0,0.0,0.0,0.0,0.0,0.0,0.0,0.0,0.0,0.0,0.0,0.0,0.0,0.0,0.0,0.0,0.0,0.0,0.0,0.0,0.0,0.0,0.0,0.0,0.0,0.0,0.0,0.0,0.0,0.0,0.0,0.0,0.0,0.0,0.0,0.0,0.0,0.0,0.0,0.0,0.0,0.0,0.0,0.0,0.0,0.0,0.0,0.0,0.0,0.0,0.0,0.0,0.0,0.0,0.0,0.0,0.0,0.0,0.0,0.0,0.0,0.0,0.0,1.9664,1.9664,1.9664,1.9664,1.9664,1.9664,1.9664,1.9664,1.963,1.9784,1.9715,1.9454,1.9267,1.9287,1.9447,1.9706,1.9379,1.9061,1.8751,1.885,1.8762,1.8762,1.8762,1.8762,1.8762,1.8762,1.8762,1.8762,1.8762,1.8782,1.8796,1.8796,1.8796,1.8816,1.8796,1.8796,1.8796,1.8782,1.8762,1.8762,1.8762,1.8762,1.8762,1.8762,1.8762,1.8762,1.8762,1.8762,1.8762,1.8782,1.883,1.7185,0.8209,0.2818,0.0,0.0,0.0,0.0,0.0,0.0,0.0,0.0,0.0,0.0,0.0,0.0,0.0,0.0,0.0,0.0,0.0,0.0,0.0,0.0,0.0,0.0,0.0,0.0,0.0,0.0,0.0,0.0,0.0,0.0,0.0,0.0,0.0,0.0,0.0,0.0,0.0,0.0,0.0,0.0,0.0,0.0,0.0,0.0,0.0,0.0,0.0,0.0,0.0,0.0,0.0,0.0,0.0,0.0,0.0,0.0,0.0,0.0,0.0,0.0,0.0,0.0]}]]